<?xml version="1.0" encoding="UTF-8" standalone="no" ?>
<gpx xmlns="http://www.topografix.com/GPX/1/1" xmlns:xsi="http://www.w3.org/2001/XMLSchema-instance" xsi:schemaLocation="http://www.topografix.com/GPX/1/1 http://www.topografix.com/GPX/1/1/gpx.xsd" version="1.1" creator="VisuGPX - https://www.visugpx.com">
  <metadata>
    <name>montée sur le lac de bouillouses</name>
    <desc><![CDATA[passage difficile le long des lacs dans de l\'enrochement, équilibre nécessaire]]></desc>
  </metadata>
  <trk>
    <name><![CDATA[montée sur le lac de bouillouses_1]]></name>
    <trkseg>
      <trkpt lat="42.51535" lon="2.07643">
        <ele>1725.4</ele>
        <time>2011-05-03T07:53:23Z</time>
      </trkpt>
      <trkpt lat="42.51535" lon="2.07643">
        <ele>1777</ele>
        <time>2011-05-03T07:56:05Z</time>
      </trkpt>
      <trkpt lat="42.51535" lon="2.07634">
        <ele>1778</ele>
        <time>2011-05-03T07:56:11Z</time>
      </trkpt>
      <trkpt lat="42.51538" lon="2.07625">
        <ele>1778</ele>
        <time>2011-05-03T07:56:18Z</time>
      </trkpt>
      <trkpt lat="42.51543" lon="2.0762">
        <ele>1778</ele>
        <time>2011-05-03T07:56:25Z</time>
      </trkpt>
      <trkpt lat="42.51549" lon="2.07614">
        <ele>1779</ele>
        <time>2011-05-03T07:56:33Z</time>
      </trkpt>
      <trkpt lat="42.51553" lon="2.07609">
        <ele>1779</ele>
        <time>2011-05-03T07:56:40Z</time>
      </trkpt>
      <trkpt lat="42.51557" lon="2.076">
        <ele>1780</ele>
        <time>2011-05-03T07:56:47Z</time>
      </trkpt>
      <trkpt lat="42.5156" lon="2.07592">
        <ele>1780</ele>
        <time>2011-05-03T07:56:54Z</time>
      </trkpt>
      <trkpt lat="42.51561" lon="2.07582">
        <ele>1780</ele>
        <time>2011-05-03T07:57:00Z</time>
      </trkpt>
      <trkpt lat="42.51564" lon="2.07575">
        <ele>1781</ele>
        <time>2011-05-03T07:57:05Z</time>
      </trkpt>
      <trkpt lat="42.51567" lon="2.07566">
        <ele>1781</ele>
        <time>2011-05-03T07:57:10Z</time>
      </trkpt>
      <trkpt lat="42.51569" lon="2.07557">
        <ele>1781</ele>
        <time>2011-05-03T07:57:16Z</time>
      </trkpt>
      <trkpt lat="42.51571" lon="2.07548">
        <ele>1781</ele>
        <time>2011-05-03T07:57:22Z</time>
      </trkpt>
      <trkpt lat="42.51573" lon="2.07539">
        <ele>1781</ele>
        <time>2011-05-03T07:57:28Z</time>
      </trkpt>
      <trkpt lat="42.51576" lon="2.0753">
        <ele>1782</ele>
        <time>2011-05-03T07:57:34Z</time>
      </trkpt>
      <trkpt lat="42.51579" lon="2.07521">
        <ele>1782</ele>
        <time>2011-05-03T07:57:40Z</time>
      </trkpt>
      <trkpt lat="42.51583" lon="2.07514">
        <ele>1782</ele>
        <time>2011-05-03T07:57:45Z</time>
      </trkpt>
      <trkpt lat="42.51586" lon="2.07506">
        <ele>1783</ele>
        <time>2011-05-03T07:57:52Z</time>
      </trkpt>
      <trkpt lat="42.51588" lon="2.07498">
        <ele>1783</ele>
        <time>2011-05-03T07:58:04Z</time>
      </trkpt>
      <trkpt lat="42.51588" lon="2.07488">
        <ele>1784</ele>
        <time>2011-05-03T07:58:10Z</time>
      </trkpt>
      <trkpt lat="42.51588" lon="2.07479">
        <ele>1784</ele>
        <time>2011-05-03T07:58:17Z</time>
      </trkpt>
      <trkpt lat="42.51586" lon="2.07461">
        <ele>1784</ele>
        <time>2011-05-03T07:58:31Z</time>
      </trkpt>
      <trkpt lat="42.51583" lon="2.07434">
        <ele>1786</ele>
        <time>2011-05-03T07:58:50Z</time>
      </trkpt>
      <trkpt lat="42.5158" lon="2.07425">
        <ele>1786</ele>
        <time>2011-05-03T07:58:56Z</time>
      </trkpt>
      <trkpt lat="42.51577" lon="2.07417">
        <ele>1786</ele>
        <time>2011-05-03T07:59:01Z</time>
      </trkpt>
      <trkpt lat="42.51574" lon="2.07408">
        <ele>1787</ele>
        <time>2011-05-03T07:59:07Z</time>
      </trkpt>
      <trkpt lat="42.51572" lon="2.074">
        <ele>1787</ele>
        <time>2011-05-03T07:59:13Z</time>
      </trkpt>
      <trkpt lat="42.5157" lon="2.0739">
        <ele>1787</ele>
        <time>2011-05-03T07:59:20Z</time>
      </trkpt>
      <trkpt lat="42.51566" lon="2.07384">
        <ele>1788</ele>
        <time>2011-05-03T07:59:32Z</time>
      </trkpt>
      <trkpt lat="42.51566" lon="2.07375">
        <ele>1788</ele>
        <time>2011-05-03T08:00:22Z</time>
      </trkpt>
      <trkpt lat="42.51565" lon="2.07366">
        <ele>1788</ele>
        <time>2011-05-03T08:00:29Z</time>
      </trkpt>
      <trkpt lat="42.51564" lon="2.07356">
        <ele>1788</ele>
        <time>2011-05-03T08:00:36Z</time>
      </trkpt>
      <trkpt lat="42.51565" lon="2.07347">
        <ele>1788</ele>
        <time>2011-05-03T08:00:43Z</time>
      </trkpt>
      <trkpt lat="42.51567" lon="2.07337">
        <ele>1788</ele>
        <time>2011-05-03T08:00:50Z</time>
      </trkpt>
      <trkpt lat="42.51565" lon="2.07309">
        <ele>1788</ele>
        <time>2011-05-03T08:01:09Z</time>
      </trkpt>
      <trkpt lat="42.51554" lon="2.07287">
        <ele>1788</ele>
        <time>2011-05-03T08:01:26Z</time>
      </trkpt>
      <trkpt lat="42.51548" lon="2.07283">
        <ele>1788</ele>
        <time>2011-05-03T08:01:32Z</time>
      </trkpt>
      <trkpt lat="42.51542" lon="2.07278">
        <ele>1788</ele>
        <time>2011-05-03T08:01:38Z</time>
      </trkpt>
      <trkpt lat="42.51532" lon="2.07267">
        <ele>1788</ele>
        <time>2011-05-03T08:01:51Z</time>
      </trkpt>
      <trkpt lat="42.51528" lon="2.0726">
        <ele>1788</ele>
        <time>2011-05-03T08:01:59Z</time>
      </trkpt>
      <trkpt lat="42.51524" lon="2.07253">
        <ele>1788</ele>
        <time>2011-05-03T08:02:06Z</time>
      </trkpt>
      <trkpt lat="42.5152" lon="2.07244">
        <ele>1788</ele>
        <time>2011-05-03T08:02:25Z</time>
      </trkpt>
      <trkpt lat="42.51518" lon="2.07228">
        <ele>1789</ele>
        <time>2011-05-03T08:02:41Z</time>
      </trkpt>
      <trkpt lat="42.51521" lon="2.07219">
        <ele>1789</ele>
        <time>2011-05-03T08:02:48Z</time>
      </trkpt>
      <trkpt lat="42.51524" lon="2.07211">
        <ele>1790</ele>
        <time>2011-05-03T08:02:54Z</time>
      </trkpt>
      <trkpt lat="42.51528" lon="2.07202">
        <ele>1790</ele>
        <time>2011-05-03T08:03:00Z</time>
      </trkpt>
      <trkpt lat="42.51532" lon="2.07195">
        <ele>1790</ele>
        <time>2011-05-03T08:03:06Z</time>
      </trkpt>
      <trkpt lat="42.51534" lon="2.07186">
        <ele>1790</ele>
        <time>2011-05-03T08:03:12Z</time>
      </trkpt>
      <trkpt lat="42.51533" lon="2.07177">
        <ele>1791</ele>
        <time>2011-05-03T08:03:20Z</time>
      </trkpt>
      <trkpt lat="42.51533" lon="2.07167">
        <ele>1791</ele>
        <time>2011-05-03T08:03:28Z</time>
      </trkpt>
      <trkpt lat="42.51547" lon="2.0715">
        <ele>1792</ele>
        <time>2011-05-03T08:03:50Z</time>
      </trkpt>
      <trkpt lat="42.51554" lon="2.07147">
        <ele>1792</ele>
        <time>2011-05-03T08:03:56Z</time>
      </trkpt>
      <trkpt lat="42.51561" lon="2.07145">
        <ele>1792</ele>
        <time>2011-05-03T08:04:01Z</time>
      </trkpt>
      <trkpt lat="42.51566" lon="2.0714">
        <ele>1793</ele>
        <time>2011-05-03T08:04:07Z</time>
      </trkpt>
      <trkpt lat="42.51583" lon="2.07123">
        <ele>1793</ele>
        <time>2011-05-03T08:04:27Z</time>
      </trkpt>
      <trkpt lat="42.51588" lon="2.07117">
        <ele>1794</ele>
        <time>2011-05-03T08:04:32Z</time>
      </trkpt>
      <trkpt lat="42.51594" lon="2.07111">
        <ele>1794</ele>
        <time>2011-05-03T08:04:38Z</time>
      </trkpt>
      <trkpt lat="42.51598" lon="2.07105">
        <ele>1794</ele>
        <time>2011-05-03T08:04:44Z</time>
      </trkpt>
      <trkpt lat="42.51603" lon="2.07098">
        <ele>1795</ele>
        <time>2011-05-03T08:04:51Z</time>
      </trkpt>
      <trkpt lat="42.51608" lon="2.07091">
        <ele>1795</ele>
        <time>2011-05-03T08:04:58Z</time>
      </trkpt>
      <trkpt lat="42.51613" lon="2.07085">
        <ele>1795</ele>
        <time>2011-05-03T08:05:04Z</time>
      </trkpt>
      <trkpt lat="42.51619" lon="2.07079">
        <ele>1796</ele>
        <time>2011-05-03T08:05:11Z</time>
      </trkpt>
      <trkpt lat="42.51622" lon="2.07071">
        <ele>1796</ele>
        <time>2011-05-03T08:05:18Z</time>
      </trkpt>
      <trkpt lat="42.51627" lon="2.07064">
        <ele>1797</ele>
        <time>2011-05-03T08:05:27Z</time>
      </trkpt>
      <trkpt lat="42.51639" lon="2.07057">
        <ele>1797</ele>
        <time>2011-05-03T08:06:03Z</time>
      </trkpt>
      <trkpt lat="42.51638" lon="2.07048">
        <ele>1797</ele>
        <time>2011-05-03T08:06:09Z</time>
      </trkpt>
      <trkpt lat="42.51639" lon="2.0703">
        <ele>1798</ele>
        <time>2011-05-03T08:06:24Z</time>
      </trkpt>
      <trkpt lat="42.51642" lon="2.07021">
        <ele>1798</ele>
        <time>2011-05-03T08:06:30Z</time>
      </trkpt>
      <trkpt lat="42.51643" lon="2.07012">
        <ele>1799</ele>
        <time>2011-05-03T08:06:37Z</time>
      </trkpt>
      <trkpt lat="42.51646" lon="2.07004">
        <ele>1799</ele>
        <time>2011-05-03T08:06:45Z</time>
      </trkpt>
      <trkpt lat="42.51652" lon="2.06999">
        <ele>1800</ele>
        <time>2011-05-03T08:06:51Z</time>
      </trkpt>
      <trkpt lat="42.51658" lon="2.06993">
        <ele>1800</ele>
        <time>2011-05-03T08:06:56Z</time>
      </trkpt>
      <trkpt lat="42.51664" lon="2.06987">
        <ele>1800</ele>
        <time>2011-05-03T08:07:01Z</time>
      </trkpt>
      <trkpt lat="42.51669" lon="2.06981">
        <ele>1801</ele>
        <time>2011-05-03T08:07:07Z</time>
      </trkpt>
      <trkpt lat="42.51674" lon="2.06976">
        <ele>1801</ele>
        <time>2011-05-03T08:07:13Z</time>
      </trkpt>
      <trkpt lat="42.51679" lon="2.0697">
        <ele>1802</ele>
        <time>2011-05-03T08:07:20Z</time>
      </trkpt>
      <trkpt lat="42.51683" lon="2.06963">
        <ele>1802</ele>
        <time>2011-05-03T08:07:27Z</time>
      </trkpt>
      <trkpt lat="42.51687" lon="2.06955">
        <ele>1803</ele>
        <time>2011-05-03T08:07:34Z</time>
      </trkpt>
      <trkpt lat="42.51691" lon="2.06948">
        <ele>1803</ele>
        <time>2011-05-03T08:07:41Z</time>
      </trkpt>
      <trkpt lat="42.51695" lon="2.06941">
        <ele>1804</ele>
        <time>2011-05-03T08:07:49Z</time>
      </trkpt>
      <trkpt lat="42.51699" lon="2.06933">
        <ele>1804</ele>
        <time>2011-05-03T08:07:58Z</time>
      </trkpt>
      <trkpt lat="42.51703" lon="2.06927">
        <ele>1805</ele>
        <time>2011-05-03T08:08:04Z</time>
      </trkpt>
      <trkpt lat="42.51708" lon="2.0692">
        <ele>1805</ele>
        <time>2011-05-03T08:08:10Z</time>
      </trkpt>
      <trkpt lat="42.51713" lon="2.06913">
        <ele>1806</ele>
        <time>2011-05-03T08:08:16Z</time>
      </trkpt>
      <trkpt lat="42.51717" lon="2.06907">
        <ele>1806</ele>
        <time>2011-05-03T08:08:27Z</time>
      </trkpt>
      <trkpt lat="42.51713" lon="2.06914">
        <ele>1807</ele>
        <time>2011-05-03T08:09:03Z</time>
      </trkpt>
      <trkpt lat="42.51708" lon="2.06921">
        <ele>1808</ele>
        <time>2011-05-03T08:09:11Z</time>
      </trkpt>
      <trkpt lat="42.51703" lon="2.06927">
        <ele>1808</ele>
        <time>2011-05-03T08:09:18Z</time>
      </trkpt>
      <trkpt lat="42.51698" lon="2.06934">
        <ele>1808</ele>
        <time>2011-05-03T08:09:28Z</time>
      </trkpt>
      <trkpt lat="42.51694" lon="2.06942">
        <ele>1809</ele>
        <time>2011-05-03T08:09:35Z</time>
      </trkpt>
      <trkpt lat="42.5169" lon="2.06948">
        <ele>1809</ele>
        <time>2011-05-03T08:09:41Z</time>
      </trkpt>
      <trkpt lat="42.51685" lon="2.06956">
        <ele>1809</ele>
        <time>2011-05-03T08:09:48Z</time>
      </trkpt>
      <trkpt lat="42.51681" lon="2.06964">
        <ele>1809</ele>
        <time>2011-05-03T08:09:55Z</time>
      </trkpt>
      <trkpt lat="42.51676" lon="2.0697">
        <ele>1809</ele>
        <time>2011-05-03T08:10:01Z</time>
      </trkpt>
      <trkpt lat="42.51671" lon="2.06976">
        <ele>1809</ele>
        <time>2011-05-03T08:10:07Z</time>
      </trkpt>
      <trkpt lat="42.51666" lon="2.06981">
        <ele>1809</ele>
        <time>2011-05-03T08:10:13Z</time>
      </trkpt>
      <trkpt lat="42.51662" lon="2.06987">
        <ele>1809</ele>
        <time>2011-05-03T08:10:23Z</time>
      </trkpt>
      <trkpt lat="42.51667" lon="2.06992">
        <ele>1808</ele>
        <time>2011-05-03T08:11:02Z</time>
      </trkpt>
      <trkpt lat="42.51674" lon="2.06991">
        <ele>1808</ele>
        <time>2011-05-03T08:11:10Z</time>
      </trkpt>
      <trkpt lat="42.51694" lon="2.06987">
        <ele>1807</ele>
        <time>2011-05-03T08:11:43Z</time>
      </trkpt>
      <trkpt lat="42.51709" lon="2.06969">
        <ele>1807</ele>
        <time>2011-05-03T08:12:15Z</time>
      </trkpt>
      <trkpt lat="42.51714" lon="2.06965">
        <ele>1807</ele>
        <time>2011-05-03T08:12:25Z</time>
      </trkpt>
      <trkpt lat="42.51719" lon="2.06959">
        <ele>1807</ele>
        <time>2011-05-03T08:12:36Z</time>
      </trkpt>
      <trkpt lat="42.51725" lon="2.06954">
        <ele>1808</ele>
        <time>2011-05-03T08:12:48Z</time>
      </trkpt>
      <trkpt lat="42.51729" lon="2.06948">
        <ele>1808</ele>
        <time>2011-05-03T08:12:58Z</time>
      </trkpt>
      <trkpt lat="42.51735" lon="2.06944">
        <ele>1809</ele>
        <time>2011-05-03T08:13:13Z</time>
      </trkpt>
      <trkpt lat="42.51741" lon="2.06941">
        <ele>1809</ele>
        <time>2011-05-03T08:13:24Z</time>
      </trkpt>
      <trkpt lat="42.51748" lon="2.06939">
        <ele>1809</ele>
        <time>2011-05-03T08:13:34Z</time>
      </trkpt>
      <trkpt lat="42.51768" lon="2.06937">
        <ele>1809</ele>
        <time>2011-05-03T08:14:09Z</time>
      </trkpt>
      <trkpt lat="42.51775" lon="2.06937">
        <ele>1810</ele>
        <time>2011-05-03T08:14:19Z</time>
      </trkpt>
      <trkpt lat="42.51794" lon="2.06931">
        <ele>1810</ele>
        <time>2011-05-03T08:14:53Z</time>
      </trkpt>
      <trkpt lat="42.518" lon="2.06928">
        <ele>1811</ele>
        <time>2011-05-03T08:15:04Z</time>
      </trkpt>
      <trkpt lat="42.5182" lon="2.06934">
        <ele>1813</ele>
        <time>2011-05-03T08:15:47Z</time>
      </trkpt>
      <trkpt lat="42.51832" lon="2.0694">
        <ele>1815</ele>
        <time>2011-05-03T08:16:01Z</time>
      </trkpt>
      <trkpt lat="42.51838" lon="2.06944">
        <ele>1815</ele>
        <time>2011-05-03T08:16:08Z</time>
      </trkpt>
      <trkpt lat="42.51845" lon="2.06945">
        <ele>1816</ele>
        <time>2011-05-03T08:16:16Z</time>
      </trkpt>
      <trkpt lat="42.51852" lon="2.06944">
        <ele>1817</ele>
        <time>2011-05-03T08:16:23Z</time>
      </trkpt>
      <trkpt lat="42.51858" lon="2.06942">
        <ele>1818</ele>
        <time>2011-05-03T08:16:30Z</time>
      </trkpt>
      <trkpt lat="42.51864" lon="2.0694">
        <ele>1818</ele>
        <time>2011-05-03T08:16:39Z</time>
      </trkpt>
      <trkpt lat="42.51871" lon="2.06937">
        <ele>1819</ele>
        <time>2011-05-03T08:16:48Z</time>
      </trkpt>
      <trkpt lat="42.51877" lon="2.06936">
        <ele>1820</ele>
        <time>2011-05-03T08:16:57Z</time>
      </trkpt>
      <trkpt lat="42.51897" lon="2.06939">
        <ele>1823</ele>
        <time>2011-05-03T08:17:36Z</time>
      </trkpt>
      <trkpt lat="42.51903" lon="2.06941">
        <ele>1823</ele>
        <time>2011-05-03T08:17:45Z</time>
      </trkpt>
      <trkpt lat="42.51909" lon="2.06945">
        <ele>1825</ele>
        <time>2011-05-03T08:18:22Z</time>
      </trkpt>
      <trkpt lat="42.51919" lon="2.06958">
        <ele>1828</ele>
        <time>2011-05-03T08:18:41Z</time>
      </trkpt>
      <trkpt lat="42.51929" lon="2.06972">
        <ele>1831</ele>
        <time>2011-05-03T08:19:02Z</time>
      </trkpt>
      <trkpt lat="42.51933" lon="2.06979">
        <ele>1831</ele>
        <time>2011-05-03T08:19:10Z</time>
      </trkpt>
      <trkpt lat="42.51943" lon="2.06991">
        <ele>1832</ele>
        <time>2011-05-03T08:19:28Z</time>
      </trkpt>
      <trkpt lat="42.5196" lon="2.07004">
        <ele>1834</ele>
        <time>2011-05-03T08:20:04Z</time>
      </trkpt>
      <trkpt lat="42.51967" lon="2.07007">
        <ele>1835</ele>
        <time>2011-05-03T08:20:10Z</time>
      </trkpt>
      <trkpt lat="42.51974" lon="2.07009">
        <ele>1836</ele>
        <time>2011-05-03T08:20:17Z</time>
      </trkpt>
      <trkpt lat="42.5198" lon="2.0701">
        <ele>1836</ele>
        <time>2011-05-03T08:20:24Z</time>
      </trkpt>
      <trkpt lat="42.51986" lon="2.07015">
        <ele>1837</ele>
        <time>2011-05-03T08:20:31Z</time>
      </trkpt>
      <trkpt lat="42.51991" lon="2.07021">
        <ele>1838</ele>
        <time>2011-05-03T08:20:38Z</time>
      </trkpt>
      <trkpt lat="42.51994" lon="2.07029">
        <ele>1838</ele>
        <time>2011-05-03T08:20:45Z</time>
      </trkpt>
      <trkpt lat="42.51997" lon="2.07038">
        <ele>1839</ele>
        <time>2011-05-03T08:20:51Z</time>
      </trkpt>
      <trkpt lat="42.51999" lon="2.07046">
        <ele>1840</ele>
        <time>2011-05-03T08:20:58Z</time>
      </trkpt>
      <trkpt lat="42.52002" lon="2.07063">
        <ele>1841</ele>
        <time>2011-05-03T08:21:19Z</time>
      </trkpt>
      <trkpt lat="42.52009" lon="2.07078">
        <ele>1842</ele>
        <time>2011-05-03T08:21:32Z</time>
      </trkpt>
      <trkpt lat="42.52016" lon="2.07081">
        <ele>1843</ele>
        <time>2011-05-03T08:22:41Z</time>
      </trkpt>
      <trkpt lat="42.52022" lon="2.0708">
        <ele>1844</ele>
        <time>2011-05-03T08:22:47Z</time>
      </trkpt>
      <trkpt lat="42.52028" lon="2.07079">
        <ele>1844</ele>
        <time>2011-05-03T08:22:53Z</time>
      </trkpt>
      <trkpt lat="42.52035" lon="2.07077">
        <ele>1844</ele>
        <time>2011-05-03T08:22:59Z</time>
      </trkpt>
      <trkpt lat="42.52041" lon="2.07076">
        <ele>1845</ele>
        <time>2011-05-03T08:23:05Z</time>
      </trkpt>
      <trkpt lat="42.52048" lon="2.07074">
        <ele>1845</ele>
        <time>2011-05-03T08:23:11Z</time>
      </trkpt>
      <trkpt lat="42.52054" lon="2.07071">
        <ele>1846</ele>
        <time>2011-05-03T08:23:17Z</time>
      </trkpt>
      <trkpt lat="42.52061" lon="2.07068">
        <ele>1847</ele>
        <time>2011-05-03T08:23:24Z</time>
      </trkpt>
      <trkpt lat="42.52067" lon="2.07064">
        <ele>1847</ele>
        <time>2011-05-03T08:23:31Z</time>
      </trkpt>
      <trkpt lat="42.52073" lon="2.0706">
        <ele>1848</ele>
        <time>2011-05-03T08:23:39Z</time>
      </trkpt>
      <trkpt lat="42.52079" lon="2.07056">
        <ele>1849</ele>
        <time>2011-05-03T08:23:47Z</time>
      </trkpt>
      <trkpt lat="42.52086" lon="2.07055">
        <ele>1849</ele>
        <time>2011-05-03T08:23:55Z</time>
      </trkpt>
      <trkpt lat="42.52093" lon="2.07054">
        <ele>1850</ele>
        <time>2011-05-03T08:24:01Z</time>
      </trkpt>
      <trkpt lat="42.52099" lon="2.07053">
        <ele>1851</ele>
        <time>2011-05-03T08:24:08Z</time>
      </trkpt>
      <trkpt lat="42.52106" lon="2.07049">
        <ele>1851</ele>
        <time>2011-05-03T08:24:16Z</time>
      </trkpt>
      <trkpt lat="42.52111" lon="2.07044">
        <ele>1852</ele>
        <time>2011-05-03T08:24:24Z</time>
      </trkpt>
      <trkpt lat="42.52115" lon="2.07036">
        <ele>1853</ele>
        <time>2011-05-03T08:24:33Z</time>
      </trkpt>
      <trkpt lat="42.52118" lon="2.07028">
        <ele>1854</ele>
        <time>2011-05-03T08:24:41Z</time>
      </trkpt>
      <trkpt lat="42.52126" lon="2.07015">
        <ele>1855</ele>
        <time>2011-05-03T08:24:55Z</time>
      </trkpt>
      <trkpt lat="42.5213" lon="2.07009">
        <ele>1856</ele>
        <time>2011-05-03T08:25:01Z</time>
      </trkpt>
      <trkpt lat="42.52142" lon="2.06987">
        <ele>1857</ele>
        <time>2011-05-03T08:25:20Z</time>
      </trkpt>
      <trkpt lat="42.52146" lon="2.06979">
        <ele>1858</ele>
        <time>2011-05-03T08:25:26Z</time>
      </trkpt>
      <trkpt lat="42.5215" lon="2.06972">
        <ele>1858</ele>
        <time>2011-05-03T08:25:32Z</time>
      </trkpt>
      <trkpt lat="42.52155" lon="2.06965">
        <ele>1859</ele>
        <time>2011-05-03T08:25:38Z</time>
      </trkpt>
      <trkpt lat="42.52172" lon="2.0695">
        <ele>1860</ele>
        <time>2011-05-03T08:25:56Z</time>
      </trkpt>
      <trkpt lat="42.52178" lon="2.06945">
        <ele>1860</ele>
        <time>2011-05-03T08:26:02Z</time>
      </trkpt>
      <trkpt lat="42.52184" lon="2.06939">
        <ele>1861</ele>
        <time>2011-05-03T08:26:08Z</time>
      </trkpt>
      <trkpt lat="42.52201" lon="2.0691">
        <ele>1862</ele>
        <time>2011-05-03T08:26:35Z</time>
      </trkpt>
      <trkpt lat="42.52204" lon="2.06902">
        <ele>1863</ele>
        <time>2011-05-03T08:26:41Z</time>
      </trkpt>
      <trkpt lat="42.52207" lon="2.06893">
        <ele>1863</ele>
        <time>2011-05-03T08:26:48Z</time>
      </trkpt>
      <trkpt lat="42.52212" lon="2.06888">
        <ele>1863</ele>
        <time>2011-05-03T08:26:54Z</time>
      </trkpt>
      <trkpt lat="42.52231" lon="2.06874">
        <ele>1865</ele>
        <time>2011-05-03T08:27:20Z</time>
      </trkpt>
      <trkpt lat="42.52237" lon="2.06869">
        <ele>1866</ele>
        <time>2011-05-03T08:27:27Z</time>
      </trkpt>
      <trkpt lat="42.52243" lon="2.06864">
        <ele>1866</ele>
        <time>2011-05-03T08:27:33Z</time>
      </trkpt>
      <trkpt lat="42.52249" lon="2.06858">
        <ele>1867</ele>
        <time>2011-05-03T08:27:39Z</time>
      </trkpt>
      <trkpt lat="42.52255" lon="2.06854">
        <ele>1867</ele>
        <time>2011-05-03T08:27:45Z</time>
      </trkpt>
      <trkpt lat="42.52261" lon="2.0685">
        <ele>1868</ele>
        <time>2011-05-03T08:27:51Z</time>
      </trkpt>
      <trkpt lat="42.52266" lon="2.06845">
        <ele>1869</ele>
        <time>2011-05-03T08:27:57Z</time>
      </trkpt>
      <trkpt lat="42.52272" lon="2.0684">
        <ele>1869</ele>
        <time>2011-05-03T08:28:03Z</time>
      </trkpt>
      <trkpt lat="42.52278" lon="2.06836">
        <ele>1870</ele>
        <time>2011-05-03T08:28:09Z</time>
      </trkpt>
      <trkpt lat="42.52283" lon="2.06832">
        <ele>1870</ele>
        <time>2011-05-03T08:28:15Z</time>
      </trkpt>
      <trkpt lat="42.52289" lon="2.06828">
        <ele>1871</ele>
        <time>2011-05-03T08:28:21Z</time>
      </trkpt>
      <trkpt lat="42.52296" lon="2.06823">
        <ele>1871</ele>
        <time>2011-05-03T08:28:28Z</time>
      </trkpt>
      <trkpt lat="42.52301" lon="2.06818">
        <ele>1872</ele>
        <time>2011-05-03T08:28:35Z</time>
      </trkpt>
      <trkpt lat="42.52313" lon="2.06809">
        <ele>1873</ele>
        <time>2011-05-03T08:29:15Z</time>
      </trkpt>
      <trkpt lat="42.52319" lon="2.06807">
        <ele>1873</ele>
        <time>2011-05-03T08:29:29Z</time>
      </trkpt>
      <trkpt lat="42.52323" lon="2.068">
        <ele>1873</ele>
        <time>2011-05-03T08:29:49Z</time>
      </trkpt>
      <trkpt lat="42.52328" lon="2.06794">
        <ele>1873</ele>
        <time>2011-05-03T08:29:56Z</time>
      </trkpt>
      <trkpt lat="42.52335" lon="2.06789">
        <ele>1873</ele>
        <time>2011-05-03T08:30:02Z</time>
      </trkpt>
      <trkpt lat="42.5234" lon="2.06784">
        <ele>1873</ele>
        <time>2011-05-03T08:30:08Z</time>
      </trkpt>
      <trkpt lat="42.52346" lon="2.06779">
        <ele>1874</ele>
        <time>2011-05-03T08:30:15Z</time>
      </trkpt>
      <trkpt lat="42.52352" lon="2.06772">
        <ele>1873</ele>
        <time>2011-05-03T08:30:21Z</time>
      </trkpt>
      <trkpt lat="42.52356" lon="2.06766">
        <ele>1873</ele>
        <time>2011-05-03T08:30:27Z</time>
      </trkpt>
      <trkpt lat="42.52361" lon="2.06758">
        <ele>1873</ele>
        <time>2011-05-03T08:30:35Z</time>
      </trkpt>
      <trkpt lat="42.52366" lon="2.06751">
        <ele>1873</ele>
        <time>2011-05-03T08:30:42Z</time>
      </trkpt>
      <trkpt lat="42.52377" lon="2.06739">
        <ele>1873</ele>
        <time>2011-05-03T08:30:56Z</time>
      </trkpt>
      <trkpt lat="42.52386" lon="2.06727">
        <ele>1873</ele>
        <time>2011-05-03T08:31:16Z</time>
      </trkpt>
      <trkpt lat="42.52392" lon="2.06721">
        <ele>1873</ele>
        <time>2011-05-03T08:31:23Z</time>
      </trkpt>
      <trkpt lat="42.52398" lon="2.06716">
        <ele>1873</ele>
        <time>2011-05-03T08:31:29Z</time>
      </trkpt>
      <trkpt lat="42.52403" lon="2.0671">
        <ele>1874</ele>
        <time>2011-05-03T08:31:35Z</time>
      </trkpt>
      <trkpt lat="42.52408" lon="2.06704">
        <ele>1874</ele>
        <time>2011-05-03T08:31:42Z</time>
      </trkpt>
      <trkpt lat="42.52413" lon="2.06699">
        <ele>1874</ele>
        <time>2011-05-03T08:31:48Z</time>
      </trkpt>
      <trkpt lat="42.52419" lon="2.06694">
        <ele>1874</ele>
        <time>2011-05-03T08:31:54Z</time>
      </trkpt>
      <trkpt lat="42.52424" lon="2.06688">
        <ele>1875</ele>
        <time>2011-05-03T08:32:00Z</time>
      </trkpt>
      <trkpt lat="42.52439" lon="2.06669">
        <ele>1875</ele>
        <time>2011-05-03T08:32:21Z</time>
      </trkpt>
      <trkpt lat="42.52456" lon="2.06652">
        <ele>1876</ele>
        <time>2011-05-03T08:32:40Z</time>
      </trkpt>
      <trkpt lat="42.52461" lon="2.06646">
        <ele>1876</ele>
        <time>2011-05-03T08:32:45Z</time>
      </trkpt>
      <trkpt lat="42.52466" lon="2.0664">
        <ele>1876</ele>
        <time>2011-05-03T08:32:50Z</time>
      </trkpt>
      <trkpt lat="42.52472" lon="2.06635">
        <ele>1876</ele>
        <time>2011-05-03T08:32:55Z</time>
      </trkpt>
      <trkpt lat="42.52476" lon="2.06628">
        <ele>1876</ele>
        <time>2011-05-03T08:33:00Z</time>
      </trkpt>
      <trkpt lat="42.5248" lon="2.06621">
        <ele>1876</ele>
        <time>2011-05-03T08:33:05Z</time>
      </trkpt>
      <trkpt lat="42.52484" lon="2.06614">
        <ele>1876</ele>
        <time>2011-05-03T08:33:13Z</time>
      </trkpt>
      <trkpt lat="42.52497" lon="2.06606">
        <ele>1875</ele>
        <time>2011-05-03T08:33:42Z</time>
      </trkpt>
      <trkpt lat="42.52501" lon="2.066">
        <ele>1875</ele>
        <time>2011-05-03T08:33:49Z</time>
      </trkpt>
      <trkpt lat="42.52515" lon="2.0658">
        <ele>1875</ele>
        <time>2011-05-03T08:34:06Z</time>
      </trkpt>
      <trkpt lat="42.52518" lon="2.06572">
        <ele>1875</ele>
        <time>2011-05-03T08:34:12Z</time>
      </trkpt>
      <trkpt lat="42.52522" lon="2.06564">
        <ele>1875</ele>
        <time>2011-05-03T08:34:18Z</time>
      </trkpt>
      <trkpt lat="42.52525" lon="2.06556">
        <ele>1875</ele>
        <time>2011-05-03T08:34:24Z</time>
      </trkpt>
      <trkpt lat="42.52529" lon="2.06549">
        <ele>1875</ele>
        <time>2011-05-03T08:34:29Z</time>
      </trkpt>
      <trkpt lat="42.52534" lon="2.06543">
        <ele>1875</ele>
        <time>2011-05-03T08:34:34Z</time>
      </trkpt>
      <trkpt lat="42.52539" lon="2.06536">
        <ele>1874</ele>
        <time>2011-05-03T08:34:40Z</time>
      </trkpt>
      <trkpt lat="42.52544" lon="2.0653">
        <ele>1874</ele>
        <time>2011-05-03T08:34:46Z</time>
      </trkpt>
      <trkpt lat="42.52548" lon="2.06523">
        <ele>1874</ele>
        <time>2011-05-03T08:34:52Z</time>
      </trkpt>
      <trkpt lat="42.52552" lon="2.06516">
        <ele>1874</ele>
        <time>2011-05-03T08:34:58Z</time>
      </trkpt>
      <trkpt lat="42.52563" lon="2.06491">
        <ele>1873</ele>
        <time>2011-05-03T08:35:16Z</time>
      </trkpt>
      <trkpt lat="42.52567" lon="2.06483">
        <ele>1873</ele>
        <time>2011-05-03T08:35:20Z</time>
      </trkpt>
      <trkpt lat="42.52571" lon="2.06475">
        <ele>1873</ele>
        <time>2011-05-03T08:35:25Z</time>
      </trkpt>
      <trkpt lat="42.52574" lon="2.06469">
        <ele>1873</ele>
        <time>2011-05-03T08:35:30Z</time>
      </trkpt>
      <trkpt lat="42.52578" lon="2.06461">
        <ele>1872</ele>
        <time>2011-05-03T08:35:35Z</time>
      </trkpt>
      <trkpt lat="42.52584" lon="2.06445">
        <ele>1872</ele>
        <time>2011-05-03T08:35:47Z</time>
      </trkpt>
      <trkpt lat="42.52589" lon="2.06429">
        <ele>1872</ele>
        <time>2011-05-03T08:35:59Z</time>
      </trkpt>
      <trkpt lat="42.52592" lon="2.06421">
        <ele>1872</ele>
        <time>2011-05-03T08:36:05Z</time>
      </trkpt>
      <trkpt lat="42.52602" lon="2.06399">
        <ele>1872</ele>
        <time>2011-05-03T08:36:23Z</time>
      </trkpt>
      <trkpt lat="42.52607" lon="2.06393">
        <ele>1872</ele>
        <time>2011-05-03T08:36:29Z</time>
      </trkpt>
      <trkpt lat="42.52623" lon="2.06373">
        <ele>1872</ele>
        <time>2011-05-03T08:36:46Z</time>
      </trkpt>
      <trkpt lat="42.52628" lon="2.06366">
        <ele>1872</ele>
        <time>2011-05-03T08:36:52Z</time>
      </trkpt>
      <trkpt lat="42.52634" lon="2.0636">
        <ele>1872</ele>
        <time>2011-05-03T08:36:58Z</time>
      </trkpt>
      <trkpt lat="42.52639" lon="2.06355">
        <ele>1871</ele>
        <time>2011-05-03T08:37:04Z</time>
      </trkpt>
      <trkpt lat="42.52644" lon="2.06349">
        <ele>1871</ele>
        <time>2011-05-03T08:37:09Z</time>
      </trkpt>
      <trkpt lat="42.5265" lon="2.06343">
        <ele>1871</ele>
        <time>2011-05-03T08:37:15Z</time>
      </trkpt>
      <trkpt lat="42.52669" lon="2.06332">
        <ele>1872</ele>
        <time>2011-05-03T08:37:34Z</time>
      </trkpt>
      <trkpt lat="42.52676" lon="2.06329">
        <ele>1872</ele>
        <time>2011-05-03T08:37:40Z</time>
      </trkpt>
      <trkpt lat="42.52695" lon="2.06318">
        <ele>1872</ele>
        <time>2011-05-03T08:37:57Z</time>
      </trkpt>
      <trkpt lat="42.52707" lon="2.06309">
        <ele>1872</ele>
        <time>2011-05-03T08:38:08Z</time>
      </trkpt>
      <trkpt lat="42.52713" lon="2.06304">
        <ele>1872</ele>
        <time>2011-05-03T08:38:13Z</time>
      </trkpt>
      <trkpt lat="42.52724" lon="2.06295">
        <ele>1872</ele>
        <time>2011-05-03T08:38:25Z</time>
      </trkpt>
      <trkpt lat="42.5273" lon="2.06289">
        <ele>1872</ele>
        <time>2011-05-03T08:38:31Z</time>
      </trkpt>
      <trkpt lat="42.52736" lon="2.06284">
        <ele>1872</ele>
        <time>2011-05-03T08:38:36Z</time>
      </trkpt>
      <trkpt lat="42.52742" lon="2.06281">
        <ele>1872</ele>
        <time>2011-05-03T08:38:41Z</time>
      </trkpt>
      <trkpt lat="42.52748" lon="2.06276">
        <ele>1872</ele>
        <time>2011-05-03T08:38:46Z</time>
      </trkpt>
      <trkpt lat="42.5276" lon="2.06265">
        <ele>1872</ele>
        <time>2011-05-03T08:38:58Z</time>
      </trkpt>
      <trkpt lat="42.52766" lon="2.06259">
        <ele>1872</ele>
        <time>2011-05-03T08:39:04Z</time>
      </trkpt>
      <trkpt lat="42.52771" lon="2.06253">
        <ele>1872</ele>
        <time>2011-05-03T08:39:10Z</time>
      </trkpt>
      <trkpt lat="42.52788" lon="2.06239">
        <ele>1872</ele>
        <time>2011-05-03T08:39:26Z</time>
      </trkpt>
      <trkpt lat="42.52793" lon="2.06232">
        <ele>1872</ele>
        <time>2011-05-03T08:39:32Z</time>
      </trkpt>
      <trkpt lat="42.52799" lon="2.06227">
        <ele>1872</ele>
        <time>2011-05-03T08:39:38Z</time>
      </trkpt>
      <trkpt lat="42.52805" lon="2.06222">
        <ele>1872</ele>
        <time>2011-05-03T08:39:44Z</time>
      </trkpt>
      <trkpt lat="42.52811" lon="2.06217">
        <ele>1872</ele>
        <time>2011-05-03T08:39:50Z</time>
      </trkpt>
      <trkpt lat="42.52817" lon="2.06211">
        <ele>1872</ele>
        <time>2011-05-03T08:39:55Z</time>
      </trkpt>
      <trkpt lat="42.52822" lon="2.06204">
        <ele>1872</ele>
        <time>2011-05-03T08:40:01Z</time>
      </trkpt>
      <trkpt lat="42.52827" lon="2.06197">
        <ele>1872</ele>
        <time>2011-05-03T08:40:07Z</time>
      </trkpt>
      <trkpt lat="42.52846" lon="2.06181">
        <ele>1872</ele>
        <time>2011-05-03T08:40:25Z</time>
      </trkpt>
      <trkpt lat="42.52851" lon="2.06177">
        <ele>1872</ele>
        <time>2011-05-03T08:40:30Z</time>
      </trkpt>
      <trkpt lat="42.52858" lon="2.06174">
        <ele>1871</ele>
        <time>2011-05-03T08:40:35Z</time>
      </trkpt>
      <trkpt lat="42.52865" lon="2.06173">
        <ele>1869</ele>
        <time>2011-05-03T08:40:43Z</time>
      </trkpt>
      <trkpt lat="42.52877" lon="2.0618">
        <ele>1864</ele>
        <time>2011-05-03T08:41:56Z</time>
      </trkpt>
      <trkpt lat="42.52889" lon="2.06184">
        <ele>1862</ele>
        <time>2011-05-03T08:42:14Z</time>
      </trkpt>
      <trkpt lat="42.52902" lon="2.06187">
        <ele>1861</ele>
        <time>2011-05-03T08:42:32Z</time>
      </trkpt>
      <trkpt lat="42.52909" lon="2.06187">
        <ele>1860</ele>
        <time>2011-05-03T08:42:42Z</time>
      </trkpt>
      <trkpt lat="42.52927" lon="2.06174">
        <ele>1859</ele>
        <time>2011-05-03T08:43:03Z</time>
      </trkpt>
      <trkpt lat="42.52932" lon="2.06169">
        <ele>1859</ele>
        <time>2011-05-03T08:43:10Z</time>
      </trkpt>
      <trkpt lat="42.52937" lon="2.06162">
        <ele>1858</ele>
        <time>2011-05-03T08:43:16Z</time>
      </trkpt>
      <trkpt lat="42.52947" lon="2.06151">
        <ele>1857</ele>
        <time>2011-05-03T08:43:28Z</time>
      </trkpt>
      <trkpt lat="42.52957" lon="2.06137">
        <ele>1856</ele>
        <time>2011-05-03T08:43:42Z</time>
      </trkpt>
      <trkpt lat="42.52961" lon="2.06129">
        <ele>1856</ele>
        <time>2011-05-03T08:43:49Z</time>
      </trkpt>
      <trkpt lat="42.52965" lon="2.06121">
        <ele>1856</ele>
        <time>2011-05-03T08:43:56Z</time>
      </trkpt>
      <trkpt lat="42.52969" lon="2.06105">
        <ele>1855</ele>
        <time>2011-05-03T08:44:08Z</time>
      </trkpt>
      <trkpt lat="42.52978" lon="2.06079">
        <ele>1855</ele>
        <time>2011-05-03T08:44:26Z</time>
      </trkpt>
      <trkpt lat="42.52982" lon="2.06072">
        <ele>1854</ele>
        <time>2011-05-03T08:44:31Z</time>
      </trkpt>
      <trkpt lat="42.52987" lon="2.06065">
        <ele>1854</ele>
        <time>2011-05-03T08:44:36Z</time>
      </trkpt>
      <trkpt lat="42.53001" lon="2.06044">
        <ele>1853</ele>
        <time>2011-05-03T08:44:55Z</time>
      </trkpt>
      <trkpt lat="42.53006" lon="2.06036">
        <ele>1853</ele>
        <time>2011-05-03T08:45:02Z</time>
      </trkpt>
      <trkpt lat="42.53016" lon="2.06013">
        <ele>1853</ele>
        <time>2011-05-03T08:45:22Z</time>
      </trkpt>
      <trkpt lat="42.53019" lon="2.06005">
        <ele>1853</ele>
        <time>2011-05-03T08:45:27Z</time>
      </trkpt>
      <trkpt lat="42.53021" lon="2.05995">
        <ele>1853</ele>
        <time>2011-05-03T08:45:33Z</time>
      </trkpt>
      <trkpt lat="42.53023" lon="2.05987">
        <ele>1853</ele>
        <time>2011-05-03T08:45:39Z</time>
      </trkpt>
      <trkpt lat="42.53039" lon="2.05971">
        <ele>1852</ele>
        <time>2011-05-03T08:45:57Z</time>
      </trkpt>
      <trkpt lat="42.53045" lon="2.05968">
        <ele>1852</ele>
        <time>2011-05-03T08:46:02Z</time>
      </trkpt>
      <trkpt lat="42.53051" lon="2.05966">
        <ele>1851</ele>
        <time>2011-05-03T08:46:07Z</time>
      </trkpt>
      <trkpt lat="42.53058" lon="2.05963">
        <ele>1851</ele>
        <time>2011-05-03T08:46:13Z</time>
      </trkpt>
      <trkpt lat="42.53062" lon="2.05957">
        <ele>1851</ele>
        <time>2011-05-03T08:46:21Z</time>
      </trkpt>
      <trkpt lat="42.53066" lon="2.05949">
        <ele>1851</ele>
        <time>2011-05-03T08:46:29Z</time>
      </trkpt>
      <trkpt lat="42.53071" lon="2.05932">
        <ele>1850</ele>
        <time>2011-05-03T08:46:44Z</time>
      </trkpt>
      <trkpt lat="42.53075" lon="2.05925">
        <ele>1850</ele>
        <time>2011-05-03T08:46:54Z</time>
      </trkpt>
      <trkpt lat="42.53087" lon="2.05918">
        <ele>1850</ele>
        <time>2011-05-03T08:47:35Z</time>
      </trkpt>
      <trkpt lat="42.53102" lon="2.05903">
        <ele>1851</ele>
        <time>2011-05-03T08:47:54Z</time>
      </trkpt>
      <trkpt lat="42.53109" lon="2.05901">
        <ele>1851</ele>
        <time>2011-05-03T08:48:00Z</time>
      </trkpt>
      <trkpt lat="42.53116" lon="2.059">
        <ele>1852</ele>
        <time>2011-05-03T08:48:07Z</time>
      </trkpt>
      <trkpt lat="42.53123" lon="2.05897">
        <ele>1852</ele>
        <time>2011-05-03T08:48:13Z</time>
      </trkpt>
      <trkpt lat="42.5313" lon="2.05896">
        <ele>1852</ele>
        <time>2011-05-03T08:48:18Z</time>
      </trkpt>
      <trkpt lat="42.53137" lon="2.05894">
        <ele>1852</ele>
        <time>2011-05-03T08:48:24Z</time>
      </trkpt>
      <trkpt lat="42.53144" lon="2.05892">
        <ele>1852</ele>
        <time>2011-05-03T08:48:30Z</time>
      </trkpt>
      <trkpt lat="42.53151" lon="2.0589">
        <ele>1852</ele>
        <time>2011-05-03T08:48:36Z</time>
      </trkpt>
      <trkpt lat="42.53158" lon="2.05888">
        <ele>1852</ele>
        <time>2011-05-03T08:48:42Z</time>
      </trkpt>
      <trkpt lat="42.53165" lon="2.05886">
        <ele>1852</ele>
        <time>2011-05-03T08:48:48Z</time>
      </trkpt>
      <trkpt lat="42.53172" lon="2.05885">
        <ele>1852</ele>
        <time>2011-05-03T08:48:54Z</time>
      </trkpt>
      <trkpt lat="42.53179" lon="2.05883">
        <ele>1852</ele>
        <time>2011-05-03T08:49:00Z</time>
      </trkpt>
      <trkpt lat="42.53186" lon="2.0588">
        <ele>1852</ele>
        <time>2011-05-03T08:49:06Z</time>
      </trkpt>
      <trkpt lat="42.53192" lon="2.05876">
        <ele>1852</ele>
        <time>2011-05-03T08:49:13Z</time>
      </trkpt>
      <trkpt lat="42.53199" lon="2.05874">
        <ele>1853</ele>
        <time>2011-05-03T08:49:20Z</time>
      </trkpt>
      <trkpt lat="42.53205" lon="2.05874">
        <ele>1853</ele>
        <time>2011-05-03T08:49:26Z</time>
      </trkpt>
      <trkpt lat="42.53219" lon="2.0587">
        <ele>1853</ele>
        <time>2011-05-03T08:49:38Z</time>
      </trkpt>
      <trkpt lat="42.53225" lon="2.05867">
        <ele>1853</ele>
        <time>2011-05-03T08:49:44Z</time>
      </trkpt>
      <trkpt lat="42.53232" lon="2.05863">
        <ele>1853</ele>
        <time>2011-05-03T08:49:50Z</time>
      </trkpt>
      <trkpt lat="42.53238" lon="2.0586">
        <ele>1853</ele>
        <time>2011-05-03T08:49:55Z</time>
      </trkpt>
      <trkpt lat="42.53244" lon="2.05857">
        <ele>1853</ele>
        <time>2011-05-03T08:50:01Z</time>
      </trkpt>
      <trkpt lat="42.53251" lon="2.05852">
        <ele>1852</ele>
        <time>2011-05-03T08:50:08Z</time>
      </trkpt>
      <trkpt lat="42.53256" lon="2.05848">
        <ele>1852</ele>
        <time>2011-05-03T08:50:15Z</time>
      </trkpt>
      <trkpt lat="42.53268" lon="2.05836">
        <ele>1852</ele>
        <time>2011-05-03T08:50:29Z</time>
      </trkpt>
      <trkpt lat="42.53274" lon="2.05831">
        <ele>1852</ele>
        <time>2011-05-03T08:50:36Z</time>
      </trkpt>
      <trkpt lat="42.53292" lon="2.05816">
        <ele>1853</ele>
        <time>2011-05-03T08:50:55Z</time>
      </trkpt>
      <trkpt lat="42.53297" lon="2.0581">
        <ele>1853</ele>
        <time>2011-05-03T08:51:01Z</time>
      </trkpt>
      <trkpt lat="42.53303" lon="2.05803">
        <ele>1853</ele>
        <time>2011-05-03T08:51:07Z</time>
      </trkpt>
      <trkpt lat="42.53308" lon="2.05796">
        <ele>1853</ele>
        <time>2011-05-03T08:51:13Z</time>
      </trkpt>
      <trkpt lat="42.53314" lon="2.05791">
        <ele>1853</ele>
        <time>2011-05-03T08:51:20Z</time>
      </trkpt>
      <trkpt lat="42.53318" lon="2.05784">
        <ele>1853</ele>
        <time>2011-05-03T08:51:30Z</time>
      </trkpt>
      <trkpt lat="42.53322" lon="2.05777">
        <ele>1852</ele>
        <time>2011-05-03T08:51:37Z</time>
      </trkpt>
      <trkpt lat="42.53328" lon="2.05771">
        <ele>1852</ele>
        <time>2011-05-03T08:51:42Z</time>
      </trkpt>
      <trkpt lat="42.53336" lon="2.05768">
        <ele>1852</ele>
        <time>2011-05-03T08:51:45Z</time>
      </trkpt>
      <trkpt lat="42.5335" lon="2.05764">
        <ele>1852</ele>
        <time>2011-05-03T08:51:51Z</time>
      </trkpt>
      <trkpt lat="42.53357" lon="2.05762">
        <ele>1851</ele>
        <time>2011-05-03T08:51:55Z</time>
      </trkpt>
      <trkpt lat="42.53364" lon="2.0576">
        <ele>1851</ele>
        <time>2011-05-03T08:52:00Z</time>
      </trkpt>
      <trkpt lat="42.53371" lon="2.05759">
        <ele>1850</ele>
        <time>2011-05-03T08:52:05Z</time>
      </trkpt>
      <trkpt lat="42.5339" lon="2.05755">
        <ele>1848</ele>
        <time>2011-05-03T08:52:23Z</time>
      </trkpt>
      <trkpt lat="42.53396" lon="2.05752">
        <ele>1847</ele>
        <time>2011-05-03T08:52:30Z</time>
      </trkpt>
      <trkpt lat="42.53402" lon="2.05748">
        <ele>1847</ele>
        <time>2011-05-03T08:52:37Z</time>
      </trkpt>
      <trkpt lat="42.53419" lon="2.05735">
        <ele>1847</ele>
        <time>2011-05-03T08:53:00Z</time>
      </trkpt>
      <trkpt lat="42.53432" lon="2.05716">
        <ele>1848</ele>
        <time>2011-05-03T08:53:24Z</time>
      </trkpt>
      <trkpt lat="42.53439" lon="2.05712">
        <ele>1848</ele>
        <time>2011-05-03T08:53:30Z</time>
      </trkpt>
      <trkpt lat="42.53446" lon="2.05709">
        <ele>1848</ele>
        <time>2011-05-03T08:53:36Z</time>
      </trkpt>
      <trkpt lat="42.53452" lon="2.05705">
        <ele>1848</ele>
        <time>2011-05-03T08:53:42Z</time>
      </trkpt>
      <trkpt lat="42.53459" lon="2.05701">
        <ele>1848</ele>
        <time>2011-05-03T08:53:48Z</time>
      </trkpt>
      <trkpt lat="42.53479" lon="2.05691">
        <ele>1848</ele>
        <time>2011-05-03T08:54:09Z</time>
      </trkpt>
      <trkpt lat="42.53488" lon="2.05677">
        <ele>1848</ele>
        <time>2011-05-03T08:54:23Z</time>
      </trkpt>
      <trkpt lat="42.53492" lon="2.0567">
        <ele>1847</ele>
        <time>2011-05-03T08:54:43Z</time>
      </trkpt>
      <trkpt lat="42.53492" lon="2.05662">
        <ele>1847</ele>
        <time>2011-05-03T08:54:49Z</time>
      </trkpt>
      <trkpt lat="42.53492" lon="2.05653">
        <ele>1846</ele>
        <time>2011-05-03T08:54:56Z</time>
      </trkpt>
      <trkpt lat="42.5349" lon="2.05643">
        <ele>1845</ele>
        <time>2011-05-03T08:55:03Z</time>
      </trkpt>
      <trkpt lat="42.53488" lon="2.05635">
        <ele>1845</ele>
        <time>2011-05-03T08:55:09Z</time>
      </trkpt>
      <trkpt lat="42.53486" lon="2.05626">
        <ele>1844</ele>
        <time>2011-05-03T08:55:16Z</time>
      </trkpt>
      <trkpt lat="42.53488" lon="2.05617">
        <ele>1844</ele>
        <time>2011-05-03T08:55:22Z</time>
      </trkpt>
      <trkpt lat="42.53492" lon="2.056">
        <ele>1843</ele>
        <time>2011-05-03T08:55:35Z</time>
      </trkpt>
      <trkpt lat="42.535" lon="2.05585">
        <ele>1842</ele>
        <time>2011-05-03T08:55:48Z</time>
      </trkpt>
      <trkpt lat="42.53504" lon="2.05578">
        <ele>1841</ele>
        <time>2011-05-03T08:55:55Z</time>
      </trkpt>
      <trkpt lat="42.53517" lon="2.05556">
        <ele>1840</ele>
        <time>2011-05-03T08:56:14Z</time>
      </trkpt>
      <trkpt lat="42.5352" lon="2.05547">
        <ele>1839</ele>
        <time>2011-05-03T08:56:19Z</time>
      </trkpt>
      <trkpt lat="42.53523" lon="2.05538">
        <ele>1838</ele>
        <time>2011-05-03T08:56:25Z</time>
      </trkpt>
      <trkpt lat="42.53526" lon="2.0553">
        <ele>1837</ele>
        <time>2011-05-03T08:56:34Z</time>
      </trkpt>
      <trkpt lat="42.53531" lon="2.05523">
        <ele>1834</ele>
        <time>2011-05-03T08:56:55Z</time>
      </trkpt>
      <trkpt lat="42.53532" lon="2.05515">
        <ele>1833</ele>
        <time>2011-05-03T08:57:17Z</time>
      </trkpt>
      <trkpt lat="42.53532" lon="2.05506">
        <ele>1831</ele>
        <time>2011-05-03T08:57:25Z</time>
      </trkpt>
      <trkpt lat="42.53538" lon="2.05501">
        <ele>1829</ele>
        <time>2011-05-03T08:58:10Z</time>
      </trkpt>
      <trkpt lat="42.53541" lon="2.05509">
        <ele>1827</ele>
        <time>2011-05-03T08:58:29Z</time>
      </trkpt>
      <trkpt lat="42.53544" lon="2.05517">
        <ele>1825</ele>
        <time>2011-05-03T08:58:38Z</time>
      </trkpt>
      <trkpt lat="42.53547" lon="2.05526">
        <ele>1824</ele>
        <time>2011-05-03T08:58:46Z</time>
      </trkpt>
      <trkpt lat="42.5355" lon="2.05534">
        <ele>1823</ele>
        <time>2011-05-03T08:58:54Z</time>
      </trkpt>
      <trkpt lat="42.53547" lon="2.05527">
        <ele>1822</ele>
        <time>2011-05-03T08:59:15Z</time>
      </trkpt>
      <trkpt lat="42.53542" lon="2.0552">
        <ele>1822</ele>
        <time>2011-05-03T08:59:28Z</time>
      </trkpt>
      <trkpt lat="42.53548" lon="2.0554">
        <ele>1823</ele>
        <time>2011-05-03T09:03:29Z</time>
      </trkpt>
      <trkpt lat="42.53547" lon="2.05531">
        <ele>1822</ele>
        <time>2011-05-03T09:03:47Z</time>
      </trkpt>
      <trkpt lat="42.5355" lon="2.05523">
        <ele>1822</ele>
        <time>2011-05-03T09:05:06Z</time>
      </trkpt>
      <trkpt lat="42.53555" lon="2.05515">
        <ele>1822</ele>
        <time>2011-05-03T09:05:12Z</time>
      </trkpt>
      <trkpt lat="42.53559" lon="2.05508">
        <ele>1822</ele>
        <time>2011-05-03T09:05:18Z</time>
      </trkpt>
      <trkpt lat="42.53563" lon="2.05501">
        <ele>1822</ele>
        <time>2011-05-03T09:05:25Z</time>
      </trkpt>
      <trkpt lat="42.53568" lon="2.05495">
        <ele>1822</ele>
        <time>2011-05-03T09:05:31Z</time>
      </trkpt>
      <trkpt lat="42.53573" lon="2.05489">
        <ele>1822</ele>
        <time>2011-05-03T09:05:37Z</time>
      </trkpt>
      <trkpt lat="42.53582" lon="2.05464">
        <ele>1822</ele>
        <time>2011-05-03T09:05:56Z</time>
      </trkpt>
      <trkpt lat="42.53583" lon="2.05455">
        <ele>1823</ele>
        <time>2011-05-03T09:06:01Z</time>
      </trkpt>
      <trkpt lat="42.53586" lon="2.05446">
        <ele>1823</ele>
        <time>2011-05-03T09:06:07Z</time>
      </trkpt>
      <trkpt lat="42.53588" lon="2.05436">
        <ele>1823</ele>
        <time>2011-05-03T09:06:13Z</time>
      </trkpt>
      <trkpt lat="42.53589" lon="2.05426">
        <ele>1823</ele>
        <time>2011-05-03T09:06:19Z</time>
      </trkpt>
      <trkpt lat="42.5359" lon="2.05417">
        <ele>1823</ele>
        <time>2011-05-03T09:06:25Z</time>
      </trkpt>
      <trkpt lat="42.53593" lon="2.05408">
        <ele>1824</ele>
        <time>2011-05-03T09:06:30Z</time>
      </trkpt>
      <trkpt lat="42.53595" lon="2.05399">
        <ele>1824</ele>
        <time>2011-05-03T09:06:34Z</time>
      </trkpt>
      <trkpt lat="42.53596" lon="2.0539">
        <ele>1824</ele>
        <time>2011-05-03T09:06:39Z</time>
      </trkpt>
      <trkpt lat="42.53599" lon="2.05363">
        <ele>1824</ele>
        <time>2011-05-03T09:06:54Z</time>
      </trkpt>
      <trkpt lat="42.53601" lon="2.05353">
        <ele>1824</ele>
        <time>2011-05-03T09:06:59Z</time>
      </trkpt>
      <trkpt lat="42.53602" lon="2.05344">
        <ele>1824</ele>
        <time>2011-05-03T09:07:04Z</time>
      </trkpt>
      <trkpt lat="42.53604" lon="2.05335">
        <ele>1824</ele>
        <time>2011-05-03T09:07:09Z</time>
      </trkpt>
      <trkpt lat="42.53606" lon="2.05326">
        <ele>1824</ele>
        <time>2011-05-03T09:07:15Z</time>
      </trkpt>
      <trkpt lat="42.53611" lon="2.05309">
        <ele>1823</ele>
        <time>2011-05-03T09:07:27Z</time>
      </trkpt>
      <trkpt lat="42.53621" lon="2.05286">
        <ele>1822</ele>
        <time>2011-05-03T09:07:44Z</time>
      </trkpt>
      <trkpt lat="42.53636" lon="2.05267">
        <ele>1822</ele>
        <time>2011-05-03T09:08:03Z</time>
      </trkpt>
      <trkpt lat="42.5364" lon="2.05261">
        <ele>1822</ele>
        <time>2011-05-03T09:08:09Z</time>
      </trkpt>
      <trkpt lat="42.53644" lon="2.05253">
        <ele>1822</ele>
        <time>2011-05-03T09:08:16Z</time>
      </trkpt>
      <trkpt lat="42.53647" lon="2.05244">
        <ele>1822</ele>
        <time>2011-05-03T09:08:23Z</time>
      </trkpt>
      <trkpt lat="42.53651" lon="2.05235">
        <ele>1822</ele>
        <time>2011-05-03T09:08:29Z</time>
      </trkpt>
      <trkpt lat="42.53653" lon="2.05228">
        <ele>1822</ele>
        <time>2011-05-03T09:08:35Z</time>
      </trkpt>
      <trkpt lat="42.53665" lon="2.05206">
        <ele>1823</ele>
        <time>2011-05-03T09:08:55Z</time>
      </trkpt>
      <trkpt lat="42.5367" lon="2.05199">
        <ele>1822</ele>
        <time>2011-05-03T09:09:01Z</time>
      </trkpt>
      <trkpt lat="42.53685" lon="2.0518">
        <ele>1822</ele>
        <time>2011-05-03T09:09:17Z</time>
      </trkpt>
      <trkpt lat="42.53689" lon="2.05172">
        <ele>1822</ele>
        <time>2011-05-03T09:09:21Z</time>
      </trkpt>
      <trkpt lat="42.53693" lon="2.05165">
        <ele>1821</ele>
        <time>2011-05-03T09:09:26Z</time>
      </trkpt>
      <trkpt lat="42.53709" lon="2.05146">
        <ele>1820</ele>
        <time>2011-05-03T09:09:45Z</time>
      </trkpt>
      <trkpt lat="42.53715" lon="2.0514">
        <ele>1820</ele>
        <time>2011-05-03T09:09:52Z</time>
      </trkpt>
      <trkpt lat="42.5372" lon="2.05134">
        <ele>1819</ele>
        <time>2011-05-03T09:09:59Z</time>
      </trkpt>
      <trkpt lat="42.53725" lon="2.05128">
        <ele>1819</ele>
        <time>2011-05-03T09:10:06Z</time>
      </trkpt>
      <trkpt lat="42.53731" lon="2.05123">
        <ele>1819</ele>
        <time>2011-05-03T09:10:13Z</time>
      </trkpt>
      <trkpt lat="42.53737" lon="2.05119">
        <ele>1818</ele>
        <time>2011-05-03T09:10:19Z</time>
      </trkpt>
      <trkpt lat="42.53743" lon="2.05114">
        <ele>1818</ele>
        <time>2011-05-03T09:10:26Z</time>
      </trkpt>
      <trkpt lat="42.53747" lon="2.05107">
        <ele>1817</ele>
        <time>2011-05-03T09:10:32Z</time>
      </trkpt>
      <trkpt lat="42.53751" lon="2.051">
        <ele>1817</ele>
        <time>2011-05-03T09:10:37Z</time>
      </trkpt>
      <trkpt lat="42.53756" lon="2.05094">
        <ele>1816</ele>
        <time>2011-05-03T09:10:45Z</time>
      </trkpt>
      <trkpt lat="42.53762" lon="2.05089">
        <ele>1816</ele>
        <time>2011-05-03T09:10:50Z</time>
      </trkpt>
      <trkpt lat="42.53768" lon="2.05082">
        <ele>1816</ele>
        <time>2011-05-03T09:10:54Z</time>
      </trkpt>
      <trkpt lat="42.53774" lon="2.05075">
        <ele>1815</ele>
        <time>2011-05-03T09:10:58Z</time>
      </trkpt>
      <trkpt lat="42.53778" lon="2.05067">
        <ele>1814</ele>
        <time>2011-05-03T09:11:03Z</time>
      </trkpt>
      <trkpt lat="42.53783" lon="2.0506">
        <ele>1813</ele>
        <time>2011-05-03T09:11:08Z</time>
      </trkpt>
      <trkpt lat="42.53788" lon="2.05054">
        <ele>1811</ele>
        <time>2011-05-03T09:11:14Z</time>
      </trkpt>
      <trkpt lat="42.53791" lon="2.05046">
        <ele>1809</ele>
        <time>2011-05-03T09:11:40Z</time>
      </trkpt>
      <trkpt lat="42.53795" lon="2.05038">
        <ele>1808</ele>
        <time>2011-05-03T09:11:47Z</time>
      </trkpt>
      <trkpt lat="42.538" lon="2.05031">
        <ele>1807</ele>
        <time>2011-05-03T09:11:54Z</time>
      </trkpt>
      <trkpt lat="42.53814" lon="2.05012">
        <ele>1805</ele>
        <time>2011-05-03T09:12:15Z</time>
      </trkpt>
      <trkpt lat="42.53819" lon="2.05005">
        <ele>1804</ele>
        <time>2011-05-03T09:12:23Z</time>
      </trkpt>
      <trkpt lat="42.53822" lon="2.04997">
        <ele>1804</ele>
        <time>2011-05-03T09:12:30Z</time>
      </trkpt>
      <trkpt lat="42.53826" lon="2.0499">
        <ele>1804</ele>
        <time>2011-05-03T09:12:37Z</time>
      </trkpt>
      <trkpt lat="42.53831" lon="2.04982">
        <ele>1804</ele>
        <time>2011-05-03T09:12:43Z</time>
      </trkpt>
      <trkpt lat="42.53838" lon="2.04966">
        <ele>1804</ele>
        <time>2011-05-03T09:12:53Z</time>
      </trkpt>
      <trkpt lat="42.5384" lon="2.04958">
        <ele>1804</ele>
        <time>2011-05-03T09:12:59Z</time>
      </trkpt>
      <trkpt lat="42.53848" lon="2.04933">
        <ele>1805</ele>
        <time>2011-05-03T09:13:18Z</time>
      </trkpt>
      <trkpt lat="42.5385" lon="2.04924">
        <ele>1805</ele>
        <time>2011-05-03T09:13:23Z</time>
      </trkpt>
      <trkpt lat="42.53853" lon="2.04917">
        <ele>1805</ele>
        <time>2011-05-03T09:13:29Z</time>
      </trkpt>
      <trkpt lat="42.53855" lon="2.04908">
        <ele>1804</ele>
        <time>2011-05-03T09:13:35Z</time>
      </trkpt>
      <trkpt lat="42.53865" lon="2.04884">
        <ele>1804</ele>
        <time>2011-05-03T09:13:53Z</time>
      </trkpt>
      <trkpt lat="42.53869" lon="2.04876">
        <ele>1804</ele>
        <time>2011-05-03T09:13:58Z</time>
      </trkpt>
      <trkpt lat="42.53874" lon="2.04869">
        <ele>1804</ele>
        <time>2011-05-03T09:14:03Z</time>
      </trkpt>
      <trkpt lat="42.53878" lon="2.04861">
        <ele>1805</ele>
        <time>2011-05-03T09:14:09Z</time>
      </trkpt>
      <trkpt lat="42.53881" lon="2.04853">
        <ele>1805</ele>
        <time>2011-05-03T09:14:15Z</time>
      </trkpt>
      <trkpt lat="42.53888" lon="2.04826">
        <ele>1806</ele>
        <time>2011-05-03T09:14:33Z</time>
      </trkpt>
      <trkpt lat="42.5389" lon="2.04817">
        <ele>1806</ele>
        <time>2011-05-03T09:14:39Z</time>
      </trkpt>
      <trkpt lat="42.53892" lon="2.04809">
        <ele>1806</ele>
        <time>2011-05-03T09:14:45Z</time>
      </trkpt>
      <trkpt lat="42.53895" lon="2.04792">
        <ele>1805</ele>
        <time>2011-05-03T09:15:08Z</time>
      </trkpt>
      <trkpt lat="42.53899" lon="2.04775">
        <ele>1805</ele>
        <time>2011-05-03T09:15:37Z</time>
      </trkpt>
      <trkpt lat="42.53903" lon="2.04767">
        <ele>1805</ele>
        <time>2011-05-03T09:15:47Z</time>
      </trkpt>
      <trkpt lat="42.53906" lon="2.04759">
        <ele>1805</ele>
        <time>2011-05-03T09:15:56Z</time>
      </trkpt>
      <trkpt lat="42.5391" lon="2.04751">
        <ele>1806</ele>
        <time>2011-05-03T09:16:04Z</time>
      </trkpt>
      <trkpt lat="42.53912" lon="2.04742">
        <ele>1806</ele>
        <time>2011-05-03T09:16:16Z</time>
      </trkpt>
      <trkpt lat="42.53917" lon="2.04726">
        <ele>1806</ele>
        <time>2011-05-03T09:16:45Z</time>
      </trkpt>
      <trkpt lat="42.5392" lon="2.04717">
        <ele>1807</ele>
        <time>2011-05-03T09:16:53Z</time>
      </trkpt>
      <trkpt lat="42.53926" lon="2.04702">
        <ele>1807</ele>
        <time>2011-05-03T09:17:04Z</time>
      </trkpt>
      <trkpt lat="42.53932" lon="2.04686">
        <ele>1808</ele>
        <time>2011-05-03T09:17:20Z</time>
      </trkpt>
      <trkpt lat="42.53935" lon="2.04677">
        <ele>1808</ele>
        <time>2011-05-03T09:17:29Z</time>
      </trkpt>
      <trkpt lat="42.53937" lon="2.04669">
        <ele>1809</ele>
        <time>2011-05-03T09:17:38Z</time>
      </trkpt>
      <trkpt lat="42.5394" lon="2.0466">
        <ele>1810</ele>
        <time>2011-05-03T09:17:47Z</time>
      </trkpt>
      <trkpt lat="42.53943" lon="2.04653">
        <ele>1810</ele>
        <time>2011-05-03T09:17:56Z</time>
      </trkpt>
      <trkpt lat="42.53946" lon="2.04644">
        <ele>1811</ele>
        <time>2011-05-03T09:18:05Z</time>
      </trkpt>
      <trkpt lat="42.53947" lon="2.04635">
        <ele>1812</ele>
        <time>2011-05-03T09:18:13Z</time>
      </trkpt>
      <trkpt lat="42.53947" lon="2.04618">
        <ele>1813</ele>
        <time>2011-05-03T09:18:42Z</time>
      </trkpt>
      <trkpt lat="42.5395" lon="2.0461">
        <ele>1814</ele>
        <time>2011-05-03T09:18:59Z</time>
      </trkpt>
      <trkpt lat="42.53956" lon="2.04593">
        <ele>1815</ele>
        <time>2011-05-03T09:19:17Z</time>
      </trkpt>
      <trkpt lat="42.53958" lon="2.04586">
        <ele>1816</ele>
        <time>2011-05-03T09:19:25Z</time>
      </trkpt>
      <trkpt lat="42.53963" lon="2.04567">
        <ele>1818</ele>
        <time>2011-05-03T09:19:41Z</time>
      </trkpt>
      <trkpt lat="42.53971" lon="2.04542">
        <ele>1820</ele>
        <time>2011-05-03T09:20:01Z</time>
      </trkpt>
      <trkpt lat="42.53974" lon="2.04533">
        <ele>1820</ele>
        <time>2011-05-03T09:20:08Z</time>
      </trkpt>
      <trkpt lat="42.53977" lon="2.04525">
        <ele>1821</ele>
        <time>2011-05-03T09:20:15Z</time>
      </trkpt>
      <trkpt lat="42.5398" lon="2.04517">
        <ele>1821</ele>
        <time>2011-05-03T09:20:22Z</time>
      </trkpt>
      <trkpt lat="42.53983" lon="2.04508">
        <ele>1822</ele>
        <time>2011-05-03T09:20:30Z</time>
      </trkpt>
      <trkpt lat="42.53985" lon="2.04501">
        <ele>1822</ele>
        <time>2011-05-03T09:20:38Z</time>
      </trkpt>
      <trkpt lat="42.53988" lon="2.04492">
        <ele>1823</ele>
        <time>2011-05-03T09:20:47Z</time>
      </trkpt>
      <trkpt lat="42.5399" lon="2.04484">
        <ele>1823</ele>
        <time>2011-05-03T09:20:55Z</time>
      </trkpt>
      <trkpt lat="42.53993" lon="2.04475">
        <ele>1824</ele>
        <time>2011-05-03T09:21:03Z</time>
      </trkpt>
      <trkpt lat="42.53997" lon="2.04458">
        <ele>1825</ele>
        <time>2011-05-03T09:21:45Z</time>
      </trkpt>
      <trkpt lat="42.53999" lon="2.0445">
        <ele>1825</ele>
        <time>2011-05-03T09:22:00Z</time>
      </trkpt>
      <trkpt lat="42.54002" lon="2.04442">
        <ele>1826</ele>
        <time>2011-05-03T09:22:11Z</time>
      </trkpt>
      <trkpt lat="42.54005" lon="2.04434">
        <ele>1827</ele>
        <time>2011-05-03T09:22:20Z</time>
      </trkpt>
      <trkpt lat="42.54011" lon="2.04418">
        <ele>1828</ele>
        <time>2011-05-03T09:22:34Z</time>
      </trkpt>
      <trkpt lat="42.54015" lon="2.04411">
        <ele>1828</ele>
        <time>2011-05-03T09:22:40Z</time>
      </trkpt>
      <trkpt lat="42.54017" lon="2.04402">
        <ele>1829</ele>
        <time>2011-05-03T09:22:47Z</time>
      </trkpt>
      <trkpt lat="42.54024" lon="2.04377">
        <ele>1830</ele>
        <time>2011-05-03T09:23:08Z</time>
      </trkpt>
      <trkpt lat="42.54027" lon="2.04368">
        <ele>1831</ele>
        <time>2011-05-03T09:23:16Z</time>
      </trkpt>
      <trkpt lat="42.5403" lon="2.0436">
        <ele>1831</ele>
        <time>2011-05-03T09:23:23Z</time>
      </trkpt>
      <trkpt lat="42.54041" lon="2.04337">
        <ele>1832</ele>
        <time>2011-05-03T09:23:46Z</time>
      </trkpt>
      <trkpt lat="42.54044" lon="2.04329">
        <ele>1833</ele>
        <time>2011-05-03T09:23:55Z</time>
      </trkpt>
      <trkpt lat="42.54047" lon="2.04321">
        <ele>1833</ele>
        <time>2011-05-03T09:24:03Z</time>
      </trkpt>
      <trkpt lat="42.54059" lon="2.04298">
        <ele>1833</ele>
        <time>2011-05-03T09:24:22Z</time>
      </trkpt>
      <trkpt lat="42.54063" lon="2.04291">
        <ele>1834</ele>
        <time>2011-05-03T09:24:28Z</time>
      </trkpt>
      <trkpt lat="42.54067" lon="2.04284">
        <ele>1834</ele>
        <time>2011-05-03T09:24:33Z</time>
      </trkpt>
      <trkpt lat="42.54071" lon="2.04277">
        <ele>1835</ele>
        <time>2011-05-03T09:24:39Z</time>
      </trkpt>
      <trkpt lat="42.54074" lon="2.04269">
        <ele>1835</ele>
        <time>2011-05-03T09:24:45Z</time>
      </trkpt>
      <trkpt lat="42.54079" lon="2.04262">
        <ele>1836</ele>
        <time>2011-05-03T09:24:51Z</time>
      </trkpt>
      <trkpt lat="42.54083" lon="2.04254">
        <ele>1836</ele>
        <time>2011-05-03T09:24:57Z</time>
      </trkpt>
      <trkpt lat="42.54087" lon="2.04246">
        <ele>1836</ele>
        <time>2011-05-03T09:25:03Z</time>
      </trkpt>
      <trkpt lat="42.5409" lon="2.04238">
        <ele>1837</ele>
        <time>2011-05-03T09:25:09Z</time>
      </trkpt>
      <trkpt lat="42.54094" lon="2.04231">
        <ele>1837</ele>
        <time>2011-05-03T09:25:15Z</time>
      </trkpt>
      <trkpt lat="42.54098" lon="2.04223">
        <ele>1837</ele>
        <time>2011-05-03T09:25:21Z</time>
      </trkpt>
      <trkpt lat="42.54101" lon="2.04214">
        <ele>1837</ele>
        <time>2011-05-03T09:25:27Z</time>
      </trkpt>
      <trkpt lat="42.54105" lon="2.04207">
        <ele>1837</ele>
        <time>2011-05-03T09:25:35Z</time>
      </trkpt>
      <trkpt lat="42.54108" lon="2.042">
        <ele>1836</ele>
        <time>2011-05-03T09:25:43Z</time>
      </trkpt>
      <trkpt lat="42.54112" lon="2.04192">
        <ele>1836</ele>
        <time>2011-05-03T09:25:50Z</time>
      </trkpt>
      <trkpt lat="42.54122" lon="2.04168">
        <ele>1836</ele>
        <time>2011-05-03T09:26:10Z</time>
      </trkpt>
      <trkpt lat="42.54124" lon="2.04159">
        <ele>1836</ele>
        <time>2011-05-03T09:26:16Z</time>
      </trkpt>
      <trkpt lat="42.54126" lon="2.0415">
        <ele>1836</ele>
        <time>2011-05-03T09:26:22Z</time>
      </trkpt>
      <trkpt lat="42.54129" lon="2.04143">
        <ele>1836</ele>
        <time>2011-05-03T09:26:28Z</time>
      </trkpt>
      <trkpt lat="42.54133" lon="2.04135">
        <ele>1836</ele>
        <time>2011-05-03T09:26:35Z</time>
      </trkpt>
      <trkpt lat="42.54137" lon="2.04128">
        <ele>1836</ele>
        <time>2011-05-03T09:26:42Z</time>
      </trkpt>
      <trkpt lat="42.54139" lon="2.0412">
        <ele>1836</ele>
        <time>2011-05-03T09:26:48Z</time>
      </trkpt>
      <trkpt lat="42.54142" lon="2.0411">
        <ele>1836</ele>
        <time>2011-05-03T09:26:53Z</time>
      </trkpt>
      <trkpt lat="42.54144" lon="2.04102">
        <ele>1836</ele>
        <time>2011-05-03T09:27:22Z</time>
      </trkpt>
      <trkpt lat="42.54148" lon="2.04094">
        <ele>1835</ele>
        <time>2011-05-03T09:27:33Z</time>
      </trkpt>
      <trkpt lat="42.54151" lon="2.04085">
        <ele>1835</ele>
        <time>2011-05-03T09:27:40Z</time>
      </trkpt>
      <trkpt lat="42.54158" lon="2.0406">
        <ele>1834</ele>
        <time>2011-05-03T09:28:00Z</time>
      </trkpt>
      <trkpt lat="42.54161" lon="2.04051">
        <ele>1834</ele>
        <time>2011-05-03T09:28:08Z</time>
      </trkpt>
      <trkpt lat="42.54164" lon="2.04043">
        <ele>1833</ele>
        <time>2011-05-03T09:28:20Z</time>
      </trkpt>
      <trkpt lat="42.54167" lon="2.04035">
        <ele>1833</ele>
        <time>2011-05-03T09:28:29Z</time>
      </trkpt>
      <trkpt lat="42.54173" lon="2.04019">
        <ele>1832</ele>
        <time>2011-05-03T09:29:00Z</time>
      </trkpt>
      <trkpt lat="42.54175" lon="2.04011">
        <ele>1833</ele>
        <time>2011-05-03T09:29:11Z</time>
      </trkpt>
      <trkpt lat="42.54177" lon="2.04002">
        <ele>1833</ele>
        <time>2011-05-03T09:29:25Z</time>
      </trkpt>
      <trkpt lat="42.54179" lon="2.03994">
        <ele>1833</ele>
        <time>2011-05-03T09:29:34Z</time>
      </trkpt>
      <trkpt lat="42.54182" lon="2.03977">
        <ele>1833</ele>
        <time>2011-05-03T09:29:48Z</time>
      </trkpt>
      <trkpt lat="42.54184" lon="2.03969">
        <ele>1832</ele>
        <time>2011-05-03T09:29:57Z</time>
      </trkpt>
      <trkpt lat="42.54194" lon="2.03958">
        <ele>1831</ele>
        <time>2011-05-03T09:30:20Z</time>
      </trkpt>
      <trkpt lat="42.54199" lon="2.03951">
        <ele>1831</ele>
        <time>2011-05-03T09:30:28Z</time>
      </trkpt>
      <trkpt lat="42.54206" lon="2.03926">
        <ele>1830</ele>
        <time>2011-05-03T09:30:54Z</time>
      </trkpt>
      <trkpt lat="42.54206" lon="2.03899">
        <ele>1830</ele>
        <time>2011-05-03T09:31:28Z</time>
      </trkpt>
      <trkpt lat="42.54218" lon="2.03878">
        <ele>1828</ele>
        <time>2011-05-03T09:31:50Z</time>
      </trkpt>
      <trkpt lat="42.54223" lon="2.03872">
        <ele>1828</ele>
        <time>2011-05-03T09:31:58Z</time>
      </trkpt>
      <trkpt lat="42.54226" lon="2.03864">
        <ele>1828</ele>
        <time>2011-05-03T09:32:06Z</time>
      </trkpt>
      <trkpt lat="42.54229" lon="2.03855">
        <ele>1827</ele>
        <time>2011-05-03T09:32:16Z</time>
      </trkpt>
      <trkpt lat="42.54233" lon="2.03847">
        <ele>1827</ele>
        <time>2011-05-03T09:32:23Z</time>
      </trkpt>
      <trkpt lat="42.54238" lon="2.03842">
        <ele>1826</ele>
        <time>2011-05-03T09:32:30Z</time>
      </trkpt>
      <trkpt lat="42.54242" lon="2.03834">
        <ele>1826</ele>
        <time>2011-05-03T09:32:40Z</time>
      </trkpt>
      <trkpt lat="42.54248" lon="2.03817">
        <ele>1826</ele>
        <time>2011-05-03T09:32:57Z</time>
      </trkpt>
      <trkpt lat="42.54253" lon="2.0381">
        <ele>1826</ele>
        <time>2011-05-03T09:33:05Z</time>
      </trkpt>
      <trkpt lat="42.54258" lon="2.03802">
        <ele>1827</ele>
        <time>2011-05-03T09:33:13Z</time>
      </trkpt>
      <trkpt lat="42.54261" lon="2.03795">
        <ele>1827</ele>
        <time>2011-05-03T09:33:22Z</time>
      </trkpt>
      <trkpt lat="42.54263" lon="2.03787">
        <ele>1828</ele>
        <time>2011-05-03T09:33:32Z</time>
      </trkpt>
      <trkpt lat="42.54267" lon="2.03779">
        <ele>1828</ele>
        <time>2011-05-03T09:33:40Z</time>
      </trkpt>
      <trkpt lat="42.54271" lon="2.03772">
        <ele>1829</ele>
        <time>2011-05-03T09:33:51Z</time>
      </trkpt>
      <trkpt lat="42.54275" lon="2.03764">
        <ele>1829</ele>
        <time>2011-05-03T09:34:07Z</time>
      </trkpt>
      <trkpt lat="42.54278" lon="2.03755">
        <ele>1830</ele>
        <time>2011-05-03T09:34:16Z</time>
      </trkpt>
      <trkpt lat="42.54281" lon="2.03738">
        <ele>1830</ele>
        <time>2011-05-03T09:35:04Z</time>
      </trkpt>
      <trkpt lat="42.54282" lon="2.03729">
        <ele>1830</ele>
        <time>2011-05-03T09:35:11Z</time>
      </trkpt>
      <trkpt lat="42.54284" lon="2.0372">
        <ele>1830</ele>
        <time>2011-05-03T09:35:18Z</time>
      </trkpt>
      <trkpt lat="42.54287" lon="2.03712">
        <ele>1831</ele>
        <time>2011-05-03T09:35:25Z</time>
      </trkpt>
      <trkpt lat="42.5429" lon="2.03704">
        <ele>1831</ele>
        <time>2011-05-03T09:35:33Z</time>
      </trkpt>
      <trkpt lat="42.54293" lon="2.03695">
        <ele>1831</ele>
        <time>2011-05-03T09:35:41Z</time>
      </trkpt>
      <trkpt lat="42.54296" lon="2.03687">
        <ele>1832</ele>
        <time>2011-05-03T09:35:50Z</time>
      </trkpt>
      <trkpt lat="42.54299" lon="2.03678">
        <ele>1832</ele>
        <time>2011-05-03T09:35:58Z</time>
      </trkpt>
      <trkpt lat="42.54301" lon="2.03669">
        <ele>1833</ele>
        <time>2011-05-03T09:36:05Z</time>
      </trkpt>
      <trkpt lat="42.54314" lon="2.03652">
        <ele>1834</ele>
        <time>2011-05-03T09:36:53Z</time>
      </trkpt>
      <trkpt lat="42.54317" lon="2.03644">
        <ele>1834</ele>
        <time>2011-05-03T09:37:05Z</time>
      </trkpt>
      <trkpt lat="42.54331" lon="2.03625">
        <ele>1835</ele>
        <time>2011-05-03T09:37:31Z</time>
      </trkpt>
      <trkpt lat="42.54336" lon="2.03618">
        <ele>1835</ele>
        <time>2011-05-03T09:37:37Z</time>
      </trkpt>
      <trkpt lat="42.54344" lon="2.03603">
        <ele>1836</ele>
        <time>2011-05-03T09:38:06Z</time>
      </trkpt>
      <trkpt lat="42.54346" lon="2.03575">
        <ele>1838</ele>
        <time>2011-05-03T09:38:26Z</time>
      </trkpt>
      <trkpt lat="42.54345" lon="2.03566">
        <ele>1838</ele>
        <time>2011-05-03T09:38:33Z</time>
      </trkpt>
      <trkpt lat="42.54346" lon="2.03556">
        <ele>1838</ele>
        <time>2011-05-03T09:38:41Z</time>
      </trkpt>
      <trkpt lat="42.54347" lon="2.03548">
        <ele>1838</ele>
        <time>2011-05-03T09:38:48Z</time>
      </trkpt>
      <trkpt lat="42.54347" lon="2.03521">
        <ele>1839</ele>
        <time>2011-05-03T09:39:19Z</time>
      </trkpt>
      <trkpt lat="42.54351" lon="2.03495">
        <ele>1839</ele>
        <time>2011-05-03T09:39:57Z</time>
      </trkpt>
      <trkpt lat="42.5435" lon="2.03486">
        <ele>1839</ele>
        <time>2011-05-03T09:40:09Z</time>
      </trkpt>
      <trkpt lat="42.5435" lon="2.03478">
        <ele>1839</ele>
        <time>2011-05-03T09:40:24Z</time>
      </trkpt>
      <trkpt lat="42.54352" lon="2.03469">
        <ele>1840</ele>
        <time>2011-05-03T09:40:35Z</time>
      </trkpt>
      <trkpt lat="42.54353" lon="2.0346">
        <ele>1840</ele>
        <time>2011-05-03T09:40:46Z</time>
      </trkpt>
      <trkpt lat="42.54353" lon="2.03451">
        <ele>1840</ele>
        <time>2011-05-03T09:40:57Z</time>
      </trkpt>
      <trkpt lat="42.5435" lon="2.03426">
        <ele>1843</ele>
        <time>2011-05-03T09:41:56Z</time>
      </trkpt>
      <trkpt lat="42.54349" lon="2.03409">
        <ele>1845</ele>
        <time>2011-05-03T09:42:16Z</time>
      </trkpt>
      <trkpt lat="42.54347" lon="2.03401">
        <ele>1845</ele>
        <time>2011-05-03T09:42:37Z</time>
      </trkpt>
      <trkpt lat="42.54337" lon="2.0338">
        <ele>1848</ele>
        <time>2011-05-03T09:44:31Z</time>
      </trkpt>
      <trkpt lat="42.5433" lon="2.03355">
        <ele>1850</ele>
        <time>2011-05-03T09:45:18Z</time>
      </trkpt>
      <trkpt lat="42.5433" lon="2.03347">
        <ele>1850</ele>
        <time>2011-05-03T09:45:43Z</time>
      </trkpt>
      <trkpt lat="42.54327" lon="2.03338">
        <ele>1851</ele>
        <time>2011-05-03T09:45:54Z</time>
      </trkpt>
      <trkpt lat="42.54325" lon="2.0333">
        <ele>1852</ele>
        <time>2011-05-03T09:46:02Z</time>
      </trkpt>
      <trkpt lat="42.54323" lon="2.03321">
        <ele>1854</ele>
        <time>2011-05-03T09:46:10Z</time>
      </trkpt>
      <trkpt lat="42.54315" lon="2.03297">
        <ele>1858</ele>
        <time>2011-05-03T09:46:39Z</time>
      </trkpt>
      <trkpt lat="42.54309" lon="2.03281">
        <ele>1860</ele>
        <time>2011-05-03T09:46:59Z</time>
      </trkpt>
      <trkpt lat="42.54302" lon="2.03266">
        <ele>1862</ele>
        <time>2011-05-03T09:47:26Z</time>
      </trkpt>
      <trkpt lat="42.54303" lon="2.03258">
        <ele>1862</ele>
        <time>2011-05-03T09:47:34Z</time>
      </trkpt>
      <trkpt lat="42.54301" lon="2.03239">
        <ele>1863</ele>
        <time>2011-05-03T09:47:47Z</time>
      </trkpt>
      <trkpt lat="42.543" lon="2.0323">
        <ele>1864</ele>
        <time>2011-05-03T09:47:53Z</time>
      </trkpt>
      <trkpt lat="42.54297" lon="2.03203">
        <ele>1865</ele>
        <time>2011-05-03T09:48:13Z</time>
      </trkpt>
      <trkpt lat="42.54294" lon="2.03185">
        <ele>1867</ele>
        <time>2011-05-03T09:48:30Z</time>
      </trkpt>
      <trkpt lat="42.5429" lon="2.03159">
        <ele>1869</ele>
        <time>2011-05-03T09:49:03Z</time>
      </trkpt>
      <trkpt lat="42.54288" lon="2.03151">
        <ele>1869</ele>
        <time>2011-05-03T09:49:12Z</time>
      </trkpt>
      <trkpt lat="42.54286" lon="2.03142">
        <ele>1869</ele>
        <time>2011-05-03T09:49:25Z</time>
      </trkpt>
      <trkpt lat="42.54284" lon="2.03133">
        <ele>1869</ele>
        <time>2011-05-03T09:49:32Z</time>
      </trkpt>
      <trkpt lat="42.54281" lon="2.03125">
        <ele>1869</ele>
        <time>2011-05-03T09:49:40Z</time>
      </trkpt>
      <trkpt lat="42.54278" lon="2.03117">
        <ele>1869</ele>
        <time>2011-05-03T09:49:47Z</time>
      </trkpt>
      <trkpt lat="42.54275" lon="2.03108">
        <ele>1869</ele>
        <time>2011-05-03T09:49:55Z</time>
      </trkpt>
      <trkpt lat="42.54273" lon="2.031">
        <ele>1869</ele>
        <time>2011-05-03T09:50:03Z</time>
      </trkpt>
      <trkpt lat="42.54269" lon="2.03093">
        <ele>1869</ele>
        <time>2011-05-03T09:50:17Z</time>
      </trkpt>
      <trkpt lat="42.54256" lon="2.03075">
        <ele>1872</ele>
        <time>2011-05-03T09:51:07Z</time>
      </trkpt>
      <trkpt lat="42.54255" lon="2.03066">
        <ele>1873</ele>
        <time>2011-05-03T09:51:22Z</time>
      </trkpt>
      <trkpt lat="42.54251" lon="2.0306">
        <ele>1875</ele>
        <time>2011-05-03T09:51:38Z</time>
      </trkpt>
      <trkpt lat="42.54247" lon="2.03052">
        <ele>1876</ele>
        <time>2011-05-03T09:51:54Z</time>
      </trkpt>
      <trkpt lat="42.54245" lon="2.03044">
        <ele>1878</ele>
        <time>2011-05-03T09:52:08Z</time>
      </trkpt>
      <trkpt lat="42.54241" lon="2.03037">
        <ele>1879</ele>
        <time>2011-05-03T09:52:23Z</time>
      </trkpt>
      <trkpt lat="42.54235" lon="2.03033">
        <ele>1880</ele>
        <time>2011-05-03T09:52:34Z</time>
      </trkpt>
      <trkpt lat="42.54229" lon="2.03032">
        <ele>1881</ele>
        <time>2011-05-03T09:52:41Z</time>
      </trkpt>
      <trkpt lat="42.54215" lon="2.03014">
        <ele>1884</ele>
        <time>2011-05-03T09:53:17Z</time>
      </trkpt>
      <trkpt lat="42.54211" lon="2.03006">
        <ele>1885</ele>
        <time>2011-05-03T09:53:27Z</time>
      </trkpt>
      <trkpt lat="42.54212" lon="2.02981">
        <ele>1886</ele>
        <time>2011-05-03T09:54:33Z</time>
      </trkpt>
      <trkpt lat="42.54213" lon="2.02972">
        <ele>1887</ele>
        <time>2011-05-03T09:54:45Z</time>
      </trkpt>
      <trkpt lat="42.54214" lon="2.02963">
        <ele>1888</ele>
        <time>2011-05-03T09:54:57Z</time>
      </trkpt>
      <trkpt lat="42.54214" lon="2.02954">
        <ele>1888</ele>
        <time>2011-05-03T09:55:07Z</time>
      </trkpt>
      <trkpt lat="42.54208" lon="2.02929">
        <ele>1890</ele>
        <time>2011-05-03T09:55:56Z</time>
      </trkpt>
      <trkpt lat="42.54208" lon="2.0292">
        <ele>1890</ele>
        <time>2011-05-03T09:56:02Z</time>
      </trkpt>
      <trkpt lat="42.54204" lon="2.02893">
        <ele>1891</ele>
        <time>2011-05-03T09:56:30Z</time>
      </trkpt>
      <trkpt lat="42.54203" lon="2.02885">
        <ele>1891</ele>
        <time>2011-05-03T09:56:37Z</time>
      </trkpt>
      <trkpt lat="42.54201" lon="2.02876">
        <ele>1892</ele>
        <time>2011-05-03T09:56:46Z</time>
      </trkpt>
      <trkpt lat="42.54199" lon="2.02867">
        <ele>1892</ele>
        <time>2011-05-03T09:56:53Z</time>
      </trkpt>
      <trkpt lat="42.54198" lon="2.02858">
        <ele>1893</ele>
        <time>2011-05-03T09:57:01Z</time>
      </trkpt>
      <trkpt lat="42.542" lon="2.02849">
        <ele>1893</ele>
        <time>2011-05-03T09:57:07Z</time>
      </trkpt>
      <trkpt lat="42.54202" lon="2.02822">
        <ele>1894</ele>
        <time>2011-05-03T09:57:33Z</time>
      </trkpt>
      <trkpt lat="42.54202" lon="2.02813">
        <ele>1894</ele>
        <time>2011-05-03T09:57:43Z</time>
      </trkpt>
      <trkpt lat="42.54203" lon="2.02805">
        <ele>1894</ele>
        <time>2011-05-03T09:57:51Z</time>
      </trkpt>
      <trkpt lat="42.54204" lon="2.02796">
        <ele>1894</ele>
        <time>2011-05-03T09:57:57Z</time>
      </trkpt>
      <trkpt lat="42.54205" lon="2.02787">
        <ele>1895</ele>
        <time>2011-05-03T09:58:02Z</time>
      </trkpt>
      <trkpt lat="42.54206" lon="2.02758">
        <ele>1895</ele>
        <time>2011-05-03T09:58:17Z</time>
      </trkpt>
      <trkpt lat="42.54205" lon="2.02749">
        <ele>1896</ele>
        <time>2011-05-03T09:58:22Z</time>
      </trkpt>
      <trkpt lat="42.54204" lon="2.02722">
        <ele>1896</ele>
        <time>2011-05-03T09:58:38Z</time>
      </trkpt>
      <trkpt lat="42.54208" lon="2.02705">
        <ele>1897</ele>
        <time>2011-05-03T09:58:52Z</time>
      </trkpt>
      <trkpt lat="42.54211" lon="2.02678">
        <ele>1899</ele>
        <time>2011-05-03T09:59:23Z</time>
      </trkpt>
      <trkpt lat="42.54212" lon="2.02669">
        <ele>1899</ele>
        <time>2011-05-03T09:59:32Z</time>
      </trkpt>
      <trkpt lat="42.54214" lon="2.02661">
        <ele>1899</ele>
        <time>2011-05-03T09:59:48Z</time>
      </trkpt>
      <trkpt lat="42.5422" lon="2.02658">
        <ele>1899</ele>
        <time>2011-05-03T10:00:06Z</time>
      </trkpt>
      <trkpt lat="42.54223" lon="2.02651">
        <ele>1900</ele>
        <time>2011-05-03T10:01:16Z</time>
      </trkpt>
      <trkpt lat="42.54217" lon="2.02648">
        <ele>1901</ele>
        <time>2011-05-03T10:02:11Z</time>
      </trkpt>
      <trkpt lat="42.54218" lon="2.02623">
        <ele>1903</ele>
        <time>2011-05-03T10:03:05Z</time>
      </trkpt>
      <trkpt lat="42.54218" lon="2.02613">
        <ele>1903</ele>
        <time>2011-05-03T10:03:15Z</time>
      </trkpt>
      <trkpt lat="42.54216" lon="2.02604">
        <ele>1904</ele>
        <time>2011-05-03T10:03:23Z</time>
      </trkpt>
      <trkpt lat="42.54214" lon="2.02595">
        <ele>1905</ele>
        <time>2011-05-03T10:03:30Z</time>
      </trkpt>
      <trkpt lat="42.54213" lon="2.02586">
        <ele>1906</ele>
        <time>2011-05-03T10:03:37Z</time>
      </trkpt>
      <trkpt lat="42.54211" lon="2.02569">
        <ele>1908</ele>
        <time>2011-05-03T10:03:51Z</time>
      </trkpt>
      <trkpt lat="42.54208" lon="2.0255">
        <ele>1909</ele>
        <time>2011-05-03T10:04:04Z</time>
      </trkpt>
      <trkpt lat="42.54207" lon="2.02541">
        <ele>1910</ele>
        <time>2011-05-03T10:04:10Z</time>
      </trkpt>
      <trkpt lat="42.54204" lon="2.02524">
        <ele>1911</ele>
        <time>2011-05-03T10:04:28Z</time>
      </trkpt>
      <trkpt lat="42.54203" lon="2.02515">
        <ele>1911</ele>
        <time>2011-05-03T10:04:37Z</time>
      </trkpt>
      <trkpt lat="42.54202" lon="2.02497">
        <ele>1911</ele>
        <time>2011-05-03T10:04:52Z</time>
      </trkpt>
      <trkpt lat="42.54199" lon="2.0249">
        <ele>1912</ele>
        <time>2011-05-03T10:05:26Z</time>
      </trkpt>
      <trkpt lat="42.54201" lon="2.02481">
        <ele>1912</ele>
        <time>2011-05-03T10:05:37Z</time>
      </trkpt>
      <trkpt lat="42.542" lon="2.02472">
        <ele>1913</ele>
        <time>2011-05-03T10:05:46Z</time>
      </trkpt>
      <trkpt lat="42.54202" lon="2.02464">
        <ele>1914</ele>
        <time>2011-05-03T10:05:56Z</time>
      </trkpt>
      <trkpt lat="42.54202" lon="2.02455">
        <ele>1915</ele>
        <time>2011-05-03T10:06:07Z</time>
      </trkpt>
      <trkpt lat="42.54202" lon="2.02446">
        <ele>1915</ele>
        <time>2011-05-03T10:06:19Z</time>
      </trkpt>
      <trkpt lat="42.54202" lon="2.02428">
        <ele>1917</ele>
        <time>2011-05-03T10:06:51Z</time>
      </trkpt>
      <trkpt lat="42.54204" lon="2.02401">
        <ele>1917</ele>
        <time>2011-05-03T10:07:21Z</time>
      </trkpt>
      <trkpt lat="42.54206" lon="2.02393">
        <ele>1917</ele>
        <time>2011-05-03T10:07:31Z</time>
      </trkpt>
      <trkpt lat="42.54207" lon="2.02384">
        <ele>1917</ele>
        <time>2011-05-03T10:07:40Z</time>
      </trkpt>
      <trkpt lat="42.54213" lon="2.02359">
        <ele>1918</ele>
        <time>2011-05-03T10:08:25Z</time>
      </trkpt>
      <trkpt lat="42.54214" lon="2.02349">
        <ele>1919</ele>
        <time>2011-05-03T10:08:32Z</time>
      </trkpt>
      <trkpt lat="42.54215" lon="2.0234">
        <ele>1919</ele>
        <time>2011-05-03T10:08:38Z</time>
      </trkpt>
      <trkpt lat="42.54216" lon="2.02331">
        <ele>1920</ele>
        <time>2011-05-03T10:08:44Z</time>
      </trkpt>
      <trkpt lat="42.54217" lon="2.02321">
        <ele>1920</ele>
        <time>2011-05-03T10:08:53Z</time>
      </trkpt>
      <trkpt lat="42.54216" lon="2.02295">
        <ele>1923</ele>
        <time>2011-05-03T10:09:35Z</time>
      </trkpt>
      <trkpt lat="42.54219" lon="2.02287">
        <ele>1924</ele>
        <time>2011-05-03T10:09:52Z</time>
      </trkpt>
      <trkpt lat="42.54219" lon="2.02277">
        <ele>1925</ele>
        <time>2011-05-03T10:10:05Z</time>
      </trkpt>
      <trkpt lat="42.54222" lon="2.02259">
        <ele>1927</ele>
        <time>2011-05-03T10:10:34Z</time>
      </trkpt>
      <trkpt lat="42.54223" lon="2.02234">
        <ele>1929</ele>
        <time>2011-05-03T10:11:37Z</time>
      </trkpt>
      <trkpt lat="42.54221" lon="2.02226">
        <ele>1930</ele>
        <time>2011-05-03T10:12:05Z</time>
      </trkpt>
      <trkpt lat="42.54221" lon="2.02217">
        <ele>1930</ele>
        <time>2011-05-03T10:12:13Z</time>
      </trkpt>
      <trkpt lat="42.54221" lon="2.02209">
        <ele>1931</ele>
        <time>2011-05-03T10:12:30Z</time>
      </trkpt>
      <trkpt lat="42.54222" lon="2.022">
        <ele>1931</ele>
        <time>2011-05-03T10:12:42Z</time>
      </trkpt>
      <trkpt lat="42.54222" lon="2.02191">
        <ele>1932</ele>
        <time>2011-05-03T10:12:50Z</time>
      </trkpt>
      <trkpt lat="42.54222" lon="2.02182">
        <ele>1933</ele>
        <time>2011-05-03T10:13:00Z</time>
      </trkpt>
      <trkpt lat="42.54225" lon="2.02157">
        <ele>1936</ele>
        <time>2011-05-03T10:13:34Z</time>
      </trkpt>
      <trkpt lat="42.54221" lon="2.02151">
        <ele>1938</ele>
        <time>2011-05-03T10:14:11Z</time>
      </trkpt>
      <trkpt lat="42.54225" lon="2.02145">
        <ele>1939</ele>
        <time>2011-05-03T10:14:20Z</time>
      </trkpt>
      <trkpt lat="42.54229" lon="2.02138">
        <ele>1940</ele>
        <time>2011-05-03T10:14:29Z</time>
      </trkpt>
      <trkpt lat="42.54233" lon="2.02131">
        <ele>1941</ele>
        <time>2011-05-03T10:14:47Z</time>
      </trkpt>
      <trkpt lat="42.54236" lon="2.02123">
        <ele>1942</ele>
        <time>2011-05-03T10:14:56Z</time>
      </trkpt>
      <trkpt lat="42.54239" lon="2.02106">
        <ele>1945</ele>
        <time>2011-05-03T10:15:33Z</time>
      </trkpt>
      <trkpt lat="42.5424" lon="2.02098">
        <ele>1945</ele>
        <time>2011-05-03T10:15:47Z</time>
      </trkpt>
      <trkpt lat="42.54242" lon="2.02089">
        <ele>1946</ele>
        <time>2011-05-03T10:15:55Z</time>
      </trkpt>
      <trkpt lat="42.54244" lon="2.0208">
        <ele>1947</ele>
        <time>2011-05-03T10:16:03Z</time>
      </trkpt>
      <trkpt lat="42.54244" lon="2.02071">
        <ele>1948</ele>
        <time>2011-05-03T10:16:12Z</time>
      </trkpt>
      <trkpt lat="42.54242" lon="2.02063">
        <ele>1949</ele>
        <time>2011-05-03T10:16:22Z</time>
      </trkpt>
      <trkpt lat="42.54242" lon="2.02054">
        <ele>1950</ele>
        <time>2011-05-03T10:16:32Z</time>
      </trkpt>
      <trkpt lat="42.54242" lon="2.02045">
        <ele>1950</ele>
        <time>2011-05-03T10:16:41Z</time>
      </trkpt>
      <trkpt lat="42.54242" lon="2.02036">
        <ele>1951</ele>
        <time>2011-05-03T10:16:49Z</time>
      </trkpt>
      <trkpt lat="42.54243" lon="2.02027">
        <ele>1952</ele>
        <time>2011-05-03T10:16:59Z</time>
      </trkpt>
      <trkpt lat="42.54242" lon="2.02018">
        <ele>1953</ele>
        <time>2011-05-03T10:17:08Z</time>
      </trkpt>
      <trkpt lat="42.54244" lon="2.02009">
        <ele>1953</ele>
        <time>2011-05-03T10:17:21Z</time>
      </trkpt>
      <trkpt lat="42.54244" lon="2.02">
        <ele>1954</ele>
        <time>2011-05-03T10:17:30Z</time>
      </trkpt>
      <trkpt lat="42.54245" lon="2.0199">
        <ele>1954</ele>
        <time>2011-05-03T10:17:40Z</time>
      </trkpt>
      <trkpt lat="42.54247" lon="2.01982">
        <ele>1954</ele>
        <time>2011-05-03T10:17:48Z</time>
      </trkpt>
      <trkpt lat="42.54249" lon="2.01974">
        <ele>1955</ele>
        <time>2011-05-03T10:17:56Z</time>
      </trkpt>
      <trkpt lat="42.54252" lon="2.01965">
        <ele>1955</ele>
        <time>2011-05-03T10:18:04Z</time>
      </trkpt>
      <trkpt lat="42.54255" lon="2.01957">
        <ele>1956</ele>
        <time>2011-05-03T10:18:12Z</time>
      </trkpt>
      <trkpt lat="42.54261" lon="2.01931">
        <ele>1957</ele>
        <time>2011-05-03T10:18:40Z</time>
      </trkpt>
      <trkpt lat="42.54264" lon="2.01923">
        <ele>1957</ele>
        <time>2011-05-03T10:18:47Z</time>
      </trkpt>
      <trkpt lat="42.54267" lon="2.01915">
        <ele>1958</ele>
        <time>2011-05-03T10:18:55Z</time>
      </trkpt>
      <trkpt lat="42.54271" lon="2.01907">
        <ele>1958</ele>
        <time>2011-05-03T10:19:06Z</time>
      </trkpt>
      <trkpt lat="42.54274" lon="2.019">
        <ele>1958</ele>
        <time>2011-05-03T10:19:13Z</time>
      </trkpt>
      <trkpt lat="42.54282" lon="2.01875">
        <ele>1959</ele>
        <time>2011-05-03T10:19:35Z</time>
      </trkpt>
      <trkpt lat="42.54285" lon="2.01866">
        <ele>1959</ele>
        <time>2011-05-03T10:19:43Z</time>
      </trkpt>
      <trkpt lat="42.5429" lon="2.01849">
        <ele>1960</ele>
        <time>2011-05-03T10:19:57Z</time>
      </trkpt>
      <trkpt lat="42.5429" lon="2.01839">
        <ele>1960</ele>
        <time>2011-05-03T10:20:03Z</time>
      </trkpt>
      <trkpt lat="42.54291" lon="2.01831">
        <ele>1961</ele>
        <time>2011-05-03T10:20:09Z</time>
      </trkpt>
      <trkpt lat="42.54293" lon="2.01822">
        <ele>1961</ele>
        <time>2011-05-03T10:20:16Z</time>
      </trkpt>
      <trkpt lat="42.54295" lon="2.01805">
        <ele>1962</ele>
        <time>2011-05-03T10:20:31Z</time>
      </trkpt>
      <trkpt lat="42.54298" lon="2.01796">
        <ele>1962</ele>
        <time>2011-05-03T10:20:37Z</time>
      </trkpt>
      <trkpt lat="42.54299" lon="2.01788">
        <ele>1962</ele>
        <time>2011-05-03T10:20:43Z</time>
      </trkpt>
      <trkpt lat="42.543" lon="2.01778">
        <ele>1963</ele>
        <time>2011-05-03T10:20:50Z</time>
      </trkpt>
      <trkpt lat="42.543" lon="2.01768">
        <ele>1963</ele>
        <time>2011-05-03T10:20:57Z</time>
      </trkpt>
      <trkpt lat="42.54299" lon="2.0176">
        <ele>1963</ele>
        <time>2011-05-03T10:21:04Z</time>
      </trkpt>
      <trkpt lat="42.54299" lon="2.01751">
        <ele>1964</ele>
        <time>2011-05-03T10:21:15Z</time>
      </trkpt>
      <trkpt lat="42.54298" lon="2.01742">
        <ele>1964</ele>
        <time>2011-05-03T10:21:24Z</time>
      </trkpt>
      <trkpt lat="42.54296" lon="2.01734">
        <ele>1965</ele>
        <time>2011-05-03T10:21:39Z</time>
      </trkpt>
      <trkpt lat="42.54294" lon="2.01725">
        <ele>1966</ele>
        <time>2011-05-03T10:21:49Z</time>
      </trkpt>
      <trkpt lat="42.54291" lon="2.01717">
        <ele>1966</ele>
        <time>2011-05-03T10:22:01Z</time>
      </trkpt>
      <trkpt lat="42.54291" lon="2.01708">
        <ele>1966</ele>
        <time>2011-05-03T10:22:12Z</time>
      </trkpt>
      <trkpt lat="42.5429" lon="2.01699">
        <ele>1967</ele>
        <time>2011-05-03T10:22:23Z</time>
      </trkpt>
      <trkpt lat="42.54288" lon="2.01691">
        <ele>1968</ele>
        <time>2011-05-03T10:22:33Z</time>
      </trkpt>
      <trkpt lat="42.54288" lon="2.01682">
        <ele>1969</ele>
        <time>2011-05-03T10:22:46Z</time>
      </trkpt>
      <trkpt lat="42.54287" lon="2.01673">
        <ele>1970</ele>
        <time>2011-05-03T10:23:02Z</time>
      </trkpt>
      <trkpt lat="42.54289" lon="2.01655">
        <ele>1974</ele>
        <time>2011-05-03T10:24:19Z</time>
      </trkpt>
      <trkpt lat="42.54289" lon="2.01646">
        <ele>1975</ele>
        <time>2011-05-03T10:24:30Z</time>
      </trkpt>
      <trkpt lat="42.54287" lon="2.01637">
        <ele>1977</ele>
        <time>2011-05-03T10:24:51Z</time>
      </trkpt>
      <trkpt lat="42.54285" lon="2.01629">
        <ele>1978</ele>
        <time>2011-05-03T10:25:08Z</time>
      </trkpt>
      <trkpt lat="42.54285" lon="2.0162">
        <ele>1978</ele>
        <time>2011-05-03T10:25:22Z</time>
      </trkpt>
      <trkpt lat="42.54286" lon="2.01611">
        <ele>1979</ele>
        <time>2011-05-03T10:25:41Z</time>
      </trkpt>
      <trkpt lat="42.54289" lon="2.01603">
        <ele>1980</ele>
        <time>2011-05-03T10:26:00Z</time>
      </trkpt>
      <trkpt lat="42.54293" lon="2.01596">
        <ele>1980</ele>
        <time>2011-05-03T10:26:14Z</time>
      </trkpt>
      <trkpt lat="42.54295" lon="2.01588">
        <ele>1982</ele>
        <time>2011-05-03T10:26:30Z</time>
      </trkpt>
      <trkpt lat="42.54294" lon="2.0157">
        <ele>1986</ele>
        <time>2011-05-03T10:26:55Z</time>
      </trkpt>
      <trkpt lat="42.54294" lon="2.01552">
        <ele>1988</ele>
        <time>2011-05-03T10:27:16Z</time>
      </trkpt>
      <trkpt lat="42.54295" lon="2.01543">
        <ele>1989</ele>
        <time>2011-05-03T10:27:27Z</time>
      </trkpt>
      <trkpt lat="42.54301" lon="2.01517">
        <ele>1992</ele>
        <time>2011-05-03T10:28:04Z</time>
      </trkpt>
      <trkpt lat="42.54303" lon="2.01508">
        <ele>1993</ele>
        <time>2011-05-03T10:28:14Z</time>
      </trkpt>
      <trkpt lat="42.54305" lon="2.015">
        <ele>1994</ele>
        <time>2011-05-03T10:28:24Z</time>
      </trkpt>
      <trkpt lat="42.5431" lon="2.01493">
        <ele>1995</ele>
        <time>2011-05-03T10:28:35Z</time>
      </trkpt>
      <trkpt lat="42.54314" lon="2.01486">
        <ele>1996</ele>
        <time>2011-05-03T10:28:51Z</time>
      </trkpt>
      <trkpt lat="42.54316" lon="2.01478">
        <ele>1997</ele>
        <time>2011-05-03T10:29:03Z</time>
      </trkpt>
      <trkpt lat="42.54319" lon="2.0147">
        <ele>1998</ele>
        <time>2011-05-03T10:29:17Z</time>
      </trkpt>
      <trkpt lat="42.54321" lon="2.01462">
        <ele>1999</ele>
        <time>2011-05-03T10:29:30Z</time>
      </trkpt>
      <trkpt lat="42.54324" lon="2.01454">
        <ele>2000</ele>
        <time>2011-05-03T10:29:40Z</time>
      </trkpt>
      <trkpt lat="42.54326" lon="2.01446">
        <ele>2000</ele>
        <time>2011-05-03T10:30:11Z</time>
      </trkpt>
      <trkpt lat="42.54327" lon="2.01437">
        <ele>2001</ele>
        <time>2011-05-03T10:30:48Z</time>
      </trkpt>
      <trkpt lat="42.54329" lon="2.01429">
        <ele>2003</ele>
        <time>2011-05-03T10:31:00Z</time>
      </trkpt>
      <trkpt lat="42.54332" lon="2.01421">
        <ele>2005</ele>
        <time>2011-05-03T10:31:13Z</time>
      </trkpt>
      <trkpt lat="42.54335" lon="2.01413">
        <ele>2006</ele>
        <time>2011-05-03T10:31:30Z</time>
      </trkpt>
      <trkpt lat="42.54339" lon="2.01405">
        <ele>2007</ele>
        <time>2011-05-03T10:31:40Z</time>
      </trkpt>
      <trkpt lat="42.54344" lon="2.01399">
        <ele>2008</ele>
        <time>2011-05-03T10:31:48Z</time>
      </trkpt>
      <trkpt lat="42.54348" lon="2.01391">
        <ele>2009</ele>
        <time>2011-05-03T10:31:57Z</time>
      </trkpt>
      <trkpt lat="42.54353" lon="2.01385">
        <ele>2010</ele>
        <time>2011-05-03T10:32:11Z</time>
      </trkpt>
      <trkpt lat="42.54356" lon="2.01377">
        <ele>2011</ele>
        <time>2011-05-03T10:32:20Z</time>
      </trkpt>
      <trkpt lat="42.54358" lon="2.01369">
        <ele>2012</ele>
        <time>2011-05-03T10:32:29Z</time>
      </trkpt>
      <trkpt lat="42.54361" lon="2.01361">
        <ele>2012</ele>
        <time>2011-05-03T10:32:38Z</time>
      </trkpt>
      <trkpt lat="42.54365" lon="2.01354">
        <ele>2013</ele>
        <time>2011-05-03T10:32:46Z</time>
      </trkpt>
      <trkpt lat="42.54368" lon="2.01345">
        <ele>2014</ele>
        <time>2011-05-03T10:32:53Z</time>
      </trkpt>
      <trkpt lat="42.5437" lon="2.01336">
        <ele>2014</ele>
        <time>2011-05-03T10:33:01Z</time>
      </trkpt>
      <trkpt lat="42.54373" lon="2.01328">
        <ele>2015</ele>
        <time>2011-05-03T10:33:09Z</time>
      </trkpt>
      <trkpt lat="42.54376" lon="2.0132">
        <ele>2015</ele>
        <time>2011-05-03T10:33:16Z</time>
      </trkpt>
      <trkpt lat="42.54379" lon="2.01313">
        <ele>2016</ele>
        <time>2011-05-03T10:33:22Z</time>
      </trkpt>
      <trkpt lat="42.54382" lon="2.01305">
        <ele>2016</ele>
        <time>2011-05-03T10:33:28Z</time>
      </trkpt>
      <trkpt lat="42.54386" lon="2.01298">
        <ele>2017</ele>
        <time>2011-05-03T10:33:35Z</time>
      </trkpt>
      <trkpt lat="42.54391" lon="2.0129">
        <ele>2017</ele>
        <time>2011-05-03T10:33:43Z</time>
      </trkpt>
      <trkpt lat="42.54394" lon="2.01282">
        <ele>2018</ele>
        <time>2011-05-03T10:34:00Z</time>
      </trkpt>
      <trkpt lat="42.54395" lon="2.01273">
        <ele>2018</ele>
        <time>2011-05-03T10:34:08Z</time>
      </trkpt>
      <trkpt lat="42.54398" lon="2.01265">
        <ele>2018</ele>
        <time>2011-05-03T10:34:18Z</time>
      </trkpt>
      <trkpt lat="42.54402" lon="2.01259">
        <ele>2019</ele>
        <time>2011-05-03T10:34:34Z</time>
      </trkpt>
      <trkpt lat="42.54402" lon="2.01259">
        <ele>1962.9</ele>
        <time>2011-05-03T10:35:24Z</time>
      </trkpt>
      <trkpt lat="42.54402" lon="2.01259">
        <ele>1962.9</ele>
        <time>2011-05-03T10:52:57Z</time>
      </trkpt>
      <trkpt lat="42.54407" lon="2.0125">
        <ele>2017</ele>
        <time>2011-05-03T10:54:26Z</time>
      </trkpt>
      <trkpt lat="42.54409" lon="2.01242">
        <ele>2017</ele>
        <time>2011-05-03T10:54:39Z</time>
      </trkpt>
      <trkpt lat="42.54412" lon="2.01234">
        <ele>2017</ele>
        <time>2011-05-03T10:54:59Z</time>
      </trkpt>
      <trkpt lat="42.54416" lon="2.01227">
        <ele>2017</ele>
        <time>2011-05-03T10:55:13Z</time>
      </trkpt>
      <trkpt lat="42.54421" lon="2.01234">
        <ele>2017</ele>
        <time>2011-05-03T10:56:15Z</time>
      </trkpt>
      <trkpt lat="42.5442" lon="2.01243">
        <ele>2017</ele>
        <time>2011-05-03T10:56:22Z</time>
      </trkpt>
      <trkpt lat="42.54419" lon="2.01253">
        <ele>2017</ele>
        <time>2011-05-03T10:56:30Z</time>
      </trkpt>
      <trkpt lat="42.54418" lon="2.01262">
        <ele>2017</ele>
        <time>2011-05-03T10:56:55Z</time>
      </trkpt>
      <trkpt lat="42.54417" lon="2.01272">
        <ele>2017</ele>
        <time>2011-05-03T10:57:02Z</time>
      </trkpt>
      <trkpt lat="42.54417" lon="2.01281">
        <ele>2017</ele>
        <time>2011-05-03T10:57:09Z</time>
      </trkpt>
      <trkpt lat="42.54418" lon="2.0129">
        <ele>2017</ele>
        <time>2011-05-03T10:57:17Z</time>
      </trkpt>
      <trkpt lat="42.54421" lon="2.01299">
        <ele>2017</ele>
        <time>2011-05-03T10:57:24Z</time>
      </trkpt>
      <trkpt lat="42.54424" lon="2.01306">
        <ele>2018</ele>
        <time>2011-05-03T10:57:45Z</time>
      </trkpt>
      <trkpt lat="42.54428" lon="2.01314">
        <ele>2018</ele>
        <time>2011-05-03T10:58:00Z</time>
      </trkpt>
      <trkpt lat="42.54437" lon="2.01326">
        <ele>2018</ele>
        <time>2011-05-03T10:58:18Z</time>
      </trkpt>
      <trkpt lat="42.5444" lon="2.01334">
        <ele>2018</ele>
        <time>2011-05-03T10:58:25Z</time>
      </trkpt>
      <trkpt lat="42.54445" lon="2.0134">
        <ele>2018</ele>
        <time>2011-05-03T10:58:32Z</time>
      </trkpt>
      <trkpt lat="42.54449" lon="2.01347">
        <ele>2018</ele>
        <time>2011-05-03T10:58:39Z</time>
      </trkpt>
      <trkpt lat="42.54451" lon="2.01355">
        <ele>2018</ele>
        <time>2011-05-03T10:58:47Z</time>
      </trkpt>
      <trkpt lat="42.54453" lon="2.01364">
        <ele>2018</ele>
        <time>2011-05-03T10:58:59Z</time>
      </trkpt>
      <trkpt lat="42.54456" lon="2.01382">
        <ele>2018</ele>
        <time>2011-05-03T10:59:17Z</time>
      </trkpt>
      <trkpt lat="42.54461" lon="2.01399">
        <ele>2019</ele>
        <time>2011-05-03T10:59:33Z</time>
      </trkpt>
      <trkpt lat="42.54465" lon="2.01407">
        <ele>2019</ele>
        <time>2011-05-03T10:59:41Z</time>
      </trkpt>
      <trkpt lat="42.54466" lon="2.01416">
        <ele>2019</ele>
        <time>2011-05-03T10:59:51Z</time>
      </trkpt>
      <trkpt lat="42.54466" lon="2.01426">
        <ele>2019</ele>
        <time>2011-05-03T11:00:00Z</time>
      </trkpt>
      <trkpt lat="42.54471" lon="2.01432">
        <ele>2019</ele>
        <time>2011-05-03T11:00:16Z</time>
      </trkpt>
      <trkpt lat="42.54474" lon="2.01441">
        <ele>2019</ele>
        <time>2011-05-03T11:00:31Z</time>
      </trkpt>
      <trkpt lat="42.54475" lon="2.0145">
        <ele>2019</ele>
        <time>2011-05-03T11:00:38Z</time>
      </trkpt>
      <trkpt lat="42.54474" lon="2.01459">
        <ele>2019</ele>
        <time>2011-05-03T11:00:45Z</time>
      </trkpt>
      <trkpt lat="42.54474" lon="2.01469">
        <ele>2019</ele>
        <time>2011-05-03T11:00:53Z</time>
      </trkpt>
      <trkpt lat="42.54474" lon="2.01477">
        <ele>2019</ele>
        <time>2011-05-03T11:01:01Z</time>
      </trkpt>
      <trkpt lat="42.54474" lon="2.01487">
        <ele>2019</ele>
        <time>2011-05-03T11:01:10Z</time>
      </trkpt>
      <trkpt lat="42.54475" lon="2.01496">
        <ele>2019</ele>
        <time>2011-05-03T11:01:18Z</time>
      </trkpt>
      <trkpt lat="42.54476" lon="2.01504">
        <ele>2019</ele>
        <time>2011-05-03T11:01:25Z</time>
      </trkpt>
      <trkpt lat="42.54477" lon="2.01513">
        <ele>2018</ele>
        <time>2011-05-03T11:01:32Z</time>
      </trkpt>
      <trkpt lat="42.54477" lon="2.01522">
        <ele>2018</ele>
        <time>2011-05-03T11:01:39Z</time>
      </trkpt>
      <trkpt lat="42.54479" lon="2.01531">
        <ele>2018</ele>
        <time>2011-05-03T11:01:47Z</time>
      </trkpt>
      <trkpt lat="42.54482" lon="2.01539">
        <ele>2019</ele>
        <time>2011-05-03T11:01:55Z</time>
      </trkpt>
      <trkpt lat="42.54487" lon="2.01546">
        <ele>2019</ele>
        <time>2011-05-03T11:02:03Z</time>
      </trkpt>
      <trkpt lat="42.54491" lon="2.01552">
        <ele>2019</ele>
        <time>2011-05-03T11:02:09Z</time>
      </trkpt>
      <trkpt lat="42.54494" lon="2.0156">
        <ele>2018</ele>
        <time>2011-05-03T11:02:16Z</time>
      </trkpt>
      <trkpt lat="42.54496" lon="2.0157">
        <ele>2018</ele>
        <time>2011-05-03T11:02:25Z</time>
      </trkpt>
      <trkpt lat="42.54496" lon="2.01579">
        <ele>2018</ele>
        <time>2011-05-03T11:02:36Z</time>
      </trkpt>
      <trkpt lat="42.54499" lon="2.01587">
        <ele>2019</ele>
        <time>2011-05-03T11:02:47Z</time>
      </trkpt>
      <trkpt lat="42.54501" lon="2.01596">
        <ele>2019</ele>
        <time>2011-05-03T11:02:58Z</time>
      </trkpt>
      <trkpt lat="42.54503" lon="2.01604">
        <ele>2019</ele>
        <time>2011-05-03T11:03:12Z</time>
      </trkpt>
      <trkpt lat="42.54507" lon="2.01611">
        <ele>2019</ele>
        <time>2011-05-03T11:03:23Z</time>
      </trkpt>
      <trkpt lat="42.54509" lon="2.01619">
        <ele>2020</ele>
        <time>2011-05-03T11:03:34Z</time>
      </trkpt>
      <trkpt lat="42.54507" lon="2.01628">
        <ele>2020</ele>
        <time>2011-05-03T11:03:50Z</time>
      </trkpt>
      <trkpt lat="42.54508" lon="2.01637">
        <ele>2020</ele>
        <time>2011-05-03T11:04:02Z</time>
      </trkpt>
      <trkpt lat="42.54511" lon="2.01646">
        <ele>2020</ele>
        <time>2011-05-03T11:04:10Z</time>
      </trkpt>
      <trkpt lat="42.5451" lon="2.01655">
        <ele>2021</ele>
        <time>2011-05-03T11:04:18Z</time>
      </trkpt>
      <trkpt lat="42.54509" lon="2.01664">
        <ele>2021</ele>
        <time>2011-05-03T11:04:26Z</time>
      </trkpt>
      <trkpt lat="42.54509" lon="2.01682">
        <ele>2022</ele>
        <time>2011-05-03T11:04:44Z</time>
      </trkpt>
      <trkpt lat="42.54513" lon="2.01689">
        <ele>2022</ele>
        <time>2011-05-03T11:04:51Z</time>
      </trkpt>
      <trkpt lat="42.54518" lon="2.01697">
        <ele>2022</ele>
        <time>2011-05-03T11:04:57Z</time>
      </trkpt>
      <trkpt lat="42.54522" lon="2.01704">
        <ele>2022</ele>
        <time>2011-05-03T11:05:03Z</time>
      </trkpt>
      <trkpt lat="42.54527" lon="2.01711">
        <ele>2022</ele>
        <time>2011-05-03T11:05:13Z</time>
      </trkpt>
      <trkpt lat="42.54532" lon="2.01718">
        <ele>2022</ele>
        <time>2011-05-03T11:05:20Z</time>
      </trkpt>
      <trkpt lat="42.54537" lon="2.01724">
        <ele>2022</ele>
        <time>2011-05-03T11:05:26Z</time>
      </trkpt>
      <trkpt lat="42.54542" lon="2.0173">
        <ele>2023</ele>
        <time>2011-05-03T11:05:33Z</time>
      </trkpt>
      <trkpt lat="42.54546" lon="2.01737">
        <ele>2023</ele>
        <time>2011-05-03T11:05:40Z</time>
      </trkpt>
      <trkpt lat="42.54562" lon="2.01753">
        <ele>2023</ele>
        <time>2011-05-03T11:06:08Z</time>
      </trkpt>
      <trkpt lat="42.54565" lon="2.01761">
        <ele>2023</ele>
        <time>2011-05-03T11:06:17Z</time>
      </trkpt>
      <trkpt lat="42.54571" lon="2.01778">
        <ele>2023</ele>
        <time>2011-05-03T11:06:31Z</time>
      </trkpt>
      <trkpt lat="42.54572" lon="2.01787">
        <ele>2023</ele>
        <time>2011-05-03T11:06:38Z</time>
      </trkpt>
      <trkpt lat="42.54573" lon="2.01796">
        <ele>2023</ele>
        <time>2011-05-03T11:06:46Z</time>
      </trkpt>
      <trkpt lat="42.54576" lon="2.01815">
        <ele>2023</ele>
        <time>2011-05-03T11:07:02Z</time>
      </trkpt>
      <trkpt lat="42.54584" lon="2.01841">
        <ele>2023</ele>
        <time>2011-05-03T11:07:22Z</time>
      </trkpt>
      <trkpt lat="42.54585" lon="2.0185">
        <ele>2024</ele>
        <time>2011-05-03T11:07:30Z</time>
      </trkpt>
      <trkpt lat="42.54587" lon="2.01877">
        <ele>2024</ele>
        <time>2011-05-03T11:08:01Z</time>
      </trkpt>
      <trkpt lat="42.54588" lon="2.01887">
        <ele>2024</ele>
        <time>2011-05-03T11:08:09Z</time>
      </trkpt>
      <trkpt lat="42.54587" lon="2.01915">
        <ele>2024</ele>
        <time>2011-05-03T11:08:38Z</time>
      </trkpt>
      <trkpt lat="42.54585" lon="2.01923">
        <ele>2024</ele>
        <time>2011-05-03T11:08:45Z</time>
      </trkpt>
      <trkpt lat="42.54583" lon="2.01932">
        <ele>2024</ele>
        <time>2011-05-03T11:08:52Z</time>
      </trkpt>
      <trkpt lat="42.54579" lon="2.01939">
        <ele>2024</ele>
        <time>2011-05-03T11:08:59Z</time>
      </trkpt>
      <trkpt lat="42.5457" lon="2.01963">
        <ele>2024</ele>
        <time>2011-05-03T11:09:23Z</time>
      </trkpt>
      <trkpt lat="42.54573" lon="2.01971">
        <ele>2024</ele>
        <time>2011-05-03T11:09:31Z</time>
      </trkpt>
      <trkpt lat="42.54579" lon="2.01975">
        <ele>2025</ele>
        <time>2011-05-03T11:09:41Z</time>
      </trkpt>
      <trkpt lat="42.54584" lon="2.0198">
        <ele>2025</ele>
        <time>2011-05-03T11:09:54Z</time>
      </trkpt>
      <trkpt lat="42.5459" lon="2.01983">
        <ele>2024</ele>
        <time>2011-05-03T11:10:17Z</time>
      </trkpt>
      <trkpt lat="42.54595" lon="2.01988">
        <ele>2024</ele>
        <time>2011-05-03T11:10:26Z</time>
      </trkpt>
      <trkpt lat="42.546" lon="2.01995">
        <ele>2023</ele>
        <time>2011-05-03T11:10:38Z</time>
      </trkpt>
      <trkpt lat="42.54604" lon="2.02002">
        <ele>2023</ele>
        <time>2011-05-03T11:10:51Z</time>
      </trkpt>
      <trkpt lat="42.54614" lon="2.02014">
        <ele>2023</ele>
        <time>2011-05-03T11:11:18Z</time>
      </trkpt>
      <trkpt lat="42.5462" lon="2.02014">
        <ele>2023</ele>
        <time>2011-05-03T11:11:25Z</time>
      </trkpt>
      <trkpt lat="42.54626" lon="2.02017">
        <ele>2022</ele>
        <time>2011-05-03T11:11:38Z</time>
      </trkpt>
      <trkpt lat="42.54633" lon="2.02016">
        <ele>2022</ele>
        <time>2011-05-03T11:11:59Z</time>
      </trkpt>
      <trkpt lat="42.54638" lon="2.02011">
        <ele>2021</ele>
        <time>2011-05-03T11:12:13Z</time>
      </trkpt>
      <trkpt lat="42.54643" lon="2.02005">
        <ele>2021</ele>
        <time>2011-05-03T11:12:38Z</time>
      </trkpt>
      <trkpt lat="42.54649" lon="2.02005">
        <ele>2020</ele>
        <time>2011-05-03T11:13:22Z</time>
      </trkpt>
      <trkpt lat="42.5466" lon="2.02016">
        <ele>2019</ele>
        <time>2011-05-03T11:13:57Z</time>
      </trkpt>
      <trkpt lat="42.54674" lon="2.02033">
        <ele>2019</ele>
        <time>2011-05-03T11:14:48Z</time>
      </trkpt>
      <trkpt lat="42.5469" lon="2.02029">
        <ele>2016</ele>
        <time>2011-05-03T11:15:32Z</time>
      </trkpt>
      <trkpt lat="42.54695" lon="2.02025">
        <ele>2015</ele>
        <time>2011-05-03T11:15:56Z</time>
      </trkpt>
      <trkpt lat="42.54711" lon="2.02011">
        <ele>2012</ele>
        <time>2011-05-03T11:17:09Z</time>
      </trkpt>
      <trkpt lat="42.54717" lon="2.02009">
        <ele>2011</ele>
        <time>2011-05-03T11:17:21Z</time>
      </trkpt>
      <trkpt lat="42.54723" lon="2.02005">
        <ele>2011</ele>
        <time>2011-05-03T11:17:29Z</time>
      </trkpt>
      <trkpt lat="42.54725" lon="2.01997">
        <ele>2010</ele>
        <time>2011-05-03T11:17:37Z</time>
      </trkpt>
      <trkpt lat="42.54727" lon="2.0198">
        <ele>2009</ele>
        <time>2011-05-03T11:18:17Z</time>
      </trkpt>
      <trkpt lat="42.54721" lon="2.01975">
        <ele>2009</ele>
        <time>2011-05-03T11:18:25Z</time>
      </trkpt>
      <trkpt lat="42.54716" lon="2.01971">
        <ele>2008</ele>
        <time>2011-05-03T11:18:38Z</time>
      </trkpt>
      <trkpt lat="42.5471" lon="2.01955">
        <ele>2008</ele>
        <time>2011-05-03T11:19:06Z</time>
      </trkpt>
      <trkpt lat="42.54722" lon="2.0195">
        <ele>2006</ele>
        <time>2011-05-03T11:19:47Z</time>
      </trkpt>
      <trkpt lat="42.54728" lon="2.01951">
        <ele>2006</ele>
        <time>2011-05-03T11:20:01Z</time>
      </trkpt>
      <trkpt lat="42.54735" lon="2.01948">
        <ele>2006</ele>
        <time>2011-05-03T11:20:16Z</time>
      </trkpt>
      <trkpt lat="42.54741" lon="2.01946">
        <ele>2005</ele>
        <time>2011-05-03T11:20:34Z</time>
      </trkpt>
      <trkpt lat="42.54752" lon="2.01923">
        <ele>2003</ele>
        <time>2011-05-03T11:22:21Z</time>
      </trkpt>
      <trkpt lat="42.54758" lon="2.01916">
        <ele>2003</ele>
        <time>2011-05-03T11:22:27Z</time>
      </trkpt>
      <trkpt lat="42.54762" lon="2.01909">
        <ele>2003</ele>
        <time>2011-05-03T11:22:35Z</time>
      </trkpt>
      <trkpt lat="42.54767" lon="2.01904">
        <ele>2002</ele>
        <time>2011-05-03T11:22:49Z</time>
      </trkpt>
      <trkpt lat="42.54773" lon="2.01902">
        <ele>2001</ele>
        <time>2011-05-03T11:23:01Z</time>
      </trkpt>
      <trkpt lat="42.5478" lon="2.01902">
        <ele>2001</ele>
        <time>2011-05-03T11:23:12Z</time>
      </trkpt>
      <trkpt lat="42.54786" lon="2.01899">
        <ele>2000</ele>
        <time>2011-05-03T11:23:29Z</time>
      </trkpt>
      <trkpt lat="42.54793" lon="2.01902">
        <ele>2000</ele>
        <time>2011-05-03T11:23:43Z</time>
      </trkpt>
      <trkpt lat="42.54799" lon="2.01904">
        <ele>2000</ele>
        <time>2011-05-03T11:23:54Z</time>
      </trkpt>
      <trkpt lat="42.54806" lon="2.01906">
        <ele>2000</ele>
        <time>2011-05-03T11:24:02Z</time>
      </trkpt>
      <trkpt lat="42.54818" lon="2.01913">
        <ele>2001</ele>
        <time>2011-05-03T11:24:17Z</time>
      </trkpt>
      <trkpt lat="42.54824" lon="2.01916">
        <ele>2001</ele>
        <time>2011-05-03T11:24:23Z</time>
      </trkpt>
      <trkpt lat="42.54844" lon="2.01912">
        <ele>2001</ele>
        <time>2011-05-03T11:24:44Z</time>
      </trkpt>
      <trkpt lat="42.54851" lon="2.0191">
        <ele>2001</ele>
        <time>2011-05-03T11:24:53Z</time>
      </trkpt>
      <trkpt lat="42.54856" lon="2.01905">
        <ele>2001</ele>
        <time>2011-05-03T11:25:05Z</time>
      </trkpt>
      <trkpt lat="42.54861" lon="2.0189">
        <ele>2001</ele>
        <time>2011-05-03T11:25:27Z</time>
      </trkpt>
      <trkpt lat="42.54864" lon="2.01882">
        <ele>2000</ele>
        <time>2011-05-03T11:25:44Z</time>
      </trkpt>
      <trkpt lat="42.5487" lon="2.01877">
        <ele>2000</ele>
        <time>2011-05-03T11:25:55Z</time>
      </trkpt>
      <trkpt lat="42.54882" lon="2.01869">
        <ele>1999</ele>
        <time>2011-05-03T11:26:19Z</time>
      </trkpt>
      <trkpt lat="42.54888" lon="2.01868">
        <ele>1999</ele>
        <time>2011-05-03T11:26:26Z</time>
      </trkpt>
      <trkpt lat="42.54895" lon="2.01869">
        <ele>1999</ele>
        <time>2011-05-03T11:26:33Z</time>
      </trkpt>
      <trkpt lat="42.54901" lon="2.01872">
        <ele>1999</ele>
        <time>2011-05-03T11:26:43Z</time>
      </trkpt>
      <trkpt lat="42.54907" lon="2.01878">
        <ele>1999</ele>
        <time>2011-05-03T11:26:52Z</time>
      </trkpt>
      <trkpt lat="42.54908" lon="2.01887">
        <ele>1999</ele>
        <time>2011-05-03T11:27:22Z</time>
      </trkpt>
      <trkpt lat="42.54905" lon="2.01895">
        <ele>1999</ele>
        <time>2011-05-03T11:27:40Z</time>
      </trkpt>
      <trkpt lat="42.54906" lon="2.01911">
        <ele>1998</ele>
        <time>2011-05-03T11:27:58Z</time>
      </trkpt>
      <trkpt lat="42.54908" lon="2.01928">
        <ele>1998</ele>
        <time>2011-05-03T11:28:21Z</time>
      </trkpt>
      <trkpt lat="42.54904" lon="2.01954">
        <ele>1998</ele>
        <time>2011-05-03T11:29:02Z</time>
      </trkpt>
      <trkpt lat="42.54907" lon="2.01962">
        <ele>1997</ele>
        <time>2011-05-03T11:29:13Z</time>
      </trkpt>
      <trkpt lat="42.5491" lon="2.01969">
        <ele>1997</ele>
        <time>2011-05-03T11:29:40Z</time>
      </trkpt>
      <trkpt lat="42.54917" lon="2.01968">
        <ele>1997</ele>
        <time>2011-05-03T11:30:59Z</time>
      </trkpt>
      <trkpt lat="42.5491" lon="2.01991">
        <ele>1997</ele>
        <time>2011-05-03T11:32:17Z</time>
      </trkpt>
      <trkpt lat="42.54905" lon="2.02007">
        <ele>1997</ele>
        <time>2011-05-03T11:33:00Z</time>
      </trkpt>
      <trkpt lat="42.54915" lon="2.02013">
        <ele>1998</ele>
        <time>2011-05-03T11:33:51Z</time>
      </trkpt>
      <trkpt lat="42.54927" lon="2.0201">
        <ele>1999</ele>
        <time>2011-05-03T11:34:34Z</time>
      </trkpt>
      <trkpt lat="42.54934" lon="2.01995">
        <ele>2000</ele>
        <time>2011-05-03T11:35:18Z</time>
      </trkpt>
      <trkpt lat="42.5494" lon="2.0199">
        <ele>2001</ele>
        <time>2011-05-03T11:35:56Z</time>
      </trkpt>
      <trkpt lat="42.54946" lon="2.0199">
        <ele>2002</ele>
        <time>2011-05-03T11:36:26Z</time>
      </trkpt>
      <trkpt lat="42.54951" lon="2.01984">
        <ele>2003</ele>
        <time>2011-05-03T11:36:44Z</time>
      </trkpt>
      <trkpt lat="42.54957" lon="2.01981">
        <ele>2004</ele>
        <time>2011-05-03T11:36:51Z</time>
      </trkpt>
      <trkpt lat="42.54974" lon="2.0197">
        <ele>2006</ele>
        <time>2011-05-03T11:37:30Z</time>
      </trkpt>
      <trkpt lat="42.54976" lon="2.01961">
        <ele>2006</ele>
        <time>2011-05-03T11:38:00Z</time>
      </trkpt>
      <trkpt lat="42.54982" lon="2.01961">
        <ele>2007</ele>
        <time>2011-05-03T11:38:20Z</time>
      </trkpt>
      <trkpt lat="42.54986" lon="2.01954">
        <ele>2009</ele>
        <time>2011-05-03T11:38:39Z</time>
      </trkpt>
      <trkpt lat="42.54996" lon="2.01932">
        <ele>2010</ele>
        <time>2011-05-03T11:39:27Z</time>
      </trkpt>
      <trkpt lat="42.54998" lon="2.01916">
        <ele>2014</ele>
        <time>2011-05-03T11:41:04Z</time>
      </trkpt>
      <trkpt lat="42.55003" lon="2.0192">
        <ele>2016</ele>
        <time>2011-05-03T11:41:37Z</time>
      </trkpt>
      <trkpt lat="42.55015" lon="2.01922">
        <ele>2021</ele>
        <time>2011-05-03T11:42:20Z</time>
      </trkpt>
      <trkpt lat="42.55028" lon="2.01905">
        <ele>2025</ele>
        <time>2011-05-03T11:43:09Z</time>
      </trkpt>
      <trkpt lat="42.55032" lon="2.01898">
        <ele>2027</ele>
        <time>2011-05-03T11:43:23Z</time>
      </trkpt>
      <trkpt lat="42.55035" lon="2.0189">
        <ele>2029</ele>
        <time>2011-05-03T11:43:36Z</time>
      </trkpt>
      <trkpt lat="42.5504" lon="2.01885">
        <ele>2030</ele>
        <time>2011-05-03T11:43:49Z</time>
      </trkpt>
      <trkpt lat="42.55045" lon="2.01879">
        <ele>2032</ele>
        <time>2011-05-03T11:44:02Z</time>
      </trkpt>
      <trkpt lat="42.55055" lon="2.0187">
        <ele>2035</ele>
        <time>2011-05-03T11:44:55Z</time>
      </trkpt>
      <trkpt lat="42.55061" lon="2.01865">
        <ele>2037</ele>
        <time>2011-05-03T11:45:05Z</time>
      </trkpt>
      <trkpt lat="42.55066" lon="2.01859">
        <ele>2038</ele>
        <time>2011-05-03T11:45:16Z</time>
      </trkpt>
      <trkpt lat="42.55072" lon="2.01844">
        <ele>2040</ele>
        <time>2011-05-03T11:46:50Z</time>
      </trkpt>
      <trkpt lat="42.55073" lon="2.01835">
        <ele>2041</ele>
        <time>2011-05-03T11:47:11Z</time>
      </trkpt>
      <trkpt lat="42.55078" lon="2.01832">
        <ele>2042</ele>
        <time>2011-05-03T11:47:27Z</time>
      </trkpt>
      <trkpt lat="42.55082" lon="2.01825">
        <ele>2042</ele>
        <time>2011-05-03T11:47:55Z</time>
      </trkpt>
      <trkpt lat="42.55087" lon="2.01819">
        <ele>2044</ele>
        <time>2011-05-03T11:48:42Z</time>
      </trkpt>
      <trkpt lat="42.55093" lon="2.01815">
        <ele>2046</ele>
        <time>2011-05-03T11:48:53Z</time>
      </trkpt>
      <trkpt lat="42.55099" lon="2.0181">
        <ele>2048</ele>
        <time>2011-05-03T11:49:05Z</time>
      </trkpt>
      <trkpt lat="42.55109" lon="2.01793">
        <ele>2049</ele>
        <time>2011-05-03T11:50:41Z</time>
      </trkpt>
      <trkpt lat="42.55112" lon="2.01785">
        <ele>2049</ele>
        <time>2011-05-03T11:50:49Z</time>
      </trkpt>
      <trkpt lat="42.55117" lon="2.01779">
        <ele>2050</ele>
        <time>2011-05-03T11:50:57Z</time>
      </trkpt>
      <trkpt lat="42.55118" lon="2.0177">
        <ele>2051</ele>
        <time>2011-05-03T11:51:12Z</time>
      </trkpt>
      <trkpt lat="42.55118" lon="2.01761">
        <ele>2052</ele>
        <time>2011-05-03T11:51:39Z</time>
      </trkpt>
      <trkpt lat="42.55118" lon="2.01752">
        <ele>2052</ele>
        <time>2011-05-03T11:51:54Z</time>
      </trkpt>
      <trkpt lat="42.5512" lon="2.01743">
        <ele>2053</ele>
        <time>2011-05-03T11:52:11Z</time>
      </trkpt>
      <trkpt lat="42.55119" lon="2.01734">
        <ele>2054</ele>
        <time>2011-05-03T11:52:24Z</time>
      </trkpt>
      <trkpt lat="42.55121" lon="2.01726">
        <ele>2054</ele>
        <time>2011-05-03T11:52:44Z</time>
      </trkpt>
      <trkpt lat="42.55125" lon="2.01718">
        <ele>2055</ele>
        <time>2011-05-03T11:53:11Z</time>
      </trkpt>
      <trkpt lat="42.55126" lon="2.01701">
        <ele>2055</ele>
        <time>2011-05-03T11:53:56Z</time>
      </trkpt>
      <trkpt lat="42.55124" lon="2.01693">
        <ele>2055</ele>
        <time>2011-05-03T11:54:10Z</time>
      </trkpt>
      <trkpt lat="42.5513" lon="2.01676">
        <ele>2055</ele>
        <time>2011-05-03T11:54:46Z</time>
      </trkpt>
      <trkpt lat="42.5513" lon="2.0165">
        <ele>2055</ele>
        <time>2011-05-03T11:55:31Z</time>
      </trkpt>
      <trkpt lat="42.55128" lon="2.01642">
        <ele>2055</ele>
        <time>2011-05-03T11:55:46Z</time>
      </trkpt>
      <trkpt lat="42.55129" lon="2.01633">
        <ele>2055</ele>
        <time>2011-05-03T11:55:56Z</time>
      </trkpt>
      <trkpt lat="42.55132" lon="2.01624">
        <ele>2055</ele>
        <time>2011-05-03T11:56:03Z</time>
      </trkpt>
      <trkpt lat="42.55135" lon="2.01616">
        <ele>2055</ele>
        <time>2011-05-03T11:56:12Z</time>
      </trkpt>
      <trkpt lat="42.55142" lon="2.01602">
        <ele>2055</ele>
        <time>2011-05-03T11:57:00Z</time>
      </trkpt>
      <trkpt lat="42.55144" lon="2.01593">
        <ele>2055</ele>
        <time>2011-05-03T11:57:15Z</time>
      </trkpt>
      <trkpt lat="42.55148" lon="2.01587">
        <ele>2055</ele>
        <time>2011-05-03T11:57:36Z</time>
      </trkpt>
      <trkpt lat="42.55149" lon="2.01578">
        <ele>2055</ele>
        <time>2011-05-03T11:57:54Z</time>
      </trkpt>
      <trkpt lat="42.55149" lon="2.01569">
        <ele>2055</ele>
        <time>2011-05-03T11:58:13Z</time>
      </trkpt>
      <trkpt lat="42.55146" lon="2.0156">
        <ele>2054</ele>
        <time>2011-05-03T11:58:41Z</time>
      </trkpt>
      <trkpt lat="42.55149" lon="2.01552">
        <ele>2055</ele>
        <time>2011-05-03T11:59:29Z</time>
      </trkpt>
      <trkpt lat="42.55149" lon="2.01544">
        <ele>2055</ele>
        <time>2011-05-03T12:00:21Z</time>
      </trkpt>
      <trkpt lat="42.55155" lon="2.01538">
        <ele>2055</ele>
        <time>2011-05-03T12:00:51Z</time>
      </trkpt>
      <trkpt lat="42.55159" lon="2.01533">
        <ele>2055</ele>
        <time>2011-05-03T12:01:02Z</time>
      </trkpt>
      <trkpt lat="42.55166" lon="2.01509">
        <ele>2055</ele>
        <time>2011-05-03T12:04:00Z</time>
      </trkpt>
      <trkpt lat="42.55175" lon="2.01498">
        <ele>2056</ele>
        <time>2011-05-03T12:04:28Z</time>
      </trkpt>
      <trkpt lat="42.55181" lon="2.01494">
        <ele>2056</ele>
        <time>2011-05-03T12:04:43Z</time>
      </trkpt>
      <trkpt lat="42.55185" lon="2.01487">
        <ele>2056</ele>
        <time>2011-05-03T12:05:16Z</time>
      </trkpt>
      <trkpt lat="42.55191" lon="2.01485">
        <ele>2056</ele>
        <time>2011-05-03T12:05:32Z</time>
      </trkpt>
      <trkpt lat="42.55198" lon="2.01482">
        <ele>2057</ele>
        <time>2011-05-03T12:05:43Z</time>
      </trkpt>
      <trkpt lat="42.55203" lon="2.01477">
        <ele>2057</ele>
        <time>2011-05-03T12:05:56Z</time>
      </trkpt>
      <trkpt lat="42.55214" lon="2.01467">
        <ele>2058</ele>
        <time>2011-05-03T12:06:14Z</time>
      </trkpt>
      <trkpt lat="42.5522" lon="2.01463">
        <ele>2058</ele>
        <time>2011-05-03T12:06:24Z</time>
      </trkpt>
      <trkpt lat="42.55226" lon="2.01459">
        <ele>2058</ele>
        <time>2011-05-03T12:06:36Z</time>
      </trkpt>
      <trkpt lat="42.55231" lon="2.01454">
        <ele>2059</ele>
        <time>2011-05-03T12:06:43Z</time>
      </trkpt>
      <trkpt lat="42.55238" lon="2.01451">
        <ele>2059</ele>
        <time>2011-05-03T12:06:50Z</time>
      </trkpt>
      <trkpt lat="42.55243" lon="2.01446">
        <ele>2059</ele>
        <time>2011-05-03T12:07:01Z</time>
      </trkpt>
      <trkpt lat="42.55248" lon="2.0144">
        <ele>2060</ele>
        <time>2011-05-03T12:07:09Z</time>
      </trkpt>
      <trkpt lat="42.55253" lon="2.01433">
        <ele>2060</ele>
        <time>2011-05-03T12:07:23Z</time>
      </trkpt>
      <trkpt lat="42.55258" lon="2.01428">
        <ele>2061</ele>
        <time>2011-05-03T12:07:46Z</time>
      </trkpt>
      <trkpt lat="42.55259" lon="2.0142">
        <ele>2061</ele>
        <time>2011-05-03T12:08:11Z</time>
      </trkpt>
      <trkpt lat="42.55263" lon="2.01413">
        <ele>2061</ele>
        <time>2011-05-03T12:08:32Z</time>
      </trkpt>
      <trkpt lat="42.55261" lon="2.01396">
        <ele>2063</ele>
        <time>2011-05-03T12:09:47Z</time>
      </trkpt>
      <trkpt lat="42.55263" lon="2.01388">
        <ele>2064</ele>
        <time>2011-05-03T12:10:05Z</time>
      </trkpt>
      <trkpt lat="42.55276" lon="2.01367">
        <ele>2065</ele>
        <time>2011-05-03T12:10:49Z</time>
      </trkpt>
      <trkpt lat="42.55281" lon="2.01361">
        <ele>2065</ele>
        <time>2011-05-03T12:11:00Z</time>
      </trkpt>
      <trkpt lat="42.55287" lon="2.01357">
        <ele>2066</ele>
        <time>2011-05-03T12:11:08Z</time>
      </trkpt>
      <trkpt lat="42.55293" lon="2.01353">
        <ele>2066</ele>
        <time>2011-05-03T12:11:48Z</time>
      </trkpt>
      <trkpt lat="42.55292" lon="2.01344">
        <ele>2066</ele>
        <time>2011-05-03T12:12:03Z</time>
      </trkpt>
      <trkpt lat="42.55294" lon="2.01334">
        <ele>2067</ele>
        <time>2011-05-03T12:12:10Z</time>
      </trkpt>
      <trkpt lat="42.55295" lon="2.01325">
        <ele>2067</ele>
        <time>2011-05-03T12:12:17Z</time>
      </trkpt>
      <trkpt lat="42.55294" lon="2.01316">
        <ele>2068</ele>
        <time>2011-05-03T12:12:23Z</time>
      </trkpt>
      <trkpt lat="42.55294" lon="2.01307">
        <ele>2068</ele>
        <time>2011-05-03T12:12:29Z</time>
      </trkpt>
      <trkpt lat="42.55294" lon="2.01298">
        <ele>2069</ele>
        <time>2011-05-03T12:12:36Z</time>
      </trkpt>
      <trkpt lat="42.55293" lon="2.01288">
        <ele>2069</ele>
        <time>2011-05-03T12:12:43Z</time>
      </trkpt>
      <trkpt lat="42.55295" lon="2.0127">
        <ele>2070</ele>
        <time>2011-05-03T12:12:57Z</time>
      </trkpt>
      <trkpt lat="42.55298" lon="2.01262">
        <ele>2070</ele>
        <time>2011-05-03T12:13:03Z</time>
      </trkpt>
      <trkpt lat="42.55299" lon="2.01253">
        <ele>2071</ele>
        <time>2011-05-03T12:13:10Z</time>
      </trkpt>
      <trkpt lat="42.553" lon="2.01243">
        <ele>2072</ele>
        <time>2011-05-03T12:13:33Z</time>
      </trkpt>
      <trkpt lat="42.55299" lon="2.01234">
        <ele>2072</ele>
        <time>2011-05-03T12:13:41Z</time>
      </trkpt>
      <trkpt lat="42.553" lon="2.01225">
        <ele>2072</ele>
        <time>2011-05-03T12:13:49Z</time>
      </trkpt>
      <trkpt lat="42.55301" lon="2.01216">
        <ele>2073</ele>
        <time>2011-05-03T12:13:58Z</time>
      </trkpt>
      <trkpt lat="42.55301" lon="2.01207">
        <ele>2073</ele>
        <time>2011-05-03T12:14:06Z</time>
      </trkpt>
      <trkpt lat="42.55303" lon="2.01198">
        <ele>2074</ele>
        <time>2011-05-03T12:14:13Z</time>
      </trkpt>
      <trkpt lat="42.55303" lon="2.01189">
        <ele>2074</ele>
        <time>2011-05-03T12:14:21Z</time>
      </trkpt>
      <trkpt lat="42.55303" lon="2.0118">
        <ele>2074</ele>
        <time>2011-05-03T12:14:30Z</time>
      </trkpt>
      <trkpt lat="42.55302" lon="2.01171">
        <ele>2075</ele>
        <time>2011-05-03T12:14:38Z</time>
      </trkpt>
      <trkpt lat="42.55303" lon="2.01162">
        <ele>2075</ele>
        <time>2011-05-03T12:14:46Z</time>
      </trkpt>
      <trkpt lat="42.55303" lon="2.01154">
        <ele>2075</ele>
        <time>2011-05-03T12:14:55Z</time>
      </trkpt>
      <trkpt lat="42.55305" lon="2.01136">
        <ele>2076</ele>
        <time>2011-05-03T12:15:10Z</time>
      </trkpt>
      <trkpt lat="42.55307" lon="2.01127">
        <ele>2076</ele>
        <time>2011-05-03T12:15:18Z</time>
      </trkpt>
      <trkpt lat="42.55308" lon="2.01119">
        <ele>2077</ele>
        <time>2011-05-03T12:15:43Z</time>
      </trkpt>
      <trkpt lat="42.55314" lon="2.01116">
        <ele>2077</ele>
        <time>2011-05-03T12:15:56Z</time>
      </trkpt>
      <trkpt lat="42.5532" lon="2.01115">
        <ele>2077</ele>
        <time>2011-05-03T12:16:03Z</time>
      </trkpt>
      <trkpt lat="42.55325" lon="2.01108">
        <ele>2078</ele>
        <time>2011-05-03T12:16:12Z</time>
      </trkpt>
      <trkpt lat="42.55332" lon="2.01092">
        <ele>2079</ele>
        <time>2011-05-03T12:16:29Z</time>
      </trkpt>
      <trkpt lat="42.55336" lon="2.01085">
        <ele>2080</ele>
        <time>2011-05-03T12:16:36Z</time>
      </trkpt>
      <trkpt lat="42.55346" lon="2.01073">
        <ele>2081</ele>
        <time>2011-05-03T12:16:54Z</time>
      </trkpt>
      <trkpt lat="42.55354" lon="2.01059">
        <ele>2081</ele>
        <time>2011-05-03T12:17:12Z</time>
      </trkpt>
      <trkpt lat="42.5536" lon="2.01055">
        <ele>2081</ele>
        <time>2011-05-03T12:17:19Z</time>
      </trkpt>
      <trkpt lat="42.55367" lon="2.01053">
        <ele>2081</ele>
        <time>2011-05-03T12:17:26Z</time>
      </trkpt>
      <trkpt lat="42.55373" lon="2.01052">
        <ele>2080</ele>
        <time>2011-05-03T12:18:25Z</time>
      </trkpt>
      <trkpt lat="42.5538" lon="2.01051">
        <ele>2080</ele>
        <time>2011-05-03T12:18:45Z</time>
      </trkpt>
      <trkpt lat="42.55394" lon="2.01032">
        <ele>2079</ele>
        <time>2011-05-03T12:19:27Z</time>
      </trkpt>
      <trkpt lat="42.55401" lon="2.0103">
        <ele>2079</ele>
        <time>2011-05-03T12:19:36Z</time>
      </trkpt>
      <trkpt lat="42.55407" lon="2.01027">
        <ele>2079</ele>
        <time>2011-05-03T12:19:44Z</time>
      </trkpt>
      <trkpt lat="42.55415" lon="2.01013">
        <ele>2079</ele>
        <time>2011-05-03T12:20:03Z</time>
      </trkpt>
      <trkpt lat="42.55419" lon="2.01006">
        <ele>2079</ele>
        <time>2011-05-03T12:20:17Z</time>
      </trkpt>
      <trkpt lat="42.5543" lon="2.00983">
        <ele>2079</ele>
        <time>2011-05-03T12:20:50Z</time>
      </trkpt>
      <trkpt lat="42.55434" lon="2.00976">
        <ele>2079</ele>
        <time>2011-05-03T12:20:57Z</time>
      </trkpt>
      <trkpt lat="42.55437" lon="2.00968">
        <ele>2079</ele>
        <time>2011-05-03T12:21:09Z</time>
      </trkpt>
      <trkpt lat="42.55441" lon="2.00961">
        <ele>2079</ele>
        <time>2011-05-03T12:21:16Z</time>
      </trkpt>
      <trkpt lat="42.55459" lon="2.00958">
        <ele>2078</ele>
        <time>2011-05-03T12:21:42Z</time>
      </trkpt>
      <trkpt lat="42.55466" lon="2.00962">
        <ele>2078</ele>
        <time>2011-05-03T12:21:47Z</time>
      </trkpt>
      <trkpt lat="42.55472" lon="2.00964">
        <ele>2077</ele>
        <time>2011-05-03T12:21:52Z</time>
      </trkpt>
      <trkpt lat="42.55478" lon="2.00966">
        <ele>2077</ele>
        <time>2011-05-03T12:21:58Z</time>
      </trkpt>
      <trkpt lat="42.55488" lon="2.00957">
        <ele>2076</ele>
        <time>2011-05-03T12:22:19Z</time>
      </trkpt>
      <trkpt lat="42.55493" lon="2.00951">
        <ele>2076</ele>
        <time>2011-05-03T12:22:29Z</time>
      </trkpt>
      <trkpt lat="42.55499" lon="2.00945">
        <ele>2075</ele>
        <time>2011-05-03T12:22:41Z</time>
      </trkpt>
      <trkpt lat="42.55505" lon="2.00941">
        <ele>2075</ele>
        <time>2011-05-03T12:22:49Z</time>
      </trkpt>
      <trkpt lat="42.55512" lon="2.00938">
        <ele>2074</ele>
        <time>2011-05-03T12:22:59Z</time>
      </trkpt>
      <trkpt lat="42.55518" lon="2.00936">
        <ele>2073</ele>
        <time>2011-05-03T12:23:08Z</time>
      </trkpt>
      <trkpt lat="42.55525" lon="2.00935">
        <ele>2073</ele>
        <time>2011-05-03T12:23:18Z</time>
      </trkpt>
      <trkpt lat="42.5553" lon="2.00929">
        <ele>2073</ele>
        <time>2011-05-03T12:23:27Z</time>
      </trkpt>
      <trkpt lat="42.55535" lon="2.00921">
        <ele>2072</ele>
        <time>2011-05-03T12:23:34Z</time>
      </trkpt>
      <trkpt lat="42.55539" lon="2.00913">
        <ele>2072</ele>
        <time>2011-05-03T12:23:40Z</time>
      </trkpt>
      <trkpt lat="42.55543" lon="2.00905">
        <ele>2072</ele>
        <time>2011-05-03T12:23:46Z</time>
      </trkpt>
      <trkpt lat="42.55547" lon="2.00898">
        <ele>2072</ele>
        <time>2011-05-03T12:23:52Z</time>
      </trkpt>
      <trkpt lat="42.55557" lon="2.00874">
        <ele>2071</ele>
        <time>2011-05-03T12:24:10Z</time>
      </trkpt>
      <trkpt lat="42.5556" lon="2.00866">
        <ele>2071</ele>
        <time>2011-05-03T12:24:16Z</time>
      </trkpt>
      <trkpt lat="42.55562" lon="2.00856">
        <ele>2071</ele>
        <time>2011-05-03T12:24:22Z</time>
      </trkpt>
      <trkpt lat="42.55564" lon="2.00847">
        <ele>2071</ele>
        <time>2011-05-03T12:24:29Z</time>
      </trkpt>
      <trkpt lat="42.55569" lon="2.0084">
        <ele>2071</ele>
        <time>2011-05-03T12:24:37Z</time>
      </trkpt>
      <trkpt lat="42.55575" lon="2.00824">
        <ele>2070</ele>
        <time>2011-05-03T12:24:51Z</time>
      </trkpt>
      <trkpt lat="42.55577" lon="2.00816">
        <ele>2070</ele>
        <time>2011-05-03T12:24:57Z</time>
      </trkpt>
      <trkpt lat="42.55581" lon="2.00807">
        <ele>2070</ele>
        <time>2011-05-03T12:25:04Z</time>
      </trkpt>
      <trkpt lat="42.55585" lon="2.008">
        <ele>2070</ele>
        <time>2011-05-03T12:25:11Z</time>
      </trkpt>
      <trkpt lat="42.55592" lon="2.00797">
        <ele>2069</ele>
        <time>2011-05-03T12:25:18Z</time>
      </trkpt>
      <trkpt lat="42.55599" lon="2.00795">
        <ele>2069</ele>
        <time>2011-05-03T12:25:25Z</time>
      </trkpt>
      <trkpt lat="42.55612" lon="2.00794">
        <ele>2069</ele>
        <time>2011-05-03T12:25:43Z</time>
      </trkpt>
      <trkpt lat="42.55621" lon="2.00782">
        <ele>2068</ele>
        <time>2011-05-03T12:26:03Z</time>
      </trkpt>
      <trkpt lat="42.55623" lon="2.00772">
        <ele>2068</ele>
        <time>2011-05-03T12:26:08Z</time>
      </trkpt>
      <trkpt lat="42.55623" lon="2.00763">
        <ele>2068</ele>
        <time>2011-05-03T12:26:13Z</time>
      </trkpt>
      <trkpt lat="42.55623" lon="2.00754">
        <ele>2067</ele>
        <time>2011-05-03T12:26:19Z</time>
      </trkpt>
      <trkpt lat="42.55623" lon="2.00745">
        <ele>2067</ele>
        <time>2011-05-03T12:26:26Z</time>
      </trkpt>
      <trkpt lat="42.55627" lon="2.00728">
        <ele>2065</ele>
        <time>2011-05-03T12:26:45Z</time>
      </trkpt>
      <trkpt lat="42.55632" lon="2.00723">
        <ele>2065</ele>
        <time>2011-05-03T12:26:54Z</time>
      </trkpt>
      <trkpt lat="42.55639" lon="2.0072">
        <ele>2064</ele>
        <time>2011-05-03T12:27:00Z</time>
      </trkpt>
      <trkpt lat="42.55646" lon="2.00718">
        <ele>2064</ele>
        <time>2011-05-03T12:27:06Z</time>
      </trkpt>
      <trkpt lat="42.55653" lon="2.00716">
        <ele>2064</ele>
        <time>2011-05-03T12:27:13Z</time>
      </trkpt>
      <trkpt lat="42.55671" lon="2.00727">
        <ele>2062</ele>
        <time>2011-05-03T12:27:41Z</time>
      </trkpt>
      <trkpt lat="42.55676" lon="2.00732">
        <ele>2062</ele>
        <time>2011-05-03T12:27:52Z</time>
      </trkpt>
      <trkpt lat="42.55679" lon="2.00741">
        <ele>2061</ele>
        <time>2011-05-03T12:28:03Z</time>
      </trkpt>
      <trkpt lat="42.55678" lon="2.00751">
        <ele>2061</ele>
        <time>2011-05-03T12:28:11Z</time>
      </trkpt>
      <trkpt lat="42.55678" lon="2.00761">
        <ele>2061</ele>
        <time>2011-05-03T12:28:18Z</time>
      </trkpt>
      <trkpt lat="42.55678" lon="2.0077">
        <ele>2061</ele>
        <time>2011-05-03T12:28:25Z</time>
      </trkpt>
      <trkpt lat="42.55679" lon="2.00778">
        <ele>2061</ele>
        <time>2011-05-03T12:28:32Z</time>
      </trkpt>
      <trkpt lat="42.55684" lon="2.00785">
        <ele>2060</ele>
        <time>2011-05-03T12:28:38Z</time>
      </trkpt>
      <trkpt lat="42.55691" lon="2.00786">
        <ele>2060</ele>
        <time>2011-05-03T12:28:43Z</time>
      </trkpt>
      <trkpt lat="42.55697" lon="2.00782">
        <ele>2060</ele>
        <time>2011-05-03T12:28:49Z</time>
      </trkpt>
      <trkpt lat="42.55701" lon="2.00775">
        <ele>2059</ele>
        <time>2011-05-03T12:28:55Z</time>
      </trkpt>
      <trkpt lat="42.55704" lon="2.00767">
        <ele>2059</ele>
        <time>2011-05-03T12:29:01Z</time>
      </trkpt>
      <trkpt lat="42.55707" lon="2.00758">
        <ele>2058</ele>
        <time>2011-05-03T12:29:08Z</time>
      </trkpt>
      <trkpt lat="42.55711" lon="2.0074">
        <ele>2057</ele>
        <time>2011-05-03T12:29:18Z</time>
      </trkpt>
      <trkpt lat="42.55712" lon="2.00731">
        <ele>2056</ele>
        <time>2011-05-03T12:29:23Z</time>
      </trkpt>
      <trkpt lat="42.55712" lon="2.00722">
        <ele>2056</ele>
        <time>2011-05-03T12:29:28Z</time>
      </trkpt>
      <trkpt lat="42.55711" lon="2.00712">
        <ele>2055</ele>
        <time>2011-05-03T12:29:34Z</time>
      </trkpt>
      <trkpt lat="42.55709" lon="2.00704">
        <ele>2054</ele>
        <time>2011-05-03T12:29:40Z</time>
      </trkpt>
      <trkpt lat="42.55707" lon="2.00695">
        <ele>2054</ele>
        <time>2011-05-03T12:29:46Z</time>
      </trkpt>
      <trkpt lat="42.55705" lon="2.00686">
        <ele>2053</ele>
        <time>2011-05-03T12:29:52Z</time>
      </trkpt>
      <trkpt lat="42.55707" lon="2.00678">
        <ele>2052</ele>
        <time>2011-05-03T12:30:09Z</time>
      </trkpt>
      <trkpt lat="42.55709" lon="2.0067">
        <ele>2051</ele>
        <time>2011-05-03T12:30:16Z</time>
      </trkpt>
      <trkpt lat="42.55715" lon="2.00653">
        <ele>2050</ele>
        <time>2011-05-03T12:30:32Z</time>
      </trkpt>
      <trkpt lat="42.5572" lon="2.00637">
        <ele>2050</ele>
        <time>2011-05-03T12:30:45Z</time>
      </trkpt>
      <trkpt lat="42.55722" lon="2.00628">
        <ele>2050</ele>
        <time>2011-05-03T12:30:51Z</time>
      </trkpt>
      <trkpt lat="42.55724" lon="2.0062">
        <ele>2050</ele>
        <time>2011-05-03T12:30:57Z</time>
      </trkpt>
      <trkpt lat="42.55727" lon="2.00612">
        <ele>2050</ele>
        <time>2011-05-03T12:31:03Z</time>
      </trkpt>
      <trkpt lat="42.55729" lon="2.00604">
        <ele>2050</ele>
        <time>2011-05-03T12:31:09Z</time>
      </trkpt>
      <trkpt lat="42.55736" lon="2.00588">
        <ele>2050</ele>
        <time>2011-05-03T12:31:22Z</time>
      </trkpt>
      <trkpt lat="42.5574" lon="2.0058">
        <ele>2050</ele>
        <time>2011-05-03T12:31:29Z</time>
      </trkpt>
      <trkpt lat="42.55753" lon="2.0056">
        <ele>2050</ele>
        <time>2011-05-03T12:31:49Z</time>
      </trkpt>
      <trkpt lat="42.55759" lon="2.00554">
        <ele>2051</ele>
        <time>2011-05-03T12:31:55Z</time>
      </trkpt>
      <trkpt lat="42.55768" lon="2.00542">
        <ele>2051</ele>
        <time>2011-05-03T12:32:07Z</time>
      </trkpt>
      <trkpt lat="42.55774" lon="2.00525">
        <ele>2051</ele>
        <time>2011-05-03T12:32:20Z</time>
      </trkpt>
      <trkpt lat="42.55773" lon="2.00517">
        <ele>2052</ele>
        <time>2011-05-03T12:32:55Z</time>
      </trkpt>
      <trkpt lat="42.55775" lon="2.00508">
        <ele>2052</ele>
        <time>2011-05-03T12:33:02Z</time>
      </trkpt>
      <trkpt lat="42.55788" lon="2.00487">
        <ele>2052</ele>
        <time>2011-05-03T12:33:25Z</time>
      </trkpt>
      <trkpt lat="42.55795" lon="2.00483">
        <ele>2053</ele>
        <time>2011-05-03T12:33:33Z</time>
      </trkpt>
      <trkpt lat="42.55801" lon="2.00478">
        <ele>2053</ele>
        <time>2011-05-03T12:33:40Z</time>
      </trkpt>
      <trkpt lat="42.55807" lon="2.00472">
        <ele>2053</ele>
        <time>2011-05-03T12:33:46Z</time>
      </trkpt>
      <trkpt lat="42.55812" lon="2.00465">
        <ele>2054</ele>
        <time>2011-05-03T12:33:53Z</time>
      </trkpt>
      <trkpt lat="42.55817" lon="2.00459">
        <ele>2054</ele>
        <time>2011-05-03T12:34:00Z</time>
      </trkpt>
      <trkpt lat="42.55822" lon="2.00453">
        <ele>2054</ele>
        <time>2011-05-03T12:34:07Z</time>
      </trkpt>
      <trkpt lat="42.55833" lon="2.00443">
        <ele>2055</ele>
        <time>2011-05-03T12:34:21Z</time>
      </trkpt>
      <trkpt lat="42.55839" lon="2.00437">
        <ele>2055</ele>
        <time>2011-05-03T12:34:28Z</time>
      </trkpt>
      <trkpt lat="42.55844" lon="2.00431">
        <ele>2055</ele>
        <time>2011-05-03T12:34:51Z</time>
      </trkpt>
      <trkpt lat="42.55848" lon="2.00424">
        <ele>2056</ele>
        <time>2011-05-03T12:34:58Z</time>
      </trkpt>
      <trkpt lat="42.55851" lon="2.00417">
        <ele>2056</ele>
        <time>2011-05-03T12:35:04Z</time>
      </trkpt>
      <trkpt lat="42.55854" lon="2.00407">
        <ele>2056</ele>
        <time>2011-05-03T12:35:11Z</time>
      </trkpt>
      <trkpt lat="42.55857" lon="2.00399">
        <ele>2056</ele>
        <time>2011-05-03T12:35:18Z</time>
      </trkpt>
      <trkpt lat="42.5586" lon="2.00391">
        <ele>2056</ele>
        <time>2011-05-03T12:35:25Z</time>
      </trkpt>
      <trkpt lat="42.55865" lon="2.00383">
        <ele>2056</ele>
        <time>2011-05-03T12:35:32Z</time>
      </trkpt>
      <trkpt lat="42.55871" lon="2.00378">
        <ele>2056</ele>
        <time>2011-05-03T12:35:38Z</time>
      </trkpt>
      <trkpt lat="42.55875" lon="2.00372">
        <ele>2056</ele>
        <time>2011-05-03T12:35:44Z</time>
      </trkpt>
      <trkpt lat="42.5588" lon="2.00355">
        <ele>2056</ele>
        <time>2011-05-03T12:35:56Z</time>
      </trkpt>
      <trkpt lat="42.5588" lon="2.00346">
        <ele>2056</ele>
        <time>2011-05-03T12:36:02Z</time>
      </trkpt>
      <trkpt lat="42.55882" lon="2.00327">
        <ele>2057</ele>
        <time>2011-05-03T12:36:14Z</time>
      </trkpt>
      <trkpt lat="42.55886" lon="2.00319">
        <ele>2057</ele>
        <time>2011-05-03T12:36:21Z</time>
      </trkpt>
      <trkpt lat="42.55904" lon="2.00307">
        <ele>2058</ele>
        <time>2011-05-03T12:36:43Z</time>
      </trkpt>
      <trkpt lat="42.5591" lon="2.00305">
        <ele>2058</ele>
        <time>2011-05-03T12:36:49Z</time>
      </trkpt>
      <trkpt lat="42.55915" lon="2.00301">
        <ele>2059</ele>
        <time>2011-05-03T12:37:25Z</time>
      </trkpt>
      <trkpt lat="42.5592" lon="2.00309">
        <ele>2060</ele>
        <time>2011-05-03T12:38:17Z</time>
      </trkpt>
      <trkpt lat="42.55928" lon="2.00324">
        <ele>2061</ele>
        <time>2011-05-03T12:38:29Z</time>
      </trkpt>
      <trkpt lat="42.55933" lon="2.00331">
        <ele>2061</ele>
        <time>2011-05-03T12:38:34Z</time>
      </trkpt>
      <trkpt lat="42.55937" lon="2.00337">
        <ele>2061</ele>
        <time>2011-05-03T12:38:39Z</time>
      </trkpt>
      <trkpt lat="42.55942" lon="2.00343">
        <ele>2062</ele>
        <time>2011-05-03T12:38:44Z</time>
      </trkpt>
      <trkpt lat="42.55947" lon="2.0035">
        <ele>2062</ele>
        <time>2011-05-03T12:38:50Z</time>
      </trkpt>
      <trkpt lat="42.55951" lon="2.00357">
        <ele>2063</ele>
        <time>2011-05-03T12:38:56Z</time>
      </trkpt>
      <trkpt lat="42.55962" lon="2.0037">
        <ele>2064</ele>
        <time>2011-05-03T12:39:08Z</time>
      </trkpt>
      <trkpt lat="42.55967" lon="2.00376">
        <ele>2064</ele>
        <time>2011-05-03T12:39:14Z</time>
      </trkpt>
      <trkpt lat="42.55973" lon="2.00381">
        <ele>2064</ele>
        <time>2011-05-03T12:39:20Z</time>
      </trkpt>
      <trkpt lat="42.5598" lon="2.00384">
        <ele>2065</ele>
        <time>2011-05-03T12:39:26Z</time>
      </trkpt>
      <trkpt lat="42.55987" lon="2.00384">
        <ele>2065</ele>
        <time>2011-05-03T12:39:32Z</time>
      </trkpt>
      <trkpt lat="42.55994" lon="2.00383">
        <ele>2066</ele>
        <time>2011-05-03T12:39:38Z</time>
      </trkpt>
      <trkpt lat="42.56009" lon="2.0037">
        <ele>2067</ele>
        <time>2011-05-03T12:40:01Z</time>
      </trkpt>
      <trkpt lat="42.56012" lon="2.00361">
        <ele>2068</ele>
        <time>2011-05-03T12:40:11Z</time>
      </trkpt>
      <trkpt lat="42.56013" lon="2.00352">
        <ele>2069</ele>
        <time>2011-05-03T12:40:21Z</time>
      </trkpt>
      <trkpt lat="42.56012" lon="2.00343">
        <ele>2069</ele>
        <time>2011-05-03T12:40:30Z</time>
      </trkpt>
      <trkpt lat="42.56017" lon="2.00327">
        <ele>2069</ele>
        <time>2011-05-03T12:40:45Z</time>
      </trkpt>
      <trkpt lat="42.56023" lon="2.00321">
        <ele>2070</ele>
        <time>2011-05-03T12:40:54Z</time>
      </trkpt>
      <trkpt lat="42.56026" lon="2.00313">
        <ele>2070</ele>
        <time>2011-05-03T12:41:03Z</time>
      </trkpt>
      <trkpt lat="42.56028" lon="2.00305">
        <ele>2071</ele>
        <time>2011-05-03T12:41:10Z</time>
      </trkpt>
      <trkpt lat="42.56032" lon="2.00286">
        <ele>2071</ele>
        <time>2011-05-03T12:41:24Z</time>
      </trkpt>
      <trkpt lat="42.56032" lon="2.00277">
        <ele>2071</ele>
        <time>2011-05-03T12:41:29Z</time>
      </trkpt>
      <trkpt lat="42.56033" lon="2.00268">
        <ele>2071</ele>
        <time>2011-05-03T12:41:34Z</time>
      </trkpt>
      <trkpt lat="42.56032" lon="2.00259">
        <ele>2071</ele>
        <time>2011-05-03T12:41:40Z</time>
      </trkpt>
      <trkpt lat="42.56031" lon="2.0025">
        <ele>2071</ele>
        <time>2011-05-03T12:41:46Z</time>
      </trkpt>
      <trkpt lat="42.56029" lon="2.00241">
        <ele>2071</ele>
        <time>2011-05-03T12:41:52Z</time>
      </trkpt>
      <trkpt lat="42.56028" lon="2.00232">
        <ele>2071</ele>
        <time>2011-05-03T12:41:58Z</time>
      </trkpt>
      <trkpt lat="42.56027" lon="2.00222">
        <ele>2071</ele>
        <time>2011-05-03T12:42:05Z</time>
      </trkpt>
      <trkpt lat="42.56025" lon="2.00214">
        <ele>2071</ele>
        <time>2011-05-03T12:42:11Z</time>
      </trkpt>
      <trkpt lat="42.56022" lon="2.00196">
        <ele>2071</ele>
        <time>2011-05-03T12:42:24Z</time>
      </trkpt>
      <trkpt lat="42.56017" lon="2.00169">
        <ele>2071</ele>
        <time>2011-05-03T12:42:43Z</time>
      </trkpt>
      <trkpt lat="42.56015" lon="2.00161">
        <ele>2071</ele>
        <time>2011-05-03T12:42:49Z</time>
      </trkpt>
      <trkpt lat="42.56014" lon="2.00152">
        <ele>2071</ele>
        <time>2011-05-03T12:42:55Z</time>
      </trkpt>
      <trkpt lat="42.56012" lon="2.00143">
        <ele>2071</ele>
        <time>2011-05-03T12:43:01Z</time>
      </trkpt>
      <trkpt lat="42.5601" lon="2.00135">
        <ele>2071</ele>
        <time>2011-05-03T12:43:14Z</time>
      </trkpt>
      <trkpt lat="42.56008" lon="2.00126">
        <ele>2071</ele>
        <time>2011-05-03T12:43:20Z</time>
      </trkpt>
      <trkpt lat="42.56006" lon="2.00117">
        <ele>2071</ele>
        <time>2011-05-03T12:43:26Z</time>
      </trkpt>
      <trkpt lat="42.56004" lon="2.00109">
        <ele>2071</ele>
        <time>2011-05-03T12:43:32Z</time>
      </trkpt>
      <trkpt lat="42.56003" lon="2.001">
        <ele>2071</ele>
        <time>2011-05-03T12:43:38Z</time>
      </trkpt>
      <trkpt lat="42.56001" lon="2.00092">
        <ele>2071</ele>
        <time>2011-05-03T12:43:44Z</time>
      </trkpt>
      <trkpt lat="42.55999" lon="2.00083">
        <ele>2072</ele>
        <time>2011-05-03T12:43:50Z</time>
      </trkpt>
      <trkpt lat="42.55998" lon="2.00074">
        <ele>2072</ele>
        <time>2011-05-03T12:43:57Z</time>
      </trkpt>
      <trkpt lat="42.55997" lon="2.00065">
        <ele>2072</ele>
        <time>2011-05-03T12:44:06Z</time>
      </trkpt>
      <trkpt lat="42.55996" lon="2.00056">
        <ele>2072</ele>
        <time>2011-05-03T12:44:14Z</time>
      </trkpt>
      <trkpt lat="42.55992" lon="2.00038">
        <ele>2072</ele>
        <time>2011-05-03T12:44:28Z</time>
      </trkpt>
      <trkpt lat="42.5599" lon="2.0003">
        <ele>2072</ele>
        <time>2011-05-03T12:44:35Z</time>
      </trkpt>
      <trkpt lat="42.55989" lon="2.00021">
        <ele>2072</ele>
        <time>2011-05-03T12:44:42Z</time>
      </trkpt>
      <trkpt lat="42.55986" lon="2.00003">
        <ele>2072</ele>
        <time>2011-05-03T12:45:31Z</time>
      </trkpt>
      <trkpt lat="42.55984" lon="1.99986">
        <ele>2073</ele>
        <time>2011-05-03T12:45:41Z</time>
      </trkpt>
      <trkpt lat="42.55983" lon="1.99977">
        <ele>2073</ele>
        <time>2011-05-03T12:45:48Z</time>
      </trkpt>
      <trkpt lat="42.55982" lon="1.99968">
        <ele>2073</ele>
        <time>2011-05-03T12:45:55Z</time>
      </trkpt>
      <trkpt lat="42.55981" lon="1.9996">
        <ele>2073</ele>
        <time>2011-05-03T12:46:04Z</time>
      </trkpt>
      <trkpt lat="42.5598" lon="1.99951">
        <ele>2072</ele>
        <time>2011-05-03T12:46:13Z</time>
      </trkpt>
      <trkpt lat="42.55979" lon="1.99942">
        <ele>2072</ele>
        <time>2011-05-03T12:46:24Z</time>
      </trkpt>
      <trkpt lat="42.55974" lon="1.99937">
        <ele>2072</ele>
        <time>2011-05-03T12:46:36Z</time>
      </trkpt>
      <trkpt lat="42.55967" lon="1.99939">
        <ele>2072</ele>
        <time>2011-05-03T12:46:44Z</time>
      </trkpt>
      <trkpt lat="42.55948" lon="1.99949">
        <ele>2071</ele>
        <time>2011-05-03T12:47:09Z</time>
      </trkpt>
      <trkpt lat="42.55942" lon="1.99953">
        <ele>2071</ele>
        <time>2011-05-03T12:47:19Z</time>
      </trkpt>
      <trkpt lat="42.55947" lon="1.99957">
        <ele>2071</ele>
        <time>2011-05-03T12:48:35Z</time>
      </trkpt>
      <trkpt lat="42.55947" lon="1.99965">
        <ele>2072</ele>
        <time>2011-05-03T12:48:46Z</time>
      </trkpt>
      <trkpt lat="42.55952" lon="1.99959">
        <ele>2072</ele>
        <time>2011-05-03T12:49:04Z</time>
      </trkpt>
      <trkpt lat="42.55952" lon="1.99959">
        <ele>2011.1</ele>
        <time>2011-05-03T12:49:29Z</time>
      </trkpt>
      <trkpt lat="42.55952" lon="1.99959">
        <ele>2011.1</ele>
        <time>2011-05-03T13:02:55Z</time>
      </trkpt>
      <trkpt lat="42.55949" lon="1.99961">
        <ele>2068</ele>
        <time>2011-05-03T13:03:57Z</time>
      </trkpt>
      <trkpt lat="42.55952" lon="1.99953">
        <ele>2068</ele>
        <time>2011-05-03T13:04:07Z</time>
      </trkpt>
      <trkpt lat="42.55957" lon="1.99946">
        <ele>2069</ele>
        <time>2011-05-03T13:04:17Z</time>
      </trkpt>
      <trkpt lat="42.55963" lon="1.99943">
        <ele>2069</ele>
        <time>2011-05-03T13:04:26Z</time>
      </trkpt>
      <trkpt lat="42.55969" lon="1.9994">
        <ele>2070</ele>
        <time>2011-05-03T13:04:36Z</time>
      </trkpt>
      <trkpt lat="42.55974" lon="1.99933">
        <ele>2070</ele>
        <time>2011-05-03T13:04:46Z</time>
      </trkpt>
      <trkpt lat="42.55973" lon="1.99925">
        <ele>2071</ele>
        <time>2011-05-03T13:04:56Z</time>
      </trkpt>
      <trkpt lat="42.55972" lon="1.99915">
        <ele>2071</ele>
        <time>2011-05-03T13:05:03Z</time>
      </trkpt>
      <trkpt lat="42.55972" lon="1.99906">
        <ele>2072</ele>
        <time>2011-05-03T13:05:10Z</time>
      </trkpt>
      <trkpt lat="42.55973" lon="1.99897">
        <ele>2072</ele>
        <time>2011-05-03T13:05:17Z</time>
      </trkpt>
      <trkpt lat="42.55975" lon="1.99889">
        <ele>2073</ele>
        <time>2011-05-03T13:05:38Z</time>
      </trkpt>
      <trkpt lat="42.55981" lon="1.99885">
        <ele>2074</ele>
        <time>2011-05-03T13:07:07Z</time>
      </trkpt>
      <trkpt lat="42.55987" lon="1.99878">
        <ele>2074</ele>
        <time>2011-05-03T13:07:14Z</time>
      </trkpt>
      <trkpt lat="42.55993" lon="1.99872">
        <ele>2074</ele>
        <time>2011-05-03T13:07:21Z</time>
      </trkpt>
      <trkpt lat="42.55998" lon="1.99867">
        <ele>2075</ele>
        <time>2011-05-03T13:07:27Z</time>
      </trkpt>
      <trkpt lat="42.56003" lon="1.99861">
        <ele>2075</ele>
        <time>2011-05-03T13:07:33Z</time>
      </trkpt>
      <trkpt lat="42.56008" lon="1.99856">
        <ele>2075</ele>
        <time>2011-05-03T13:07:39Z</time>
      </trkpt>
      <trkpt lat="42.56013" lon="1.99851">
        <ele>2076</ele>
        <time>2011-05-03T13:07:45Z</time>
      </trkpt>
      <trkpt lat="42.56018" lon="1.99844">
        <ele>2076</ele>
        <time>2011-05-03T13:07:52Z</time>
      </trkpt>
      <trkpt lat="42.56022" lon="1.99836">
        <ele>2076</ele>
        <time>2011-05-03T13:07:59Z</time>
      </trkpt>
      <trkpt lat="42.56026" lon="1.99828">
        <ele>2076</ele>
        <time>2011-05-03T13:08:06Z</time>
      </trkpt>
      <trkpt lat="42.56031" lon="1.99822">
        <ele>2076</ele>
        <time>2011-05-03T13:08:12Z</time>
      </trkpt>
      <trkpt lat="42.56036" lon="1.99816">
        <ele>2077</ele>
        <time>2011-05-03T13:08:18Z</time>
      </trkpt>
      <trkpt lat="42.56041" lon="1.9981">
        <ele>2077</ele>
        <time>2011-05-03T13:08:24Z</time>
      </trkpt>
      <trkpt lat="42.56044" lon="1.99803">
        <ele>2077</ele>
        <time>2011-05-03T13:08:33Z</time>
      </trkpt>
      <trkpt lat="42.56051" lon="1.99799">
        <ele>2077</ele>
        <time>2011-05-03T13:08:54Z</time>
      </trkpt>
      <trkpt lat="42.56057" lon="1.99795">
        <ele>2078</ele>
        <time>2011-05-03T13:09:00Z</time>
      </trkpt>
      <trkpt lat="42.56063" lon="1.99792">
        <ele>2078</ele>
        <time>2011-05-03T13:09:06Z</time>
      </trkpt>
      <trkpt lat="42.56069" lon="1.9979">
        <ele>2078</ele>
        <time>2011-05-03T13:09:13Z</time>
      </trkpt>
      <trkpt lat="42.56076" lon="1.99787">
        <ele>2078</ele>
        <time>2011-05-03T13:09:20Z</time>
      </trkpt>
      <trkpt lat="42.5607" lon="1.99786">
        <ele>2078</ele>
        <time>2011-05-03T13:10:17Z</time>
      </trkpt>
      <trkpt lat="42.56064" lon="1.9979">
        <ele>2078</ele>
        <time>2011-05-03T13:10:35Z</time>
      </trkpt>
      <trkpt lat="42.56058" lon="1.99795">
        <ele>2078</ele>
        <time>2011-05-03T13:10:43Z</time>
      </trkpt>
      <trkpt lat="42.56046" lon="1.99798">
        <ele>2078</ele>
        <time>2011-05-03T13:10:56Z</time>
      </trkpt>
      <trkpt lat="42.56039" lon="1.99799">
        <ele>2077</ele>
        <time>2011-05-03T13:11:03Z</time>
      </trkpt>
      <trkpt lat="42.56033" lon="1.99803">
        <ele>2077</ele>
        <time>2011-05-03T13:11:10Z</time>
      </trkpt>
      <trkpt lat="42.56028" lon="1.99809">
        <ele>2077</ele>
        <time>2011-05-03T13:11:16Z</time>
      </trkpt>
      <trkpt lat="42.56024" lon="1.99816">
        <ele>2077</ele>
        <time>2011-05-03T13:11:22Z</time>
      </trkpt>
      <trkpt lat="42.5602" lon="1.99824">
        <ele>2076</ele>
        <time>2011-05-03T13:11:28Z</time>
      </trkpt>
      <trkpt lat="42.56015" lon="1.9983">
        <ele>2076</ele>
        <time>2011-05-03T13:11:34Z</time>
      </trkpt>
      <trkpt lat="42.5601" lon="1.99836">
        <ele>2076</ele>
        <time>2011-05-03T13:11:39Z</time>
      </trkpt>
      <trkpt lat="42.56005" lon="1.99843">
        <ele>2076</ele>
        <time>2011-05-03T13:11:44Z</time>
      </trkpt>
      <trkpt lat="42.55999" lon="1.99848">
        <ele>2076</ele>
        <time>2011-05-03T13:11:49Z</time>
      </trkpt>
      <trkpt lat="42.55993" lon="1.99852">
        <ele>2076</ele>
        <time>2011-05-03T13:11:55Z</time>
      </trkpt>
      <trkpt lat="42.55986" lon="1.99856">
        <ele>2075</ele>
        <time>2011-05-03T13:12:01Z</time>
      </trkpt>
      <trkpt lat="42.5598" lon="1.9986">
        <ele>2075</ele>
        <time>2011-05-03T13:12:07Z</time>
      </trkpt>
      <trkpt lat="42.55973" lon="1.99864">
        <ele>2075</ele>
        <time>2011-05-03T13:12:13Z</time>
      </trkpt>
      <trkpt lat="42.55967" lon="1.99869">
        <ele>2075</ele>
        <time>2011-05-03T13:12:19Z</time>
      </trkpt>
      <trkpt lat="42.55962" lon="1.99875">
        <ele>2074</ele>
        <time>2011-05-03T13:12:25Z</time>
      </trkpt>
      <trkpt lat="42.55957" lon="1.9988">
        <ele>2074</ele>
        <time>2011-05-03T13:12:31Z</time>
      </trkpt>
      <trkpt lat="42.55951" lon="1.99886">
        <ele>2074</ele>
        <time>2011-05-03T13:12:37Z</time>
      </trkpt>
      <trkpt lat="42.55946" lon="1.99892">
        <ele>2074</ele>
        <time>2011-05-03T13:12:43Z</time>
      </trkpt>
      <trkpt lat="42.55941" lon="1.99898">
        <ele>2074</ele>
        <time>2011-05-03T13:12:49Z</time>
      </trkpt>
      <trkpt lat="42.55936" lon="1.99903">
        <ele>2074</ele>
        <time>2011-05-03T13:12:55Z</time>
      </trkpt>
      <trkpt lat="42.55931" lon="1.99909">
        <ele>2073</ele>
        <time>2011-05-03T13:13:01Z</time>
      </trkpt>
      <trkpt lat="42.55926" lon="1.99916">
        <ele>2073</ele>
        <time>2011-05-03T13:13:08Z</time>
      </trkpt>
      <trkpt lat="42.55921" lon="1.99922">
        <ele>2073</ele>
        <time>2011-05-03T13:13:15Z</time>
      </trkpt>
      <trkpt lat="42.55915" lon="1.99927">
        <ele>2072</ele>
        <time>2011-05-03T13:13:21Z</time>
      </trkpt>
      <trkpt lat="42.55909" lon="1.99932">
        <ele>2072</ele>
        <time>2011-05-03T13:13:27Z</time>
      </trkpt>
      <trkpt lat="42.55904" lon="1.99937">
        <ele>2072</ele>
        <time>2011-05-03T13:13:33Z</time>
      </trkpt>
      <trkpt lat="42.55898" lon="1.99942">
        <ele>2072</ele>
        <time>2011-05-03T13:13:39Z</time>
      </trkpt>
      <trkpt lat="42.55892" lon="1.99946">
        <ele>2072</ele>
        <time>2011-05-03T13:13:45Z</time>
      </trkpt>
      <trkpt lat="42.55886" lon="1.9995">
        <ele>2071</ele>
        <time>2011-05-03T13:13:51Z</time>
      </trkpt>
      <trkpt lat="42.5588" lon="1.99955">
        <ele>2071</ele>
        <time>2011-05-03T13:13:58Z</time>
      </trkpt>
      <trkpt lat="42.55873" lon="1.9996">
        <ele>2070</ele>
        <time>2011-05-03T13:14:05Z</time>
      </trkpt>
      <trkpt lat="42.55867" lon="1.99965">
        <ele>2070</ele>
        <time>2011-05-03T13:14:12Z</time>
      </trkpt>
      <trkpt lat="42.55863" lon="1.99972">
        <ele>2069</ele>
        <time>2011-05-03T13:14:24Z</time>
      </trkpt>
      <trkpt lat="42.55862" lon="1.99981">
        <ele>2069</ele>
        <time>2011-05-03T13:14:37Z</time>
      </trkpt>
      <trkpt lat="42.55865" lon="1.9999">
        <ele>2068</ele>
        <time>2011-05-03T13:14:44Z</time>
      </trkpt>
      <trkpt lat="42.55867" lon="1.99999">
        <ele>2068</ele>
        <time>2011-05-03T13:14:51Z</time>
      </trkpt>
      <trkpt lat="42.55861" lon="2.00003">
        <ele>2068</ele>
        <time>2011-05-03T13:14:58Z</time>
      </trkpt>
      <trkpt lat="42.55854" lon="2.00003">
        <ele>2068</ele>
        <time>2011-05-03T13:15:04Z</time>
      </trkpt>
      <trkpt lat="42.55847" lon="2.00002">
        <ele>2067</ele>
        <time>2011-05-03T13:15:10Z</time>
      </trkpt>
      <trkpt lat="42.55841" lon="2.00002">
        <ele>2067</ele>
        <time>2011-05-03T13:15:17Z</time>
      </trkpt>
      <trkpt lat="42.55834" lon="2.00002">
        <ele>2066</ele>
        <time>2011-05-03T13:15:24Z</time>
      </trkpt>
      <trkpt lat="42.55827" lon="2">
        <ele>2066</ele>
        <time>2011-05-03T13:15:31Z</time>
      </trkpt>
      <trkpt lat="42.5582" lon="1.99998">
        <ele>2065</ele>
        <time>2011-05-03T13:15:37Z</time>
      </trkpt>
      <trkpt lat="42.55813" lon="1.99998">
        <ele>2065</ele>
        <time>2011-05-03T13:15:42Z</time>
      </trkpt>
      <trkpt lat="42.55807" lon="1.99998">
        <ele>2064</ele>
        <time>2011-05-03T13:15:47Z</time>
      </trkpt>
      <trkpt lat="42.55801" lon="2.00001">
        <ele>2064</ele>
        <time>2011-05-03T13:15:53Z</time>
      </trkpt>
      <trkpt lat="42.55794" lon="2.00006">
        <ele>2064</ele>
        <time>2011-05-03T13:15:59Z</time>
      </trkpt>
      <trkpt lat="42.55788" lon="2.0001">
        <ele>2063</ele>
        <time>2011-05-03T13:16:04Z</time>
      </trkpt>
      <trkpt lat="42.55782" lon="2.00013">
        <ele>2063</ele>
        <time>2011-05-03T13:16:09Z</time>
      </trkpt>
      <trkpt lat="42.55776" lon="2.00016">
        <ele>2063</ele>
        <time>2011-05-03T13:16:14Z</time>
      </trkpt>
      <trkpt lat="42.55769" lon="2.00019">
        <ele>2062</ele>
        <time>2011-05-03T13:16:20Z</time>
      </trkpt>
      <trkpt lat="42.55763" lon="2.00021">
        <ele>2062</ele>
        <time>2011-05-03T13:16:26Z</time>
      </trkpt>
      <trkpt lat="42.55756" lon="2.00023">
        <ele>2062</ele>
        <time>2011-05-03T13:16:32Z</time>
      </trkpt>
      <trkpt lat="42.5575" lon="2.00027">
        <ele>2061</ele>
        <time>2011-05-03T13:16:38Z</time>
      </trkpt>
      <trkpt lat="42.55743" lon="2.00031">
        <ele>2061</ele>
        <time>2011-05-03T13:16:44Z</time>
      </trkpt>
      <trkpt lat="42.55737" lon="2.00034">
        <ele>2061</ele>
        <time>2011-05-03T13:16:50Z</time>
      </trkpt>
      <trkpt lat="42.5573" lon="2.00038">
        <ele>2060</ele>
        <time>2011-05-03T13:16:56Z</time>
      </trkpt>
      <trkpt lat="42.55723" lon="2.00041">
        <ele>2060</ele>
        <time>2011-05-03T13:17:02Z</time>
      </trkpt>
      <trkpt lat="42.55717" lon="2.00044">
        <ele>2060</ele>
        <time>2011-05-03T13:17:08Z</time>
      </trkpt>
      <trkpt lat="42.5571" lon="2.00045">
        <ele>2060</ele>
        <time>2011-05-03T13:17:14Z</time>
      </trkpt>
      <trkpt lat="42.55703" lon="2.00047">
        <ele>2059</ele>
        <time>2011-05-03T13:17:20Z</time>
      </trkpt>
      <trkpt lat="42.55696" lon="2.00048">
        <ele>2059</ele>
        <time>2011-05-03T13:17:26Z</time>
      </trkpt>
      <trkpt lat="42.55689" lon="2.00051">
        <ele>2059</ele>
        <time>2011-05-03T13:17:32Z</time>
      </trkpt>
      <trkpt lat="42.55682" lon="2.00053">
        <ele>2058</ele>
        <time>2011-05-03T13:17:38Z</time>
      </trkpt>
      <trkpt lat="42.55676" lon="2.00055">
        <ele>2058</ele>
        <time>2011-05-03T13:17:44Z</time>
      </trkpt>
      <trkpt lat="42.55669" lon="2.00056">
        <ele>2058</ele>
        <time>2011-05-03T13:17:50Z</time>
      </trkpt>
      <trkpt lat="42.55662" lon="2.00058">
        <ele>2057</ele>
        <time>2011-05-03T13:17:56Z</time>
      </trkpt>
      <trkpt lat="42.55655" lon="2.00061">
        <ele>2057</ele>
        <time>2011-05-03T13:18:02Z</time>
      </trkpt>
      <trkpt lat="42.55648" lon="2.00062">
        <ele>2057</ele>
        <time>2011-05-03T13:18:08Z</time>
      </trkpt>
      <trkpt lat="42.55641" lon="2.00065">
        <ele>2057</ele>
        <time>2011-05-03T13:18:14Z</time>
      </trkpt>
      <trkpt lat="42.55635" lon="2.00069">
        <ele>2056</ele>
        <time>2011-05-03T13:18:20Z</time>
      </trkpt>
      <trkpt lat="42.55628" lon="2.00073">
        <ele>2056</ele>
        <time>2011-05-03T13:18:26Z</time>
      </trkpt>
      <trkpt lat="42.55622" lon="2.00076">
        <ele>2056</ele>
        <time>2011-05-03T13:18:32Z</time>
      </trkpt>
      <trkpt lat="42.55615" lon="2.0008">
        <ele>2055</ele>
        <time>2011-05-03T13:18:38Z</time>
      </trkpt>
      <trkpt lat="42.55607" lon="2.00082">
        <ele>2055</ele>
        <time>2011-05-03T13:18:44Z</time>
      </trkpt>
      <trkpt lat="42.556" lon="2.00084">
        <ele>2054</ele>
        <time>2011-05-03T13:18:50Z</time>
      </trkpt>
      <trkpt lat="42.55594" lon="2.00086">
        <ele>2054</ele>
        <time>2011-05-03T13:18:55Z</time>
      </trkpt>
      <trkpt lat="42.55587" lon="2.00087">
        <ele>2054</ele>
        <time>2011-05-03T13:19:00Z</time>
      </trkpt>
      <trkpt lat="42.55581" lon="2.00088">
        <ele>2053</ele>
        <time>2011-05-03T13:19:05Z</time>
      </trkpt>
      <trkpt lat="42.55574" lon="2.0009">
        <ele>2053</ele>
        <time>2011-05-03T13:19:11Z</time>
      </trkpt>
      <trkpt lat="42.55567" lon="2.00091">
        <ele>2052</ele>
        <time>2011-05-03T13:19:17Z</time>
      </trkpt>
      <trkpt lat="42.5556" lon="2.00093">
        <ele>2052</ele>
        <time>2011-05-03T13:19:23Z</time>
      </trkpt>
      <trkpt lat="42.55552" lon="2.00094">
        <ele>2052</ele>
        <time>2011-05-03T13:19:29Z</time>
      </trkpt>
      <trkpt lat="42.55545" lon="2.00096">
        <ele>2051</ele>
        <time>2011-05-03T13:19:35Z</time>
      </trkpt>
      <trkpt lat="42.55538" lon="2.00098">
        <ele>2051</ele>
        <time>2011-05-03T13:19:41Z</time>
      </trkpt>
      <trkpt lat="42.55532" lon="2.00101">
        <ele>2050</ele>
        <time>2011-05-03T13:19:47Z</time>
      </trkpt>
      <trkpt lat="42.55526" lon="2.00105">
        <ele>2050</ele>
        <time>2011-05-03T13:19:53Z</time>
      </trkpt>
      <trkpt lat="42.55519" lon="2.00109">
        <ele>2050</ele>
        <time>2011-05-03T13:19:59Z</time>
      </trkpt>
      <trkpt lat="42.55513" lon="2.00113">
        <ele>2049</ele>
        <time>2011-05-03T13:20:05Z</time>
      </trkpt>
      <trkpt lat="42.55506" lon="2.00117">
        <ele>2049</ele>
        <time>2011-05-03T13:20:11Z</time>
      </trkpt>
      <trkpt lat="42.555" lon="2.0012">
        <ele>2049</ele>
        <time>2011-05-03T13:20:17Z</time>
      </trkpt>
      <trkpt lat="42.55493" lon="2.00124">
        <ele>2048</ele>
        <time>2011-05-03T13:20:23Z</time>
      </trkpt>
      <trkpt lat="42.55486" lon="2.00127">
        <ele>2048</ele>
        <time>2011-05-03T13:20:29Z</time>
      </trkpt>
      <trkpt lat="42.55479" lon="2.0013">
        <ele>2048</ele>
        <time>2011-05-03T13:20:35Z</time>
      </trkpt>
      <trkpt lat="42.55473" lon="2.00132">
        <ele>2047</ele>
        <time>2011-05-03T13:20:40Z</time>
      </trkpt>
      <trkpt lat="42.55466" lon="2.00133">
        <ele>2047</ele>
        <time>2011-05-03T13:20:46Z</time>
      </trkpt>
      <trkpt lat="42.55459" lon="2.00135">
        <ele>2047</ele>
        <time>2011-05-03T13:20:52Z</time>
      </trkpt>
      <trkpt lat="42.55453" lon="2.00137">
        <ele>2046</ele>
        <time>2011-05-03T13:20:57Z</time>
      </trkpt>
      <trkpt lat="42.55445" lon="2.00139">
        <ele>2046</ele>
        <time>2011-05-03T13:21:03Z</time>
      </trkpt>
      <trkpt lat="42.55438" lon="2.0014">
        <ele>2046</ele>
        <time>2011-05-03T13:21:09Z</time>
      </trkpt>
      <trkpt lat="42.55431" lon="2.00141">
        <ele>2045</ele>
        <time>2011-05-03T13:21:15Z</time>
      </trkpt>
      <trkpt lat="42.55424" lon="2.00142">
        <ele>2045</ele>
        <time>2011-05-03T13:21:21Z</time>
      </trkpt>
      <trkpt lat="42.55417" lon="2.00144">
        <ele>2045</ele>
        <time>2011-05-03T13:21:27Z</time>
      </trkpt>
      <trkpt lat="42.5541" lon="2.00145">
        <ele>2045</ele>
        <time>2011-05-03T13:21:33Z</time>
      </trkpt>
      <trkpt lat="42.55402" lon="2.00146">
        <ele>2044</ele>
        <time>2011-05-03T13:21:39Z</time>
      </trkpt>
      <trkpt lat="42.55396" lon="2.00147">
        <ele>2044</ele>
        <time>2011-05-03T13:21:44Z</time>
      </trkpt>
      <trkpt lat="42.55389" lon="2.00148">
        <ele>2044</ele>
        <time>2011-05-03T13:21:49Z</time>
      </trkpt>
      <trkpt lat="42.55383" lon="2.00149">
        <ele>2044</ele>
        <time>2011-05-03T13:21:54Z</time>
      </trkpt>
      <trkpt lat="42.55376" lon="2.0015">
        <ele>2044</ele>
        <time>2011-05-03T13:21:59Z</time>
      </trkpt>
      <trkpt lat="42.5537" lon="2.00152">
        <ele>2043</ele>
        <time>2011-05-03T13:22:04Z</time>
      </trkpt>
      <trkpt lat="42.55364" lon="2.00153">
        <ele>2043</ele>
        <time>2011-05-03T13:22:09Z</time>
      </trkpt>
      <trkpt lat="42.55356" lon="2.00155">
        <ele>2043</ele>
        <time>2011-05-03T13:22:15Z</time>
      </trkpt>
      <trkpt lat="42.55349" lon="2.00156">
        <ele>2043</ele>
        <time>2011-05-03T13:22:21Z</time>
      </trkpt>
      <trkpt lat="42.55342" lon="2.00158">
        <ele>2043</ele>
        <time>2011-05-03T13:22:27Z</time>
      </trkpt>
      <trkpt lat="42.55335" lon="2.00159">
        <ele>2042</ele>
        <time>2011-05-03T13:22:32Z</time>
      </trkpt>
      <trkpt lat="42.55329" lon="2.00161">
        <ele>2042</ele>
        <time>2011-05-03T13:22:37Z</time>
      </trkpt>
      <trkpt lat="42.55322" lon="2.00163">
        <ele>2042</ele>
        <time>2011-05-03T13:22:42Z</time>
      </trkpt>
      <trkpt lat="42.55316" lon="2.00165">
        <ele>2042</ele>
        <time>2011-05-03T13:22:47Z</time>
      </trkpt>
      <trkpt lat="42.55309" lon="2.00167">
        <ele>2042</ele>
        <time>2011-05-03T13:22:52Z</time>
      </trkpt>
      <trkpt lat="42.55303" lon="2.00169">
        <ele>2042</ele>
        <time>2011-05-03T13:22:57Z</time>
      </trkpt>
      <trkpt lat="42.55297" lon="2.00171">
        <ele>2042</ele>
        <time>2011-05-03T13:23:02Z</time>
      </trkpt>
      <trkpt lat="42.55291" lon="2.00173">
        <ele>2042</ele>
        <time>2011-05-03T13:23:07Z</time>
      </trkpt>
      <trkpt lat="42.55284" lon="2.00175">
        <ele>2042</ele>
        <time>2011-05-03T13:23:12Z</time>
      </trkpt>
      <trkpt lat="42.55277" lon="2.00178">
        <ele>2041</ele>
        <time>2011-05-03T13:23:18Z</time>
      </trkpt>
      <trkpt lat="42.55271" lon="2.00181">
        <ele>2041</ele>
        <time>2011-05-03T13:23:23Z</time>
      </trkpt>
      <trkpt lat="42.55264" lon="2.00184">
        <ele>2041</ele>
        <time>2011-05-03T13:23:29Z</time>
      </trkpt>
      <trkpt lat="42.55257" lon="2.00188">
        <ele>2041</ele>
        <time>2011-05-03T13:23:35Z</time>
      </trkpt>
      <trkpt lat="42.55251" lon="2.00192">
        <ele>2041</ele>
        <time>2011-05-03T13:23:41Z</time>
      </trkpt>
      <trkpt lat="42.55244" lon="2.00196">
        <ele>2041</ele>
        <time>2011-05-03T13:23:47Z</time>
      </trkpt>
      <trkpt lat="42.55237" lon="2.00198">
        <ele>2040</ele>
        <time>2011-05-03T13:23:53Z</time>
      </trkpt>
      <trkpt lat="42.5523" lon="2.00201">
        <ele>2040</ele>
        <time>2011-05-03T13:23:59Z</time>
      </trkpt>
      <trkpt lat="42.55224" lon="2.00203">
        <ele>2040</ele>
        <time>2011-05-03T13:24:04Z</time>
      </trkpt>
      <trkpt lat="42.55217" lon="2.00205">
        <ele>2040</ele>
        <time>2011-05-03T13:24:09Z</time>
      </trkpt>
      <trkpt lat="42.55211" lon="2.00206">
        <ele>2039</ele>
        <time>2011-05-03T13:24:14Z</time>
      </trkpt>
      <trkpt lat="42.55204" lon="2.00207">
        <ele>2039</ele>
        <time>2011-05-03T13:24:19Z</time>
      </trkpt>
      <trkpt lat="42.55198" lon="2.00207">
        <ele>2039</ele>
        <time>2011-05-03T13:24:24Z</time>
      </trkpt>
      <trkpt lat="42.55191" lon="2.00206">
        <ele>2039</ele>
        <time>2011-05-03T13:24:30Z</time>
      </trkpt>
      <trkpt lat="42.55183" lon="2.00205">
        <ele>2038</ele>
        <time>2011-05-03T13:24:36Z</time>
      </trkpt>
      <trkpt lat="42.55176" lon="2.00203">
        <ele>2038</ele>
        <time>2011-05-03T13:24:42Z</time>
      </trkpt>
      <trkpt lat="42.5517" lon="2.00202">
        <ele>2038</ele>
        <time>2011-05-03T13:24:47Z</time>
      </trkpt>
      <trkpt lat="42.55163" lon="2.00201">
        <ele>2038</ele>
        <time>2011-05-03T13:24:52Z</time>
      </trkpt>
      <trkpt lat="42.55156" lon="2.00201">
        <ele>2038</ele>
        <time>2011-05-03T13:24:58Z</time>
      </trkpt>
      <trkpt lat="42.55149" lon="2.00201">
        <ele>2037</ele>
        <time>2011-05-03T13:25:04Z</time>
      </trkpt>
      <trkpt lat="42.55142" lon="2.00202">
        <ele>2037</ele>
        <time>2011-05-03T13:25:09Z</time>
      </trkpt>
      <trkpt lat="42.55135" lon="2.00203">
        <ele>2037</ele>
        <time>2011-05-03T13:25:14Z</time>
      </trkpt>
      <trkpt lat="42.55128" lon="2.00204">
        <ele>2037</ele>
        <time>2011-05-03T13:25:19Z</time>
      </trkpt>
      <trkpt lat="42.55122" lon="2.00205">
        <ele>2037</ele>
        <time>2011-05-03T13:25:24Z</time>
      </trkpt>
      <trkpt lat="42.55115" lon="2.00205">
        <ele>2036</ele>
        <time>2011-05-03T13:25:30Z</time>
      </trkpt>
      <trkpt lat="42.55108" lon="2.00206">
        <ele>2036</ele>
        <time>2011-05-03T13:25:36Z</time>
      </trkpt>
      <trkpt lat="42.55101" lon="2.00208">
        <ele>2036</ele>
        <time>2011-05-03T13:25:42Z</time>
      </trkpt>
      <trkpt lat="42.55094" lon="2.00209">
        <ele>2036</ele>
        <time>2011-05-03T13:25:48Z</time>
      </trkpt>
      <trkpt lat="42.55087" lon="2.0021">
        <ele>2036</ele>
        <time>2011-05-03T13:25:54Z</time>
      </trkpt>
      <trkpt lat="42.5508" lon="2.0021">
        <ele>2035</ele>
        <time>2011-05-03T13:26:00Z</time>
      </trkpt>
      <trkpt lat="42.55072" lon="2.00212">
        <ele>2035</ele>
        <time>2011-05-03T13:26:06Z</time>
      </trkpt>
      <trkpt lat="42.55065" lon="2.00213">
        <ele>2035</ele>
        <time>2011-05-03T13:26:12Z</time>
      </trkpt>
      <trkpt lat="42.55058" lon="2.00214">
        <ele>2034</ele>
        <time>2011-05-03T13:26:18Z</time>
      </trkpt>
      <trkpt lat="42.55051" lon="2.00216">
        <ele>2034</ele>
        <time>2011-05-03T13:26:24Z</time>
      </trkpt>
      <trkpt lat="42.55044" lon="2.00216">
        <ele>2034</ele>
        <time>2011-05-03T13:26:30Z</time>
      </trkpt>
      <trkpt lat="42.55037" lon="2.00217">
        <ele>2033</ele>
        <time>2011-05-03T13:26:36Z</time>
      </trkpt>
      <trkpt lat="42.55029" lon="2.00219">
        <ele>2033</ele>
        <time>2011-05-03T13:26:42Z</time>
      </trkpt>
      <trkpt lat="42.55023" lon="2.00222">
        <ele>2033</ele>
        <time>2011-05-03T13:26:48Z</time>
      </trkpt>
      <trkpt lat="42.55017" lon="2.00226">
        <ele>2032</ele>
        <time>2011-05-03T13:27:02Z</time>
      </trkpt>
      <trkpt lat="42.55011" lon="2.00231">
        <ele>2032</ele>
        <time>2011-05-03T13:27:20Z</time>
      </trkpt>
      <trkpt lat="42.55005" lon="2.00235">
        <ele>2031</ele>
        <time>2011-05-03T13:27:25Z</time>
      </trkpt>
      <trkpt lat="42.55" lon="2.00239">
        <ele>2031</ele>
        <time>2011-05-03T13:27:30Z</time>
      </trkpt>
      <trkpt lat="42.54994" lon="2.00245">
        <ele>2031</ele>
        <time>2011-05-03T13:27:36Z</time>
      </trkpt>
      <trkpt lat="42.54988" lon="2.00251">
        <ele>2031</ele>
        <time>2011-05-03T13:27:42Z</time>
      </trkpt>
      <trkpt lat="42.54982" lon="2.00256">
        <ele>2031</ele>
        <time>2011-05-03T13:27:48Z</time>
      </trkpt>
      <trkpt lat="42.54976" lon="2.0026">
        <ele>2031</ele>
        <time>2011-05-03T13:27:54Z</time>
      </trkpt>
      <trkpt lat="42.54969" lon="2.00261">
        <ele>2031</ele>
        <time>2011-05-03T13:28:00Z</time>
      </trkpt>
      <trkpt lat="42.54962" lon="2.00263">
        <ele>2031</ele>
        <time>2011-05-03T13:28:06Z</time>
      </trkpt>
      <trkpt lat="42.54955" lon="2.00265">
        <ele>2030</ele>
        <time>2011-05-03T13:28:11Z</time>
      </trkpt>
      <trkpt lat="42.54948" lon="2.00267">
        <ele>2030</ele>
        <time>2011-05-03T13:28:16Z</time>
      </trkpt>
      <trkpt lat="42.54942" lon="2.00269">
        <ele>2030</ele>
        <time>2011-05-03T13:28:21Z</time>
      </trkpt>
      <trkpt lat="42.54935" lon="2.00271">
        <ele>2030</ele>
        <time>2011-05-03T13:28:26Z</time>
      </trkpt>
      <trkpt lat="42.54929" lon="2.00273">
        <ele>2030</ele>
        <time>2011-05-03T13:28:31Z</time>
      </trkpt>
      <trkpt lat="42.54922" lon="2.00275">
        <ele>2030</ele>
        <time>2011-05-03T13:28:36Z</time>
      </trkpt>
      <trkpt lat="42.54915" lon="2.00277">
        <ele>2030</ele>
        <time>2011-05-03T13:28:42Z</time>
      </trkpt>
      <trkpt lat="42.54909" lon="2.00278">
        <ele>2030</ele>
        <time>2011-05-03T13:28:47Z</time>
      </trkpt>
      <trkpt lat="42.54903" lon="2.0028">
        <ele>2030</ele>
        <time>2011-05-03T13:28:52Z</time>
      </trkpt>
      <trkpt lat="42.54895" lon="2.00281">
        <ele>2030</ele>
        <time>2011-05-03T13:28:58Z</time>
      </trkpt>
      <trkpt lat="42.54888" lon="2.00282">
        <ele>2030</ele>
        <time>2011-05-03T13:29:04Z</time>
      </trkpt>
      <trkpt lat="42.54882" lon="2.00283">
        <ele>2030</ele>
        <time>2011-05-03T13:29:09Z</time>
      </trkpt>
      <trkpt lat="42.54874" lon="2.00285">
        <ele>2029</ele>
        <time>2011-05-03T13:29:15Z</time>
      </trkpt>
      <trkpt lat="42.54867" lon="2.00287">
        <ele>2029</ele>
        <time>2011-05-03T13:29:21Z</time>
      </trkpt>
      <trkpt lat="42.5486" lon="2.00289">
        <ele>2029</ele>
        <time>2011-05-03T13:29:27Z</time>
      </trkpt>
      <trkpt lat="42.54853" lon="2.00291">
        <ele>2028</ele>
        <time>2011-05-03T13:29:33Z</time>
      </trkpt>
      <trkpt lat="42.54846" lon="2.00293">
        <ele>2028</ele>
        <time>2011-05-03T13:29:38Z</time>
      </trkpt>
      <trkpt lat="42.5484" lon="2.00295">
        <ele>2028</ele>
        <time>2011-05-03T13:29:43Z</time>
      </trkpt>
      <trkpt lat="42.54834" lon="2.00298">
        <ele>2027</ele>
        <time>2011-05-03T13:29:48Z</time>
      </trkpt>
      <trkpt lat="42.54827" lon="2.00299">
        <ele>2027</ele>
        <time>2011-05-03T13:29:53Z</time>
      </trkpt>
      <trkpt lat="42.5482" lon="2.00302">
        <ele>2027</ele>
        <time>2011-05-03T13:29:59Z</time>
      </trkpt>
      <trkpt lat="42.54813" lon="2.00304">
        <ele>2026</ele>
        <time>2011-05-03T13:30:05Z</time>
      </trkpt>
      <trkpt lat="42.54806" lon="2.00307">
        <ele>2026</ele>
        <time>2011-05-03T13:30:11Z</time>
      </trkpt>
      <trkpt lat="42.54799" lon="2.0031">
        <ele>2026</ele>
        <time>2011-05-03T13:30:17Z</time>
      </trkpt>
      <trkpt lat="42.54793" lon="2.00313">
        <ele>2025</ele>
        <time>2011-05-03T13:30:22Z</time>
      </trkpt>
      <trkpt lat="42.54787" lon="2.00317">
        <ele>2025</ele>
        <time>2011-05-03T13:30:27Z</time>
      </trkpt>
      <trkpt lat="42.54781" lon="2.0032">
        <ele>2025</ele>
        <time>2011-05-03T13:30:32Z</time>
      </trkpt>
      <trkpt lat="42.54774" lon="2.00324">
        <ele>2024</ele>
        <time>2011-05-03T13:30:37Z</time>
      </trkpt>
      <trkpt lat="42.54768" lon="2.00328">
        <ele>2024</ele>
        <time>2011-05-03T13:30:42Z</time>
      </trkpt>
      <trkpt lat="42.54762" lon="2.00331">
        <ele>2023</ele>
        <time>2011-05-03T13:30:47Z</time>
      </trkpt>
      <trkpt lat="42.54756" lon="2.00336">
        <ele>2023</ele>
        <time>2011-05-03T13:30:53Z</time>
      </trkpt>
      <trkpt lat="42.5475" lon="2.0034">
        <ele>2023</ele>
        <time>2011-05-03T13:30:59Z</time>
      </trkpt>
      <trkpt lat="42.54744" lon="2.00344">
        <ele>2022</ele>
        <time>2011-05-03T13:31:05Z</time>
      </trkpt>
      <trkpt lat="42.54737" lon="2.00348">
        <ele>2022</ele>
        <time>2011-05-03T13:31:11Z</time>
      </trkpt>
      <trkpt lat="42.5473" lon="2.00352">
        <ele>2021</ele>
        <time>2011-05-03T13:31:17Z</time>
      </trkpt>
      <trkpt lat="42.54723" lon="2.00355">
        <ele>2021</ele>
        <time>2011-05-03T13:31:23Z</time>
      </trkpt>
      <trkpt lat="42.54716" lon="2.00358">
        <ele>2021</ele>
        <time>2011-05-03T13:31:29Z</time>
      </trkpt>
      <trkpt lat="42.5471" lon="2.00361">
        <ele>2020</ele>
        <time>2011-05-03T13:31:43Z</time>
      </trkpt>
      <trkpt lat="42.54705" lon="2.00366">
        <ele>2019</ele>
        <time>2011-05-03T13:32:07Z</time>
      </trkpt>
      <trkpt lat="42.54699" lon="2.00369">
        <ele>2017</ele>
        <time>2011-05-03T13:32:14Z</time>
      </trkpt>
      <trkpt lat="42.54691" lon="2.00372">
        <ele>2016</ele>
        <time>2011-05-03T13:32:21Z</time>
      </trkpt>
      <trkpt lat="42.54685" lon="2.00374">
        <ele>2015</ele>
        <time>2011-05-03T13:32:27Z</time>
      </trkpt>
      <trkpt lat="42.54678" lon="2.0038">
        <ele>2014</ele>
        <time>2011-05-03T13:32:33Z</time>
      </trkpt>
      <trkpt lat="42.54672" lon="2.00384">
        <ele>2013</ele>
        <time>2011-05-03T13:32:39Z</time>
      </trkpt>
      <trkpt lat="42.54667" lon="2.00388">
        <ele>2013</ele>
        <time>2011-05-03T13:32:45Z</time>
      </trkpt>
      <trkpt lat="42.54661" lon="2.00392">
        <ele>2012</ele>
        <time>2011-05-03T13:32:51Z</time>
      </trkpt>
      <trkpt lat="42.54655" lon="2.00397">
        <ele>2012</ele>
        <time>2011-05-03T13:32:57Z</time>
      </trkpt>
      <trkpt lat="42.54649" lon="2.00402">
        <ele>2012</ele>
        <time>2011-05-03T13:33:03Z</time>
      </trkpt>
      <trkpt lat="42.54643" lon="2.00407">
        <ele>2011</ele>
        <time>2011-05-03T13:33:09Z</time>
      </trkpt>
      <trkpt lat="42.54636" lon="2.00412">
        <ele>2011</ele>
        <time>2011-05-03T13:33:15Z</time>
      </trkpt>
      <trkpt lat="42.5463" lon="2.00416">
        <ele>2011</ele>
        <time>2011-05-03T13:33:21Z</time>
      </trkpt>
      <trkpt lat="42.54623" lon="2.00421">
        <ele>2011</ele>
        <time>2011-05-03T13:33:27Z</time>
      </trkpt>
      <trkpt lat="42.54616" lon="2.00426">
        <ele>2010</ele>
        <time>2011-05-03T13:33:33Z</time>
      </trkpt>
      <trkpt lat="42.54611" lon="2.00429">
        <ele>2010</ele>
        <time>2011-05-03T13:33:38Z</time>
      </trkpt>
      <trkpt lat="42.54604" lon="2.00435">
        <ele>2010</ele>
        <time>2011-05-03T13:33:44Z</time>
      </trkpt>
      <trkpt lat="42.54599" lon="2.00441">
        <ele>2010</ele>
        <time>2011-05-03T13:33:50Z</time>
      </trkpt>
      <trkpt lat="42.54594" lon="2.00448">
        <ele>2009</ele>
        <time>2011-05-03T13:33:56Z</time>
      </trkpt>
      <trkpt lat="42.54589" lon="2.00456">
        <ele>2009</ele>
        <time>2011-05-03T13:34:02Z</time>
      </trkpt>
      <trkpt lat="42.54585" lon="2.00463">
        <ele>2009</ele>
        <time>2011-05-03T13:34:08Z</time>
      </trkpt>
      <trkpt lat="42.54581" lon="2.00471">
        <ele>2009</ele>
        <time>2011-05-03T13:34:14Z</time>
      </trkpt>
      <trkpt lat="42.54576" lon="2.00479">
        <ele>2008</ele>
        <time>2011-05-03T13:34:20Z</time>
      </trkpt>
      <trkpt lat="42.54573" lon="2.00486">
        <ele>2008</ele>
        <time>2011-05-03T13:34:25Z</time>
      </trkpt>
      <trkpt lat="42.54569" lon="2.00493">
        <ele>2008</ele>
        <time>2011-05-03T13:34:30Z</time>
      </trkpt>
      <trkpt lat="42.54565" lon="2.00501">
        <ele>2008</ele>
        <time>2011-05-03T13:34:35Z</time>
      </trkpt>
      <trkpt lat="42.54562" lon="2.00509">
        <ele>2008</ele>
        <time>2011-05-03T13:34:40Z</time>
      </trkpt>
      <trkpt lat="42.54559" lon="2.00517">
        <ele>2008</ele>
        <time>2011-05-03T13:34:45Z</time>
      </trkpt>
      <trkpt lat="42.54555" lon="2.00524">
        <ele>2007</ele>
        <time>2011-05-03T13:34:50Z</time>
      </trkpt>
      <trkpt lat="42.5455" lon="2.0053">
        <ele>2007</ele>
        <time>2011-05-03T13:34:55Z</time>
      </trkpt>
      <trkpt lat="42.54546" lon="2.00536">
        <ele>2007</ele>
        <time>2011-05-03T13:35:00Z</time>
      </trkpt>
      <trkpt lat="42.54542" lon="2.00543">
        <ele>2007</ele>
        <time>2011-05-03T13:35:05Z</time>
      </trkpt>
      <trkpt lat="42.54538" lon="2.00552">
        <ele>2007</ele>
        <time>2011-05-03T13:35:11Z</time>
      </trkpt>
      <trkpt lat="42.54534" lon="2.00559">
        <ele>2007</ele>
        <time>2011-05-03T13:35:17Z</time>
      </trkpt>
      <trkpt lat="42.54531" lon="2.00567">
        <ele>2007</ele>
        <time>2011-05-03T13:35:23Z</time>
      </trkpt>
      <trkpt lat="42.54527" lon="2.00575">
        <ele>2007</ele>
        <time>2011-05-03T13:35:29Z</time>
      </trkpt>
      <trkpt lat="42.54523" lon="2.00584">
        <ele>2006</ele>
        <time>2011-05-03T13:35:35Z</time>
      </trkpt>
      <trkpt lat="42.54521" lon="2.00592">
        <ele>2006</ele>
        <time>2011-05-03T13:35:41Z</time>
      </trkpt>
      <trkpt lat="42.54518" lon="2.00601">
        <ele>2006</ele>
        <time>2011-05-03T13:35:47Z</time>
      </trkpt>
      <trkpt lat="42.54519" lon="2.00611">
        <ele>2006</ele>
        <time>2011-05-03T13:36:21Z</time>
      </trkpt>
      <trkpt lat="42.54517" lon="2.0062">
        <ele>2006</ele>
        <time>2011-05-03T13:36:27Z</time>
      </trkpt>
      <trkpt lat="42.54516" lon="2.00629">
        <ele>2007</ele>
        <time>2011-05-03T13:36:33Z</time>
      </trkpt>
      <trkpt lat="42.54514" lon="2.00638">
        <ele>2007</ele>
        <time>2011-05-03T13:36:39Z</time>
      </trkpt>
      <trkpt lat="42.54512" lon="2.00647">
        <ele>2007</ele>
        <time>2011-05-03T13:36:45Z</time>
      </trkpt>
      <trkpt lat="42.54511" lon="2.00657">
        <ele>2007</ele>
        <time>2011-05-03T13:36:51Z</time>
      </trkpt>
      <trkpt lat="42.5451" lon="2.00666">
        <ele>2007</ele>
        <time>2011-05-03T13:36:57Z</time>
      </trkpt>
      <trkpt lat="42.5451" lon="2.00675">
        <ele>2007</ele>
        <time>2011-05-03T13:37:03Z</time>
      </trkpt>
      <trkpt lat="42.54512" lon="2.00685">
        <ele>2007</ele>
        <time>2011-05-03T13:37:10Z</time>
      </trkpt>
      <trkpt lat="42.54512" lon="2.00694">
        <ele>2008</ele>
        <time>2011-05-03T13:37:16Z</time>
      </trkpt>
      <trkpt lat="42.54511" lon="2.00703">
        <ele>2008</ele>
        <time>2011-05-03T13:37:22Z</time>
      </trkpt>
      <trkpt lat="42.54511" lon="2.00713">
        <ele>2008</ele>
        <time>2011-05-03T13:37:29Z</time>
      </trkpt>
      <trkpt lat="42.54514" lon="2.00722">
        <ele>2008</ele>
        <time>2011-05-03T13:37:37Z</time>
      </trkpt>
      <trkpt lat="42.54515" lon="2.00731">
        <ele>2008</ele>
        <time>2011-05-03T13:37:44Z</time>
      </trkpt>
      <trkpt lat="42.54516" lon="2.00739">
        <ele>2008</ele>
        <time>2011-05-03T13:37:51Z</time>
      </trkpt>
      <trkpt lat="42.54519" lon="2.00747">
        <ele>2009</ele>
        <time>2011-05-03T13:37:58Z</time>
      </trkpt>
      <trkpt lat="42.54521" lon="2.00755">
        <ele>2009</ele>
        <time>2011-05-03T13:38:12Z</time>
      </trkpt>
      <trkpt lat="42.54527" lon="2.00761">
        <ele>2009</ele>
        <time>2011-05-03T13:38:26Z</time>
      </trkpt>
      <trkpt lat="42.54519" lon="2.00762">
        <ele>2010</ele>
        <time>2011-05-03T13:39:12Z</time>
      </trkpt>
      <trkpt lat="42.54515" lon="2.00769">
        <ele>2010</ele>
        <time>2011-05-03T13:39:20Z</time>
      </trkpt>
      <trkpt lat="42.54509" lon="2.00771">
        <ele>2010</ele>
        <time>2011-05-03T13:39:40Z</time>
      </trkpt>
      <trkpt lat="42.54505" lon="2.00777">
        <ele>2010</ele>
        <time>2011-05-03T13:40:01Z</time>
      </trkpt>
      <trkpt lat="42.54501" lon="2.00784">
        <ele>2010</ele>
        <time>2011-05-03T13:40:10Z</time>
      </trkpt>
      <trkpt lat="42.54499" lon="2.00793">
        <ele>2010</ele>
        <time>2011-05-03T13:40:19Z</time>
      </trkpt>
      <trkpt lat="42.54496" lon="2.00801">
        <ele>2010</ele>
        <time>2011-05-03T13:40:28Z</time>
      </trkpt>
      <trkpt lat="42.54493" lon="2.00809">
        <ele>2011</ele>
        <time>2011-05-03T13:40:37Z</time>
      </trkpt>
      <trkpt lat="42.54491" lon="2.00818">
        <ele>2011</ele>
        <time>2011-05-03T13:40:45Z</time>
      </trkpt>
      <trkpt lat="42.5449" lon="2.00826">
        <ele>2011</ele>
        <time>2011-05-03T13:40:52Z</time>
      </trkpt>
      <trkpt lat="42.54488" lon="2.00835">
        <ele>2012</ele>
        <time>2011-05-03T13:40:59Z</time>
      </trkpt>
      <trkpt lat="42.54487" lon="2.00843">
        <ele>2012</ele>
        <time>2011-05-03T13:41:05Z</time>
      </trkpt>
      <trkpt lat="42.54486" lon="2.00853">
        <ele>2012</ele>
        <time>2011-05-03T13:41:12Z</time>
      </trkpt>
      <trkpt lat="42.54484" lon="2.00871">
        <ele>2013</ele>
        <time>2011-05-03T13:41:24Z</time>
      </trkpt>
      <trkpt lat="42.54483" lon="2.0088">
        <ele>2013</ele>
        <time>2011-05-03T13:41:30Z</time>
      </trkpt>
      <trkpt lat="42.54482" lon="2.00889">
        <ele>2013</ele>
        <time>2011-05-03T13:41:36Z</time>
      </trkpt>
      <trkpt lat="42.5448" lon="2.00899">
        <ele>2014</ele>
        <time>2011-05-03T13:41:42Z</time>
      </trkpt>
      <trkpt lat="42.54478" lon="2.00908">
        <ele>2014</ele>
        <time>2011-05-03T13:41:48Z</time>
      </trkpt>
      <trkpt lat="42.54476" lon="2.00916">
        <ele>2014</ele>
        <time>2011-05-03T13:41:56Z</time>
      </trkpt>
      <trkpt lat="42.54472" lon="2.00925">
        <ele>2014</ele>
        <time>2011-05-03T13:42:04Z</time>
      </trkpt>
      <trkpt lat="42.54469" lon="2.00932">
        <ele>2014</ele>
        <time>2011-05-03T13:42:10Z</time>
      </trkpt>
      <trkpt lat="42.54467" lon="2.00942">
        <ele>2015</ele>
        <time>2011-05-03T13:42:17Z</time>
      </trkpt>
      <trkpt lat="42.54466" lon="2.00951">
        <ele>2015</ele>
        <time>2011-05-03T13:42:26Z</time>
      </trkpt>
      <trkpt lat="42.54464" lon="2.00959">
        <ele>2015</ele>
        <time>2011-05-03T13:42:33Z</time>
      </trkpt>
      <trkpt lat="42.54461" lon="2.00967">
        <ele>2015</ele>
        <time>2011-05-03T13:42:39Z</time>
      </trkpt>
      <trkpt lat="42.54458" lon="2.00975">
        <ele>2016</ele>
        <time>2011-05-03T13:42:45Z</time>
      </trkpt>
      <trkpt lat="42.54456" lon="2.00984">
        <ele>2016</ele>
        <time>2011-05-03T13:42:52Z</time>
      </trkpt>
      <trkpt lat="42.54455" lon="2.00993">
        <ele>2016</ele>
        <time>2011-05-03T13:43:04Z</time>
      </trkpt>
      <trkpt lat="42.54453" lon="2.01001">
        <ele>2017</ele>
        <time>2011-05-03T13:43:14Z</time>
      </trkpt>
      <trkpt lat="42.5445" lon="2.01009">
        <ele>2017</ele>
        <time>2011-05-03T13:43:27Z</time>
      </trkpt>
      <trkpt lat="42.54448" lon="2.01017">
        <ele>2018</ele>
        <time>2011-05-03T13:43:36Z</time>
      </trkpt>
      <trkpt lat="42.54446" lon="2.01026">
        <ele>2018</ele>
        <time>2011-05-03T13:43:44Z</time>
      </trkpt>
      <trkpt lat="42.54445" lon="2.01035">
        <ele>2018</ele>
        <time>2011-05-03T13:43:54Z</time>
      </trkpt>
      <trkpt lat="42.54445" lon="2.01044">
        <ele>2018</ele>
        <time>2011-05-03T13:44:03Z</time>
      </trkpt>
      <trkpt lat="42.54445" lon="2.01053">
        <ele>2018</ele>
        <time>2011-05-03T13:44:10Z</time>
      </trkpt>
      <trkpt lat="42.54444" lon="2.01063">
        <ele>2018</ele>
        <time>2011-05-03T13:44:17Z</time>
      </trkpt>
      <trkpt lat="42.54443" lon="2.01072">
        <ele>2019</ele>
        <time>2011-05-03T13:44:23Z</time>
      </trkpt>
      <trkpt lat="42.54442" lon="2.01081">
        <ele>2019</ele>
        <time>2011-05-03T13:44:29Z</time>
      </trkpt>
      <trkpt lat="42.54441" lon="2.0109">
        <ele>2019</ele>
        <time>2011-05-03T13:44:48Z</time>
      </trkpt>
      <trkpt lat="42.54439" lon="2.01098">
        <ele>2019</ele>
        <time>2011-05-03T13:45:04Z</time>
      </trkpt>
      <trkpt lat="42.54438" lon="2.01107">
        <ele>2019</ele>
        <time>2011-05-03T13:45:10Z</time>
      </trkpt>
      <trkpt lat="42.54438" lon="2.01116">
        <ele>2019</ele>
        <time>2011-05-03T13:45:16Z</time>
      </trkpt>
      <trkpt lat="42.54436" lon="2.01125">
        <ele>2019</ele>
        <time>2011-05-03T13:45:22Z</time>
      </trkpt>
      <trkpt lat="42.54435" lon="2.01134">
        <ele>2019</ele>
        <time>2011-05-03T13:45:28Z</time>
      </trkpt>
      <trkpt lat="42.54434" lon="2.01144">
        <ele>2019</ele>
        <time>2011-05-03T13:45:34Z</time>
      </trkpt>
      <trkpt lat="42.54433" lon="2.01152">
        <ele>2019</ele>
        <time>2011-05-03T13:45:40Z</time>
      </trkpt>
      <trkpt lat="42.54431" lon="2.01161">
        <ele>2019</ele>
        <time>2011-05-03T13:45:46Z</time>
      </trkpt>
      <trkpt lat="42.54429" lon="2.01169">
        <ele>2019</ele>
        <time>2011-05-03T13:45:53Z</time>
      </trkpt>
      <trkpt lat="42.54426" lon="2.01177">
        <ele>2019</ele>
        <time>2011-05-03T13:46:00Z</time>
      </trkpt>
      <trkpt lat="42.54424" lon="2.01185">
        <ele>2020</ele>
        <time>2011-05-03T13:46:07Z</time>
      </trkpt>
      <trkpt lat="42.54419" lon="2.01202">
        <ele>2020</ele>
        <time>2011-05-03T13:46:22Z</time>
      </trkpt>
      <trkpt lat="42.54414" lon="2.01218">
        <ele>2020</ele>
        <time>2011-05-03T13:46:42Z</time>
      </trkpt>
      <trkpt lat="42.54411" lon="2.01227">
        <ele>2020</ele>
        <time>2011-05-03T13:46:54Z</time>
      </trkpt>
      <trkpt lat="42.54409" lon="2.01235">
        <ele>2021</ele>
        <time>2011-05-03T13:47:02Z</time>
      </trkpt>
      <trkpt lat="42.54405" lon="2.01252">
        <ele>2021</ele>
        <time>2011-05-03T13:47:18Z</time>
      </trkpt>
      <trkpt lat="42.54403" lon="2.01261">
        <ele>2022</ele>
        <time>2011-05-03T13:47:32Z</time>
      </trkpt>
      <trkpt lat="42.54403" lon="2.0127">
        <ele>2022</ele>
        <time>2011-05-03T13:47:45Z</time>
      </trkpt>
      <trkpt lat="42.54398" lon="2.01286">
        <ele>2020</ele>
        <time>2011-05-03T13:48:27Z</time>
      </trkpt>
      <trkpt lat="42.54393" lon="2.01293">
        <ele>2020</ele>
        <time>2011-05-03T13:48:35Z</time>
      </trkpt>
      <trkpt lat="42.54389" lon="2.013">
        <ele>2020</ele>
        <time>2011-05-03T13:48:42Z</time>
      </trkpt>
      <trkpt lat="42.54384" lon="2.01307">
        <ele>2020</ele>
        <time>2011-05-03T13:48:50Z</time>
      </trkpt>
      <trkpt lat="42.5438" lon="2.01315">
        <ele>2021</ele>
        <time>2011-05-03T13:48:58Z</time>
      </trkpt>
      <trkpt lat="42.54373" lon="2.01331">
        <ele>2021</ele>
        <time>2011-05-03T13:49:12Z</time>
      </trkpt>
      <trkpt lat="42.54369" lon="2.01339">
        <ele>2022</ele>
        <time>2011-05-03T13:49:19Z</time>
      </trkpt>
      <trkpt lat="42.54366" lon="2.01347">
        <ele>2022</ele>
        <time>2011-05-03T13:49:26Z</time>
      </trkpt>
      <trkpt lat="42.54362" lon="2.01355">
        <ele>2023</ele>
        <time>2011-05-03T13:49:33Z</time>
      </trkpt>
      <trkpt lat="42.5436" lon="2.01364">
        <ele>2023</ele>
        <time>2011-05-03T13:49:40Z</time>
      </trkpt>
      <trkpt lat="42.54349" lon="2.01387">
        <ele>2025</ele>
        <time>2011-05-03T13:50:08Z</time>
      </trkpt>
      <trkpt lat="42.54342" lon="2.014">
        <ele>2025</ele>
        <time>2011-05-03T13:50:27Z</time>
      </trkpt>
      <trkpt lat="42.54338" lon="2.01408">
        <ele>2026</ele>
        <time>2011-05-03T13:50:37Z</time>
      </trkpt>
      <trkpt lat="42.54335" lon="2.01416">
        <ele>2026</ele>
        <time>2011-05-03T13:50:49Z</time>
      </trkpt>
      <trkpt lat="42.54333" lon="2.01425">
        <ele>2026</ele>
        <time>2011-05-03T13:50:58Z</time>
      </trkpt>
      <trkpt lat="42.54326" lon="2.0144">
        <ele>2026</ele>
        <time>2011-05-03T13:51:16Z</time>
      </trkpt>
      <trkpt lat="42.54324" lon="2.01449">
        <ele>2026</ele>
        <time>2011-05-03T13:51:25Z</time>
      </trkpt>
      <trkpt lat="42.54317" lon="2.01465">
        <ele>2026</ele>
        <time>2011-05-03T13:51:43Z</time>
      </trkpt>
      <trkpt lat="42.54315" lon="2.01473">
        <ele>2026</ele>
        <time>2011-05-03T13:51:53Z</time>
      </trkpt>
      <trkpt lat="42.54311" lon="2.01481">
        <ele>2026</ele>
        <time>2011-05-03T13:52:04Z</time>
      </trkpt>
      <trkpt lat="42.54308" lon="2.01489">
        <ele>2026</ele>
        <time>2011-05-03T13:52:19Z</time>
      </trkpt>
      <trkpt lat="42.54299" lon="2.01513">
        <ele>2026</ele>
        <time>2011-05-03T13:52:46Z</time>
      </trkpt>
      <trkpt lat="42.54296" lon="2.0152">
        <ele>2026</ele>
        <time>2011-05-03T13:52:56Z</time>
      </trkpt>
      <trkpt lat="42.54295" lon="2.0153">
        <ele>2026</ele>
        <time>2011-05-03T13:53:04Z</time>
      </trkpt>
      <trkpt lat="42.54293" lon="2.01538">
        <ele>2026</ele>
        <time>2011-05-03T13:53:09Z</time>
      </trkpt>
      <trkpt lat="42.5429" lon="2.01546">
        <ele>2026</ele>
        <time>2011-05-03T13:53:14Z</time>
      </trkpt>
      <trkpt lat="42.54289" lon="2.01555">
        <ele>2026</ele>
        <time>2011-05-03T13:53:22Z</time>
      </trkpt>
      <trkpt lat="42.5429" lon="2.01564">
        <ele>2026</ele>
        <time>2011-05-03T13:53:35Z</time>
      </trkpt>
      <trkpt lat="42.5429" lon="2.01572">
        <ele>2025</ele>
        <time>2011-05-03T13:53:47Z</time>
      </trkpt>
      <trkpt lat="42.54282" lon="2.01596">
        <ele>2025</ele>
        <time>2011-05-03T13:54:26Z</time>
      </trkpt>
      <trkpt lat="42.54282" lon="2.01604">
        <ele>2024</ele>
        <time>2011-05-03T13:54:37Z</time>
      </trkpt>
      <trkpt lat="42.54284" lon="2.01613">
        <ele>2024</ele>
        <time>2011-05-03T13:54:53Z</time>
      </trkpt>
      <trkpt lat="42.54285" lon="2.01621">
        <ele>2023</ele>
        <time>2011-05-03T13:55:05Z</time>
      </trkpt>
      <trkpt lat="42.54285" lon="2.0163">
        <ele>2022</ele>
        <time>2011-05-03T13:55:12Z</time>
      </trkpt>
      <trkpt lat="42.54284" lon="2.01656">
        <ele>2020</ele>
        <time>2011-05-03T13:56:01Z</time>
      </trkpt>
      <trkpt lat="42.54284" lon="2.01665">
        <ele>2019</ele>
        <time>2011-05-03T13:56:10Z</time>
      </trkpt>
      <trkpt lat="42.54284" lon="2.01674">
        <ele>2018</ele>
        <time>2011-05-03T13:56:20Z</time>
      </trkpt>
      <trkpt lat="42.54285" lon="2.01683">
        <ele>2017</ele>
        <time>2011-05-03T13:56:31Z</time>
      </trkpt>
      <trkpt lat="42.54285" lon="2.01692">
        <ele>2016</ele>
        <time>2011-05-03T13:56:42Z</time>
      </trkpt>
      <trkpt lat="42.54286" lon="2.01701">
        <ele>2016</ele>
        <time>2011-05-03T13:56:56Z</time>
      </trkpt>
      <trkpt lat="42.5429" lon="2.01728">
        <ele>2014</ele>
        <time>2011-05-03T13:57:22Z</time>
      </trkpt>
      <trkpt lat="42.54292" lon="2.01738">
        <ele>2013</ele>
        <time>2011-05-03T13:57:29Z</time>
      </trkpt>
      <trkpt lat="42.54292" lon="2.01746">
        <ele>2013</ele>
        <time>2011-05-03T13:57:35Z</time>
      </trkpt>
      <trkpt lat="42.54293" lon="2.01755">
        <ele>2013</ele>
        <time>2011-05-03T13:57:43Z</time>
      </trkpt>
      <trkpt lat="42.54292" lon="2.01764">
        <ele>2013</ele>
        <time>2011-05-03T13:57:50Z</time>
      </trkpt>
      <trkpt lat="42.5429" lon="2.01772">
        <ele>2013</ele>
        <time>2011-05-03T13:57:56Z</time>
      </trkpt>
      <trkpt lat="42.5429" lon="2.01781">
        <ele>2013</ele>
        <time>2011-05-03T13:58:03Z</time>
      </trkpt>
      <trkpt lat="42.54289" lon="2.0179">
        <ele>2013</ele>
        <time>2011-05-03T13:58:11Z</time>
      </trkpt>
      <trkpt lat="42.54287" lon="2.01798">
        <ele>2013</ele>
        <time>2011-05-03T13:58:18Z</time>
      </trkpt>
      <trkpt lat="42.54285" lon="2.01807">
        <ele>2014</ele>
        <time>2011-05-03T13:58:24Z</time>
      </trkpt>
      <trkpt lat="42.54285" lon="2.01816">
        <ele>2014</ele>
        <time>2011-05-03T13:58:31Z</time>
      </trkpt>
      <trkpt lat="42.54284" lon="2.01843">
        <ele>2016</ele>
        <time>2011-05-03T13:58:55Z</time>
      </trkpt>
      <trkpt lat="42.54274" lon="2.01866">
        <ele>2017</ele>
        <time>2011-05-03T13:59:22Z</time>
      </trkpt>
      <trkpt lat="42.54272" lon="2.01876">
        <ele>2017</ele>
        <time>2011-05-03T13:59:28Z</time>
      </trkpt>
      <trkpt lat="42.5427" lon="2.01884">
        <ele>2017</ele>
        <time>2011-05-03T13:59:33Z</time>
      </trkpt>
      <trkpt lat="42.54266" lon="2.01893">
        <ele>2017</ele>
        <time>2011-05-03T13:59:38Z</time>
      </trkpt>
      <trkpt lat="42.54262" lon="2.01902">
        <ele>2017</ele>
        <time>2011-05-03T13:59:43Z</time>
      </trkpt>
      <trkpt lat="42.5426" lon="2.0191">
        <ele>2016</ele>
        <time>2011-05-03T13:59:49Z</time>
      </trkpt>
      <trkpt lat="42.54258" lon="2.01918">
        <ele>2016</ele>
        <time>2011-05-03T13:59:56Z</time>
      </trkpt>
      <trkpt lat="42.54256" lon="2.01926">
        <ele>2016</ele>
        <time>2011-05-03T14:00:03Z</time>
      </trkpt>
      <trkpt lat="42.54254" lon="2.01936">
        <ele>2015</ele>
        <time>2011-05-03T14:00:08Z</time>
      </trkpt>
      <trkpt lat="42.54251" lon="2.01944">
        <ele>2015</ele>
        <time>2011-05-03T14:00:12Z</time>
      </trkpt>
      <trkpt lat="42.54243" lon="2.01969">
        <ele>2013</ele>
        <time>2011-05-03T14:00:30Z</time>
      </trkpt>
      <trkpt lat="42.54241" lon="2.01978">
        <ele>2012</ele>
        <time>2011-05-03T14:00:38Z</time>
      </trkpt>
      <trkpt lat="42.54238" lon="2.01986">
        <ele>2011</ele>
        <time>2011-05-03T14:00:46Z</time>
      </trkpt>
      <trkpt lat="42.54239" lon="2.01996">
        <ele>2010</ele>
        <time>2011-05-03T14:00:56Z</time>
      </trkpt>
      <trkpt lat="42.54243" lon="2.02004">
        <ele>2010</ele>
        <time>2011-05-03T14:01:00Z</time>
      </trkpt>
      <trkpt lat="42.54247" lon="2.02011">
        <ele>2010</ele>
        <time>2011-05-03T14:01:06Z</time>
      </trkpt>
      <trkpt lat="42.54251" lon="2.02017">
        <ele>2009</ele>
        <time>2011-05-03T14:01:21Z</time>
      </trkpt>
      <trkpt lat="42.54246" lon="2.02023">
        <ele>2007</ele>
        <time>2011-05-03T14:01:50Z</time>
      </trkpt>
      <trkpt lat="42.54241" lon="2.02028">
        <ele>2002</ele>
        <time>2011-05-03T14:02:03Z</time>
      </trkpt>
      <trkpt lat="42.5424" lon="2.02037">
        <ele>1999</ele>
        <time>2011-05-03T14:02:18Z</time>
      </trkpt>
      <trkpt lat="42.54237" lon="2.02045">
        <ele>1997</ele>
        <time>2011-05-03T14:02:48Z</time>
      </trkpt>
      <trkpt lat="42.54237" lon="2.02053">
        <ele>1997</ele>
        <time>2011-05-03T14:02:58Z</time>
      </trkpt>
      <trkpt lat="42.54236" lon="2.02062">
        <ele>1997</ele>
        <time>2011-05-03T14:03:08Z</time>
      </trkpt>
      <trkpt lat="42.54234" lon="2.02071">
        <ele>1997</ele>
        <time>2011-05-03T14:03:15Z</time>
      </trkpt>
      <trkpt lat="42.54232" lon="2.0208">
        <ele>1997</ele>
        <time>2011-05-03T14:03:22Z</time>
      </trkpt>
      <trkpt lat="42.5423" lon="2.02089">
        <ele>1997</ele>
        <time>2011-05-03T14:03:30Z</time>
      </trkpt>
      <trkpt lat="42.5423" lon="2.02098">
        <ele>1997</ele>
        <time>2011-05-03T14:03:41Z</time>
      </trkpt>
      <trkpt lat="42.5423" lon="2.02107">
        <ele>1996</ele>
        <time>2011-05-03T14:03:51Z</time>
      </trkpt>
      <trkpt lat="42.54228" lon="2.02116">
        <ele>1996</ele>
        <time>2011-05-03T14:04:00Z</time>
      </trkpt>
      <trkpt lat="42.54226" lon="2.02125">
        <ele>1995</ele>
        <time>2011-05-03T14:04:07Z</time>
      </trkpt>
      <trkpt lat="42.54224" lon="2.02133">
        <ele>1995</ele>
        <time>2011-05-03T14:04:16Z</time>
      </trkpt>
      <trkpt lat="42.54221" lon="2.02141">
        <ele>1994</ele>
        <time>2011-05-03T14:04:26Z</time>
      </trkpt>
      <trkpt lat="42.5422" lon="2.0215">
        <ele>1994</ele>
        <time>2011-05-03T14:04:36Z</time>
      </trkpt>
      <trkpt lat="42.54219" lon="2.02159">
        <ele>1993</ele>
        <time>2011-05-03T14:04:45Z</time>
      </trkpt>
      <trkpt lat="42.54217" lon="2.02167">
        <ele>1992</ele>
        <time>2011-05-03T14:04:59Z</time>
      </trkpt>
      <trkpt lat="42.54216" lon="2.02176">
        <ele>1991</ele>
        <time>2011-05-03T14:05:09Z</time>
      </trkpt>
      <trkpt lat="42.54216" lon="2.02185">
        <ele>1991</ele>
        <time>2011-05-03T14:05:17Z</time>
      </trkpt>
      <trkpt lat="42.54218" lon="2.02194">
        <ele>1991</ele>
        <time>2011-05-03T14:05:29Z</time>
      </trkpt>
      <trkpt lat="42.54217" lon="2.02202">
        <ele>1991</ele>
        <time>2011-05-03T14:05:39Z</time>
      </trkpt>
      <trkpt lat="42.54214" lon="2.0221">
        <ele>1991</ele>
        <time>2011-05-03T14:05:47Z</time>
      </trkpt>
      <trkpt lat="42.54214" lon="2.02219">
        <ele>1991</ele>
        <time>2011-05-03T14:05:54Z</time>
      </trkpt>
      <trkpt lat="42.54212" lon="2.02246">
        <ele>1989</ele>
        <time>2011-05-03T14:06:28Z</time>
      </trkpt>
      <trkpt lat="42.54214" lon="2.02255">
        <ele>1989</ele>
        <time>2011-05-03T14:06:40Z</time>
      </trkpt>
      <trkpt lat="42.54215" lon="2.02264">
        <ele>1989</ele>
        <time>2011-05-03T14:06:53Z</time>
      </trkpt>
      <trkpt lat="42.54214" lon="2.02274">
        <ele>1989</ele>
        <time>2011-05-03T14:07:04Z</time>
      </trkpt>
      <trkpt lat="42.54212" lon="2.02282">
        <ele>1989</ele>
        <time>2011-05-03T14:07:12Z</time>
      </trkpt>
      <trkpt lat="42.54211" lon="2.02291">
        <ele>1988</ele>
        <time>2011-05-03T14:07:20Z</time>
      </trkpt>
      <trkpt lat="42.54211" lon="2.02302">
        <ele>1988</ele>
        <time>2011-05-03T14:07:26Z</time>
      </trkpt>
      <trkpt lat="42.54213" lon="2.0231">
        <ele>1988</ele>
        <time>2011-05-03T14:07:31Z</time>
      </trkpt>
      <trkpt lat="42.54214" lon="2.02319">
        <ele>1987</ele>
        <time>2011-05-03T14:07:38Z</time>
      </trkpt>
      <trkpt lat="42.54208" lon="2.02323">
        <ele>1985</ele>
        <time>2011-05-03T14:07:46Z</time>
      </trkpt>
      <trkpt lat="42.54206" lon="2.02331">
        <ele>1984</ele>
        <time>2011-05-03T14:08:12Z</time>
      </trkpt>
      <trkpt lat="42.54207" lon="2.0234">
        <ele>1983</ele>
        <time>2011-05-03T14:08:31Z</time>
      </trkpt>
      <trkpt lat="42.54206" lon="2.02348">
        <ele>1983</ele>
        <time>2011-05-03T14:08:52Z</time>
      </trkpt>
      <trkpt lat="42.54203" lon="2.02356">
        <ele>1983</ele>
        <time>2011-05-03T14:09:01Z</time>
      </trkpt>
      <trkpt lat="42.542" lon="2.02364">
        <ele>1982</ele>
        <time>2011-05-03T14:09:07Z</time>
      </trkpt>
      <trkpt lat="42.54194" lon="2.0238">
        <ele>1982</ele>
        <time>2011-05-03T14:09:22Z</time>
      </trkpt>
      <trkpt lat="42.54192" lon="2.02389">
        <ele>1982</ele>
        <time>2011-05-03T14:09:27Z</time>
      </trkpt>
      <trkpt lat="42.54191" lon="2.02398">
        <ele>1982</ele>
        <time>2011-05-03T14:09:35Z</time>
      </trkpt>
      <trkpt lat="42.5419" lon="2.02407">
        <ele>1982</ele>
        <time>2011-05-03T14:09:43Z</time>
      </trkpt>
      <trkpt lat="42.54191" lon="2.02416">
        <ele>1981</ele>
        <time>2011-05-03T14:09:53Z</time>
      </trkpt>
      <trkpt lat="42.54191" lon="2.02425">
        <ele>1981</ele>
        <time>2011-05-03T14:10:02Z</time>
      </trkpt>
      <trkpt lat="42.54192" lon="2.02434">
        <ele>1979</ele>
        <time>2011-05-03T14:10:12Z</time>
      </trkpt>
      <trkpt lat="42.54194" lon="2.02443">
        <ele>1979</ele>
        <time>2011-05-03T14:10:28Z</time>
      </trkpt>
      <trkpt lat="42.54193" lon="2.02452">
        <ele>1978</ele>
        <time>2011-05-03T14:10:35Z</time>
      </trkpt>
      <trkpt lat="42.54192" lon="2.02462">
        <ele>1977</ele>
        <time>2011-05-03T14:10:42Z</time>
      </trkpt>
      <trkpt lat="42.54192" lon="2.0247">
        <ele>1977</ele>
        <time>2011-05-03T14:10:48Z</time>
      </trkpt>
      <trkpt lat="42.54195" lon="2.02498">
        <ele>1974</ele>
        <time>2011-05-03T14:11:13Z</time>
      </trkpt>
      <trkpt lat="42.54197" lon="2.02506">
        <ele>1974</ele>
        <time>2011-05-03T14:11:19Z</time>
      </trkpt>
      <trkpt lat="42.54198" lon="2.02516">
        <ele>1973</ele>
        <time>2011-05-03T14:11:25Z</time>
      </trkpt>
      <trkpt lat="42.54197" lon="2.02525">
        <ele>1972</ele>
        <time>2011-05-03T14:11:31Z</time>
      </trkpt>
      <trkpt lat="42.54197" lon="2.02534">
        <ele>1971</ele>
        <time>2011-05-03T14:11:38Z</time>
      </trkpt>
      <trkpt lat="42.54198" lon="2.02544">
        <ele>1970</ele>
        <time>2011-05-03T14:11:45Z</time>
      </trkpt>
      <trkpt lat="42.54199" lon="2.02552">
        <ele>1968</ele>
        <time>2011-05-03T14:11:52Z</time>
      </trkpt>
      <trkpt lat="42.542" lon="2.02561">
        <ele>1967</ele>
        <time>2011-05-03T14:11:59Z</time>
      </trkpt>
      <trkpt lat="42.54203" lon="2.02568">
        <ele>1966</ele>
        <time>2011-05-03T14:12:05Z</time>
      </trkpt>
      <trkpt lat="42.54207" lon="2.02575">
        <ele>1966</ele>
        <time>2011-05-03T14:12:09Z</time>
      </trkpt>
      <trkpt lat="42.54212" lon="2.02581">
        <ele>1964</ele>
        <time>2011-05-03T14:12:16Z</time>
      </trkpt>
      <trkpt lat="42.54213" lon="2.0259">
        <ele>1958</ele>
        <time>2011-05-03T14:12:43Z</time>
      </trkpt>
      <trkpt lat="42.54214" lon="2.02599">
        <ele>1955</ele>
        <time>2011-05-03T14:12:51Z</time>
      </trkpt>
      <trkpt lat="42.54215" lon="2.02608">
        <ele>1953</ele>
        <time>2011-05-03T14:12:59Z</time>
      </trkpt>
      <trkpt lat="42.54214" lon="2.02617">
        <ele>1951</ele>
        <time>2011-05-03T14:13:07Z</time>
      </trkpt>
      <trkpt lat="42.54214" lon="2.02626">
        <ele>1949</ele>
        <time>2011-05-03T14:13:15Z</time>
      </trkpt>
      <trkpt lat="42.54214" lon="2.02635">
        <ele>1948</ele>
        <time>2011-05-03T14:13:23Z</time>
      </trkpt>
      <trkpt lat="42.54209" lon="2.02661">
        <ele>1946</ele>
        <time>2011-05-03T14:13:44Z</time>
      </trkpt>
      <trkpt lat="42.54209" lon="2.02687">
        <ele>1945</ele>
        <time>2011-05-03T14:14:12Z</time>
      </trkpt>
      <trkpt lat="42.54208" lon="2.02696">
        <ele>1945</ele>
        <time>2011-05-03T14:14:20Z</time>
      </trkpt>
      <trkpt lat="42.54204" lon="2.02705">
        <ele>1945</ele>
        <time>2011-05-03T14:14:29Z</time>
      </trkpt>
      <trkpt lat="42.54199" lon="2.02731">
        <ele>1943</ele>
        <time>2011-05-03T14:14:55Z</time>
      </trkpt>
      <trkpt lat="42.54198" lon="2.0274">
        <ele>1943</ele>
        <time>2011-05-03T14:15:02Z</time>
      </trkpt>
      <trkpt lat="42.54198" lon="2.0275">
        <ele>1942</ele>
        <time>2011-05-03T14:15:09Z</time>
      </trkpt>
      <trkpt lat="42.54196" lon="2.02776">
        <ele>1942</ele>
        <time>2011-05-03T14:15:30Z</time>
      </trkpt>
      <trkpt lat="42.54194" lon="2.02804">
        <ele>1942</ele>
        <time>2011-05-03T14:15:52Z</time>
      </trkpt>
      <trkpt lat="42.54193" lon="2.02813">
        <ele>1942</ele>
        <time>2011-05-03T14:15:58Z</time>
      </trkpt>
      <trkpt lat="42.54192" lon="2.02822">
        <ele>1942</ele>
        <time>2011-05-03T14:16:04Z</time>
      </trkpt>
      <trkpt lat="42.54193" lon="2.02832">
        <ele>1942</ele>
        <time>2011-05-03T14:16:11Z</time>
      </trkpt>
      <trkpt lat="42.54195" lon="2.0286">
        <ele>1941</ele>
        <time>2011-05-03T14:16:32Z</time>
      </trkpt>
      <trkpt lat="42.54193" lon="2.02888">
        <ele>1940</ele>
        <time>2011-05-03T14:16:53Z</time>
      </trkpt>
      <trkpt lat="42.54194" lon="2.02897">
        <ele>1940</ele>
        <time>2011-05-03T14:17:00Z</time>
      </trkpt>
      <trkpt lat="42.54196" lon="2.02906">
        <ele>1940</ele>
        <time>2011-05-03T14:17:08Z</time>
      </trkpt>
      <trkpt lat="42.54197" lon="2.02914">
        <ele>1940</ele>
        <time>2011-05-03T14:17:15Z</time>
      </trkpt>
      <trkpt lat="42.54199" lon="2.02923">
        <ele>1939</ele>
        <time>2011-05-03T14:17:22Z</time>
      </trkpt>
      <trkpt lat="42.54201" lon="2.02932">
        <ele>1939</ele>
        <time>2011-05-03T14:17:30Z</time>
      </trkpt>
      <trkpt lat="42.54202" lon="2.02942">
        <ele>1939</ele>
        <time>2011-05-03T14:17:37Z</time>
      </trkpt>
      <trkpt lat="42.54203" lon="2.02969">
        <ele>1938</ele>
        <time>2011-05-03T14:17:58Z</time>
      </trkpt>
      <trkpt lat="42.54201" lon="2.02978">
        <ele>1937</ele>
        <time>2011-05-03T14:18:11Z</time>
      </trkpt>
      <trkpt lat="42.54203" lon="2.02987">
        <ele>1937</ele>
        <time>2011-05-03T14:18:19Z</time>
      </trkpt>
      <trkpt lat="42.54206" lon="2.02995">
        <ele>1936</ele>
        <time>2011-05-03T14:18:27Z</time>
      </trkpt>
      <trkpt lat="42.54209" lon="2.03003">
        <ele>1935</ele>
        <time>2011-05-03T14:18:39Z</time>
      </trkpt>
      <trkpt lat="42.54212" lon="2.0301">
        <ele>1935</ele>
        <time>2011-05-03T14:18:50Z</time>
      </trkpt>
      <trkpt lat="42.54216" lon="2.03017">
        <ele>1934</ele>
        <time>2011-05-03T14:18:59Z</time>
      </trkpt>
      <trkpt lat="42.54219" lon="2.03025">
        <ele>1932</ele>
        <time>2011-05-03T14:19:12Z</time>
      </trkpt>
      <trkpt lat="42.54223" lon="2.03032">
        <ele>1932</ele>
        <time>2011-05-03T14:19:37Z</time>
      </trkpt>
      <trkpt lat="42.54227" lon="2.03041">
        <ele>1931</ele>
        <time>2011-05-03T14:19:47Z</time>
      </trkpt>
      <trkpt lat="42.5423" lon="2.03048">
        <ele>1931</ele>
        <time>2011-05-03T14:19:52Z</time>
      </trkpt>
      <trkpt lat="42.54234" lon="2.03055">
        <ele>1930</ele>
        <time>2011-05-03T14:20:02Z</time>
      </trkpt>
      <trkpt lat="42.5424" lon="2.03058">
        <ele>1929</ele>
        <time>2011-05-03T14:20:17Z</time>
      </trkpt>
      <trkpt lat="42.54245" lon="2.03064">
        <ele>1928</ele>
        <time>2011-05-03T14:20:31Z</time>
      </trkpt>
      <trkpt lat="42.54248" lon="2.03072">
        <ele>1928</ele>
        <time>2011-05-03T14:20:52Z</time>
      </trkpt>
      <trkpt lat="42.54252" lon="2.03079">
        <ele>1928</ele>
        <time>2011-05-03T14:21:09Z</time>
      </trkpt>
      <trkpt lat="42.54256" lon="2.03085">
        <ele>1928</ele>
        <time>2011-05-03T14:21:23Z</time>
      </trkpt>
      <trkpt lat="42.54261" lon="2.03091">
        <ele>1928</ele>
        <time>2011-05-03T14:21:35Z</time>
      </trkpt>
      <trkpt lat="42.54267" lon="2.03095">
        <ele>1928</ele>
        <time>2011-05-03T14:21:41Z</time>
      </trkpt>
      <trkpt lat="42.54274" lon="2.03098">
        <ele>1928</ele>
        <time>2011-05-03T14:21:50Z</time>
      </trkpt>
      <trkpt lat="42.5428" lon="2.03101">
        <ele>1927</ele>
        <time>2011-05-03T14:22:02Z</time>
      </trkpt>
      <trkpt lat="42.54284" lon="2.03108">
        <ele>1927</ele>
        <time>2011-05-03T14:22:22Z</time>
      </trkpt>
      <trkpt lat="42.54285" lon="2.03117">
        <ele>1927</ele>
        <time>2011-05-03T14:22:37Z</time>
      </trkpt>
      <trkpt lat="42.54287" lon="2.03126">
        <ele>1927</ele>
        <time>2011-05-03T14:22:46Z</time>
      </trkpt>
      <trkpt lat="42.54287" lon="2.03136">
        <ele>1927</ele>
        <time>2011-05-03T14:22:56Z</time>
      </trkpt>
      <trkpt lat="42.54287" lon="2.03154">
        <ele>1927</ele>
        <time>2011-05-03T14:23:13Z</time>
      </trkpt>
      <trkpt lat="42.54288" lon="2.03164">
        <ele>1927</ele>
        <time>2011-05-03T14:23:22Z</time>
      </trkpt>
      <trkpt lat="42.54288" lon="2.03173">
        <ele>1927</ele>
        <time>2011-05-03T14:23:27Z</time>
      </trkpt>
      <trkpt lat="42.54288" lon="2.03183">
        <ele>1927</ele>
        <time>2011-05-03T14:23:33Z</time>
      </trkpt>
      <trkpt lat="42.5429" lon="2.03191">
        <ele>1927</ele>
        <time>2011-05-03T14:23:39Z</time>
      </trkpt>
      <trkpt lat="42.54294" lon="2.03199">
        <ele>1927</ele>
        <time>2011-05-03T14:23:46Z</time>
      </trkpt>
      <trkpt lat="42.54294" lon="2.03199">
        <ele>1829.1</ele>
        <time>2011-05-03T14:24:15Z</time>
      </trkpt>
      <trkpt lat="42.54294" lon="2.03199">
        <ele>1829.1</ele>
        <time>2011-05-03T14:47:33Z</time>
      </trkpt>
      <trkpt lat="42.54225" lon="2.03892">
        <ele>1827</ele>
        <time>2011-05-03T14:48:39Z</time>
      </trkpt>
      <trkpt lat="42.54222" lon="2.03901">
        <ele>1827</ele>
        <time>2011-05-03T14:48:45Z</time>
      </trkpt>
      <trkpt lat="42.54209" lon="2.03923">
        <ele>1827</ele>
        <time>2011-05-03T14:49:05Z</time>
      </trkpt>
      <trkpt lat="42.54204" lon="2.0393">
        <ele>1827</ele>
        <time>2011-05-03T14:49:10Z</time>
      </trkpt>
      <trkpt lat="42.54199" lon="2.03938">
        <ele>1828</ele>
        <time>2011-05-03T14:49:16Z</time>
      </trkpt>
      <trkpt lat="42.54196" lon="2.03946">
        <ele>1828</ele>
        <time>2011-05-03T14:49:21Z</time>
      </trkpt>
      <trkpt lat="42.54194" lon="2.03954">
        <ele>1828</ele>
        <time>2011-05-03T14:49:26Z</time>
      </trkpt>
      <trkpt lat="42.54192" lon="2.03964">
        <ele>1828</ele>
        <time>2011-05-03T14:49:32Z</time>
      </trkpt>
      <trkpt lat="42.54189" lon="2.03972">
        <ele>1828</ele>
        <time>2011-05-03T14:49:38Z</time>
      </trkpt>
      <trkpt lat="42.54186" lon="2.0398">
        <ele>1828</ele>
        <time>2011-05-03T14:49:44Z</time>
      </trkpt>
      <trkpt lat="42.54183" lon="2.03988">
        <ele>1828</ele>
        <time>2011-05-03T14:49:50Z</time>
      </trkpt>
      <trkpt lat="42.5418" lon="2.03996">
        <ele>1828</ele>
        <time>2011-05-03T14:49:56Z</time>
      </trkpt>
      <trkpt lat="42.54177" lon="2.04004">
        <ele>1828</ele>
        <time>2011-05-03T14:50:09Z</time>
      </trkpt>
      <trkpt lat="42.54172" lon="2.04011">
        <ele>1828</ele>
        <time>2011-05-03T14:50:16Z</time>
      </trkpt>
      <trkpt lat="42.5417" lon="2.04028">
        <ele>1829</ele>
        <time>2011-05-03T14:50:36Z</time>
      </trkpt>
      <trkpt lat="42.54168" lon="2.04046">
        <ele>1829</ele>
        <time>2011-05-03T14:50:51Z</time>
      </trkpt>
      <trkpt lat="42.54166" lon="2.04074">
        <ele>1829</ele>
        <time>2011-05-03T14:51:10Z</time>
      </trkpt>
      <trkpt lat="42.54162" lon="2.04082">
        <ele>1829</ele>
        <time>2011-05-03T14:51:16Z</time>
      </trkpt>
      <trkpt lat="42.54159" lon="2.0409">
        <ele>1829</ele>
        <time>2011-05-03T14:51:22Z</time>
      </trkpt>
      <trkpt lat="42.5416" lon="2.04099">
        <ele>1829</ele>
        <time>2011-05-03T14:51:29Z</time>
      </trkpt>
      <trkpt lat="42.54154" lon="2.04123">
        <ele>1829</ele>
        <time>2011-05-03T14:51:50Z</time>
      </trkpt>
      <trkpt lat="42.54149" lon="2.04129">
        <ele>1829</ele>
        <time>2011-05-03T14:51:56Z</time>
      </trkpt>
      <trkpt lat="42.54145" lon="2.04136">
        <ele>1829</ele>
        <time>2011-05-03T14:52:02Z</time>
      </trkpt>
      <trkpt lat="42.54141" lon="2.04143">
        <ele>1829</ele>
        <time>2011-05-03T14:52:07Z</time>
      </trkpt>
      <trkpt lat="42.54133" lon="2.04159">
        <ele>1829</ele>
        <time>2011-05-03T14:52:19Z</time>
      </trkpt>
      <trkpt lat="42.5413" lon="2.04166">
        <ele>1829</ele>
        <time>2011-05-03T14:52:25Z</time>
      </trkpt>
      <trkpt lat="42.54126" lon="2.04175">
        <ele>1829</ele>
        <time>2011-05-03T14:52:32Z</time>
      </trkpt>
      <trkpt lat="42.54122" lon="2.04181">
        <ele>1829</ele>
        <time>2011-05-03T14:52:37Z</time>
      </trkpt>
      <trkpt lat="42.54116" lon="2.04187">
        <ele>1829</ele>
        <time>2011-05-03T14:52:41Z</time>
      </trkpt>
      <trkpt lat="42.54111" lon="2.04192">
        <ele>1829</ele>
        <time>2011-05-03T14:52:45Z</time>
      </trkpt>
      <trkpt lat="42.54106" lon="2.04198">
        <ele>1829</ele>
        <time>2011-05-03T14:52:50Z</time>
      </trkpt>
      <trkpt lat="42.54101" lon="2.04203">
        <ele>1829</ele>
        <time>2011-05-03T14:52:55Z</time>
      </trkpt>
      <trkpt lat="42.54095" lon="2.04208">
        <ele>1830</ele>
        <time>2011-05-03T14:53:01Z</time>
      </trkpt>
      <trkpt lat="42.54082" lon="2.04228">
        <ele>1830</ele>
        <time>2011-05-03T14:53:59Z</time>
      </trkpt>
      <trkpt lat="42.54081" lon="2.04238">
        <ele>1831</ele>
        <time>2011-05-03T14:54:07Z</time>
      </trkpt>
      <trkpt lat="42.54079" lon="2.04256">
        <ele>1831</ele>
        <time>2011-05-03T14:54:22Z</time>
      </trkpt>
      <trkpt lat="42.54071" lon="2.04271">
        <ele>1832</ele>
        <time>2011-05-03T14:54:35Z</time>
      </trkpt>
      <trkpt lat="42.54068" lon="2.04278">
        <ele>1832</ele>
        <time>2011-05-03T14:54:40Z</time>
      </trkpt>
      <trkpt lat="42.54063" lon="2.04286">
        <ele>1832</ele>
        <time>2011-05-03T14:54:46Z</time>
      </trkpt>
      <trkpt lat="42.54058" lon="2.04293">
        <ele>1833</ele>
        <time>2011-05-03T14:54:52Z</time>
      </trkpt>
      <trkpt lat="42.54055" lon="2.04301">
        <ele>1833</ele>
        <time>2011-05-03T14:54:58Z</time>
      </trkpt>
      <trkpt lat="42.54048" lon="2.04317">
        <ele>1833</ele>
        <time>2011-05-03T14:55:10Z</time>
      </trkpt>
      <trkpt lat="42.54044" lon="2.04323">
        <ele>1833</ele>
        <time>2011-05-03T14:55:16Z</time>
      </trkpt>
      <trkpt lat="42.54039" lon="2.0433">
        <ele>1833</ele>
        <time>2011-05-03T14:55:22Z</time>
      </trkpt>
      <trkpt lat="42.54035" lon="2.04336">
        <ele>1833</ele>
        <time>2011-05-03T14:55:28Z</time>
      </trkpt>
      <trkpt lat="42.5403" lon="2.04342">
        <ele>1834</ele>
        <time>2011-05-03T14:55:34Z</time>
      </trkpt>
      <trkpt lat="42.54022" lon="2.04365">
        <ele>1834</ele>
        <time>2011-05-03T14:55:52Z</time>
      </trkpt>
      <trkpt lat="42.54019" lon="2.04373">
        <ele>1834</ele>
        <time>2011-05-03T14:56:03Z</time>
      </trkpt>
      <trkpt lat="42.54012" lon="2.04398">
        <ele>1834</ele>
        <time>2011-05-03T14:56:25Z</time>
      </trkpt>
      <trkpt lat="42.54008" lon="2.04406">
        <ele>1833</ele>
        <time>2011-05-03T14:56:32Z</time>
      </trkpt>
      <trkpt lat="42.54005" lon="2.04414">
        <ele>1833</ele>
        <time>2011-05-03T14:56:39Z</time>
      </trkpt>
      <trkpt lat="42.53998" lon="2.04439">
        <ele>1833</ele>
        <time>2011-05-03T14:57:11Z</time>
      </trkpt>
      <trkpt lat="42.53999" lon="2.04448">
        <ele>1833</ele>
        <time>2011-05-03T14:57:20Z</time>
      </trkpt>
      <trkpt lat="42.54002" lon="2.04456">
        <ele>1833</ele>
        <time>2011-05-03T14:57:26Z</time>
      </trkpt>
      <trkpt lat="42.54003" lon="2.04465">
        <ele>1833</ele>
        <time>2011-05-03T14:57:33Z</time>
      </trkpt>
      <trkpt lat="42.54002" lon="2.04474">
        <ele>1833</ele>
        <time>2011-05-03T14:57:41Z</time>
      </trkpt>
      <trkpt lat="42.54004" lon="2.04482">
        <ele>1833</ele>
        <time>2011-05-03T14:57:48Z</time>
      </trkpt>
      <trkpt lat="42.54002" lon="2.04491">
        <ele>1833</ele>
        <time>2011-05-03T14:57:54Z</time>
      </trkpt>
      <trkpt lat="42.53999" lon="2.04499">
        <ele>1833</ele>
        <time>2011-05-03T14:58:00Z</time>
      </trkpt>
      <trkpt lat="42.53995" lon="2.04508">
        <ele>1833</ele>
        <time>2011-05-03T14:58:06Z</time>
      </trkpt>
      <trkpt lat="42.53991" lon="2.04515">
        <ele>1833</ele>
        <time>2011-05-03T14:58:11Z</time>
      </trkpt>
      <trkpt lat="42.53983" lon="2.0453">
        <ele>1833</ele>
        <time>2011-05-03T14:58:23Z</time>
      </trkpt>
      <trkpt lat="42.53974" lon="2.04556">
        <ele>1831</ele>
        <time>2011-05-03T14:58:50Z</time>
      </trkpt>
      <trkpt lat="42.53972" lon="2.04565">
        <ele>1831</ele>
        <time>2011-05-03T14:58:57Z</time>
      </trkpt>
      <trkpt lat="42.53968" lon="2.04574">
        <ele>1830</ele>
        <time>2011-05-03T14:59:04Z</time>
      </trkpt>
      <trkpt lat="42.53965" lon="2.04581">
        <ele>1830</ele>
        <time>2011-05-03T14:59:10Z</time>
      </trkpt>
      <trkpt lat="42.53962" lon="2.04589">
        <ele>1829</ele>
        <time>2011-05-03T14:59:16Z</time>
      </trkpt>
      <trkpt lat="42.5396" lon="2.04598">
        <ele>1829</ele>
        <time>2011-05-03T14:59:23Z</time>
      </trkpt>
      <trkpt lat="42.53957" lon="2.04607">
        <ele>1828</ele>
        <time>2011-05-03T14:59:30Z</time>
      </trkpt>
      <trkpt lat="42.53955" lon="2.04615">
        <ele>1828</ele>
        <time>2011-05-03T14:59:36Z</time>
      </trkpt>
      <trkpt lat="42.53952" lon="2.04623">
        <ele>1827</ele>
        <time>2011-05-03T14:59:42Z</time>
      </trkpt>
      <trkpt lat="42.53949" lon="2.04631">
        <ele>1827</ele>
        <time>2011-05-03T14:59:48Z</time>
      </trkpt>
      <trkpt lat="42.53946" lon="2.0464">
        <ele>1827</ele>
        <time>2011-05-03T14:59:55Z</time>
      </trkpt>
      <trkpt lat="42.53944" lon="2.0465">
        <ele>1827</ele>
        <time>2011-05-03T15:00:02Z</time>
      </trkpt>
      <trkpt lat="42.53941" lon="2.04658">
        <ele>1827</ele>
        <time>2011-05-03T15:00:09Z</time>
      </trkpt>
      <trkpt lat="42.5394" lon="2.04667">
        <ele>1826</ele>
        <time>2011-05-03T15:00:16Z</time>
      </trkpt>
      <trkpt lat="42.53937" lon="2.04675">
        <ele>1826</ele>
        <time>2011-05-03T15:00:24Z</time>
      </trkpt>
      <trkpt lat="42.53927" lon="2.04698">
        <ele>1826</ele>
        <time>2011-05-03T15:00:46Z</time>
      </trkpt>
      <trkpt lat="42.53923" lon="2.04706">
        <ele>1826</ele>
        <time>2011-05-03T15:00:53Z</time>
      </trkpt>
      <trkpt lat="42.5392" lon="2.04715">
        <ele>1826</ele>
        <time>2011-05-03T15:01:00Z</time>
      </trkpt>
      <trkpt lat="42.53916" lon="2.04723">
        <ele>1826</ele>
        <time>2011-05-03T15:01:06Z</time>
      </trkpt>
      <trkpt lat="42.53911" lon="2.04729">
        <ele>1826</ele>
        <time>2011-05-03T15:01:12Z</time>
      </trkpt>
      <trkpt lat="42.53905" lon="2.04753">
        <ele>1826</ele>
        <time>2011-05-03T15:01:33Z</time>
      </trkpt>
      <trkpt lat="42.53902" lon="2.04761">
        <ele>1826</ele>
        <time>2011-05-03T15:01:40Z</time>
      </trkpt>
      <trkpt lat="42.53902" lon="2.0477">
        <ele>1826</ele>
        <time>2011-05-03T15:01:45Z</time>
      </trkpt>
      <trkpt lat="42.53901" lon="2.04779">
        <ele>1825</ele>
        <time>2011-05-03T15:01:51Z</time>
      </trkpt>
      <trkpt lat="42.53897" lon="2.04786">
        <ele>1825</ele>
        <time>2011-05-03T15:02:00Z</time>
      </trkpt>
      <trkpt lat="42.53895" lon="2.04794">
        <ele>1825</ele>
        <time>2011-05-03T15:02:08Z</time>
      </trkpt>
      <trkpt lat="42.53894" lon="2.04803">
        <ele>1824</ele>
        <time>2011-05-03T15:02:16Z</time>
      </trkpt>
      <trkpt lat="42.53896" lon="2.04813">
        <ele>1824</ele>
        <time>2011-05-03T15:02:26Z</time>
      </trkpt>
      <trkpt lat="42.53895" lon="2.04822">
        <ele>1824</ele>
        <time>2011-05-03T15:02:33Z</time>
      </trkpt>
      <trkpt lat="42.53892" lon="2.04829">
        <ele>1824</ele>
        <time>2011-05-03T15:02:39Z</time>
      </trkpt>
      <trkpt lat="42.53886" lon="2.04836">
        <ele>1823</ele>
        <time>2011-05-03T15:02:45Z</time>
      </trkpt>
      <trkpt lat="42.53881" lon="2.04842">
        <ele>1823</ele>
        <time>2011-05-03T15:02:51Z</time>
      </trkpt>
      <trkpt lat="42.53877" lon="2.04849">
        <ele>1823</ele>
        <time>2011-05-03T15:02:57Z</time>
      </trkpt>
      <trkpt lat="42.53873" lon="2.04856">
        <ele>1823</ele>
        <time>2011-05-03T15:03:03Z</time>
      </trkpt>
      <trkpt lat="42.5387" lon="2.04863">
        <ele>1822</ele>
        <time>2011-05-03T15:03:10Z</time>
      </trkpt>
      <trkpt lat="42.53867" lon="2.04871">
        <ele>1822</ele>
        <time>2011-05-03T15:03:19Z</time>
      </trkpt>
      <trkpt lat="42.53866" lon="2.04881">
        <ele>1822</ele>
        <time>2011-05-03T15:03:27Z</time>
      </trkpt>
      <trkpt lat="42.53864" lon="2.04889">
        <ele>1822</ele>
        <time>2011-05-03T15:03:34Z</time>
      </trkpt>
      <trkpt lat="42.53863" lon="2.04898">
        <ele>1821</ele>
        <time>2011-05-03T15:03:40Z</time>
      </trkpt>
      <trkpt lat="42.53862" lon="2.04906">
        <ele>1821</ele>
        <time>2011-05-03T15:03:46Z</time>
      </trkpt>
      <trkpt lat="42.53858" lon="2.04914">
        <ele>1821</ele>
        <time>2011-05-03T15:03:53Z</time>
      </trkpt>
      <trkpt lat="42.53856" lon="2.04922">
        <ele>1821</ele>
        <time>2011-05-03T15:04:00Z</time>
      </trkpt>
      <trkpt lat="42.53852" lon="2.04931">
        <ele>1821</ele>
        <time>2011-05-03T15:04:07Z</time>
      </trkpt>
      <trkpt lat="42.53848" lon="2.04938">
        <ele>1820</ele>
        <time>2011-05-03T15:04:13Z</time>
      </trkpt>
      <trkpt lat="42.53845" lon="2.04946">
        <ele>1820</ele>
        <time>2011-05-03T15:04:19Z</time>
      </trkpt>
      <trkpt lat="42.53842" lon="2.04954">
        <ele>1820</ele>
        <time>2011-05-03T15:04:26Z</time>
      </trkpt>
      <trkpt lat="42.53839" lon="2.04962">
        <ele>1820</ele>
        <time>2011-05-03T15:04:32Z</time>
      </trkpt>
      <trkpt lat="42.53837" lon="2.04972">
        <ele>1820</ele>
        <time>2011-05-03T15:04:38Z</time>
      </trkpt>
      <trkpt lat="42.53834" lon="2.0498">
        <ele>1820</ele>
        <time>2011-05-03T15:04:44Z</time>
      </trkpt>
      <trkpt lat="42.5383" lon="2.04988">
        <ele>1819</ele>
        <time>2011-05-03T15:04:51Z</time>
      </trkpt>
      <trkpt lat="42.53826" lon="2.04995">
        <ele>1819</ele>
        <time>2011-05-03T15:04:58Z</time>
      </trkpt>
      <trkpt lat="42.53822" lon="2.05001">
        <ele>1819</ele>
        <time>2011-05-03T15:05:05Z</time>
      </trkpt>
      <trkpt lat="42.53818" lon="2.05009">
        <ele>1819</ele>
        <time>2011-05-03T15:05:12Z</time>
      </trkpt>
      <trkpt lat="42.53815" lon="2.05016">
        <ele>1819</ele>
        <time>2011-05-03T15:05:19Z</time>
      </trkpt>
      <trkpt lat="42.5381" lon="2.05023">
        <ele>1819</ele>
        <time>2011-05-03T15:05:26Z</time>
      </trkpt>
      <trkpt lat="42.53807" lon="2.05031">
        <ele>1819</ele>
        <time>2011-05-03T15:05:34Z</time>
      </trkpt>
      <trkpt lat="42.53807" lon="2.0504">
        <ele>1819</ele>
        <time>2011-05-03T15:05:39Z</time>
      </trkpt>
      <trkpt lat="42.53804" lon="2.05049">
        <ele>1818</ele>
        <time>2011-05-03T15:05:47Z</time>
      </trkpt>
      <trkpt lat="42.53803" lon="2.05058">
        <ele>1818</ele>
        <time>2011-05-03T15:05:54Z</time>
      </trkpt>
      <trkpt lat="42.53802" lon="2.05067">
        <ele>1817</ele>
        <time>2011-05-03T15:06:01Z</time>
      </trkpt>
      <trkpt lat="42.53802" lon="2.05076">
        <ele>1817</ele>
        <time>2011-05-03T15:06:08Z</time>
      </trkpt>
      <trkpt lat="42.53801" lon="2.05085">
        <ele>1816</ele>
        <time>2011-05-03T15:06:15Z</time>
      </trkpt>
      <trkpt lat="42.53792" lon="2.0511">
        <ele>1815</ele>
        <time>2011-05-03T15:06:36Z</time>
      </trkpt>
      <trkpt lat="42.53788" lon="2.05118">
        <ele>1815</ele>
        <time>2011-05-03T15:06:43Z</time>
      </trkpt>
      <trkpt lat="42.53787" lon="2.05128">
        <ele>1814</ele>
        <time>2011-05-03T15:06:49Z</time>
      </trkpt>
      <trkpt lat="42.53786" lon="2.05137">
        <ele>1814</ele>
        <time>2011-05-03T15:06:54Z</time>
      </trkpt>
      <trkpt lat="42.53786" lon="2.05146">
        <ele>1814</ele>
        <time>2011-05-03T15:06:59Z</time>
      </trkpt>
      <trkpt lat="42.53787" lon="2.05155">
        <ele>1814</ele>
        <time>2011-05-03T15:07:04Z</time>
      </trkpt>
      <trkpt lat="42.53788" lon="2.05165">
        <ele>1813</ele>
        <time>2011-05-03T15:07:10Z</time>
      </trkpt>
      <trkpt lat="42.53788" lon="2.05174">
        <ele>1813</ele>
        <time>2011-05-03T15:07:15Z</time>
      </trkpt>
      <trkpt lat="42.53788" lon="2.05185">
        <ele>1813</ele>
        <time>2011-05-03T15:07:21Z</time>
      </trkpt>
      <trkpt lat="42.53787" lon="2.05194">
        <ele>1813</ele>
        <time>2011-05-03T15:07:27Z</time>
      </trkpt>
      <trkpt lat="42.53785" lon="2.05204">
        <ele>1813</ele>
        <time>2011-05-03T15:07:33Z</time>
      </trkpt>
      <trkpt lat="42.53784" lon="2.05213">
        <ele>1812</ele>
        <time>2011-05-03T15:07:39Z</time>
      </trkpt>
      <trkpt lat="42.53783" lon="2.05222">
        <ele>1812</ele>
        <time>2011-05-03T15:07:45Z</time>
      </trkpt>
      <trkpt lat="42.53781" lon="2.05232">
        <ele>1812</ele>
        <time>2011-05-03T15:07:51Z</time>
      </trkpt>
      <trkpt lat="42.53776" lon="2.05239">
        <ele>1812</ele>
        <time>2011-05-03T15:07:58Z</time>
      </trkpt>
      <trkpt lat="42.53772" lon="2.05246">
        <ele>1812</ele>
        <time>2011-05-03T15:08:04Z</time>
      </trkpt>
      <trkpt lat="42.5377" lon="2.05254">
        <ele>1812</ele>
        <time>2011-05-03T15:08:10Z</time>
      </trkpt>
      <trkpt lat="42.5377" lon="2.05263">
        <ele>1811</ele>
        <time>2011-05-03T15:08:16Z</time>
      </trkpt>
      <trkpt lat="42.53769" lon="2.05271">
        <ele>1811</ele>
        <time>2011-05-03T15:08:22Z</time>
      </trkpt>
      <trkpt lat="42.5376" lon="2.05298">
        <ele>1811</ele>
        <time>2011-05-03T15:08:41Z</time>
      </trkpt>
      <trkpt lat="42.5376" lon="2.05306">
        <ele>1811</ele>
        <time>2011-05-03T15:08:46Z</time>
      </trkpt>
      <trkpt lat="42.53758" lon="2.05316">
        <ele>1811</ele>
        <time>2011-05-03T15:08:52Z</time>
      </trkpt>
      <trkpt lat="42.53756" lon="2.05324">
        <ele>1811</ele>
        <time>2011-05-03T15:08:58Z</time>
      </trkpt>
      <trkpt lat="42.53752" lon="2.05332">
        <ele>1811</ele>
        <time>2011-05-03T15:09:04Z</time>
      </trkpt>
      <trkpt lat="42.5375" lon="2.0534">
        <ele>1811</ele>
        <time>2011-05-03T15:09:09Z</time>
      </trkpt>
      <trkpt lat="42.53749" lon="2.0535">
        <ele>1811</ele>
        <time>2011-05-03T15:09:15Z</time>
      </trkpt>
      <trkpt lat="42.53746" lon="2.05358">
        <ele>1811</ele>
        <time>2011-05-03T15:09:20Z</time>
      </trkpt>
      <trkpt lat="42.53743" lon="2.05366">
        <ele>1811</ele>
        <time>2011-05-03T15:09:25Z</time>
      </trkpt>
      <trkpt lat="42.5374" lon="2.05375">
        <ele>1811</ele>
        <time>2011-05-03T15:09:31Z</time>
      </trkpt>
      <trkpt lat="42.53736" lon="2.05383">
        <ele>1811</ele>
        <time>2011-05-03T15:09:37Z</time>
      </trkpt>
      <trkpt lat="42.53731" lon="2.05389">
        <ele>1811</ele>
        <time>2011-05-03T15:09:43Z</time>
      </trkpt>
      <trkpt lat="42.53723" lon="2.05403">
        <ele>1811</ele>
        <time>2011-05-03T15:10:11Z</time>
      </trkpt>
      <trkpt lat="42.5372" lon="2.0541">
        <ele>1811</ele>
        <time>2011-05-03T15:10:25Z</time>
      </trkpt>
      <trkpt lat="42.53715" lon="2.05418">
        <ele>1811</ele>
        <time>2011-05-03T15:10:32Z</time>
      </trkpt>
      <trkpt lat="42.53712" lon="2.05426">
        <ele>1811</ele>
        <time>2011-05-03T15:10:38Z</time>
      </trkpt>
      <trkpt lat="42.53707" lon="2.05433">
        <ele>1811</ele>
        <time>2011-05-03T15:10:44Z</time>
      </trkpt>
      <trkpt lat="42.53702" lon="2.05439">
        <ele>1811</ele>
        <time>2011-05-03T15:10:49Z</time>
      </trkpt>
      <trkpt lat="42.53697" lon="2.05446">
        <ele>1811</ele>
        <time>2011-05-03T15:10:55Z</time>
      </trkpt>
      <trkpt lat="42.53688" lon="2.05461">
        <ele>1811</ele>
        <time>2011-05-03T15:11:07Z</time>
      </trkpt>
      <trkpt lat="42.53685" lon="2.05469">
        <ele>1811</ele>
        <time>2011-05-03T15:11:13Z</time>
      </trkpt>
      <trkpt lat="42.53681" lon="2.05477">
        <ele>1811</ele>
        <time>2011-05-03T15:11:19Z</time>
      </trkpt>
      <trkpt lat="42.53677" lon="2.05484">
        <ele>1811</ele>
        <time>2011-05-03T15:11:25Z</time>
      </trkpt>
      <trkpt lat="42.53673" lon="2.05491">
        <ele>1811</ele>
        <time>2011-05-03T15:11:30Z</time>
      </trkpt>
      <trkpt lat="42.53669" lon="2.05499">
        <ele>1811</ele>
        <time>2011-05-03T15:11:36Z</time>
      </trkpt>
      <trkpt lat="42.53666" lon="2.05507">
        <ele>1811</ele>
        <time>2011-05-03T15:11:42Z</time>
      </trkpt>
      <trkpt lat="42.53662" lon="2.05516">
        <ele>1811</ele>
        <time>2011-05-03T15:11:48Z</time>
      </trkpt>
      <trkpt lat="42.5366" lon="2.05525">
        <ele>1811</ele>
        <time>2011-05-03T15:11:54Z</time>
      </trkpt>
      <trkpt lat="42.53658" lon="2.05534">
        <ele>1811</ele>
        <time>2011-05-03T15:12:00Z</time>
      </trkpt>
      <trkpt lat="42.53651" lon="2.0556">
        <ele>1811</ele>
        <time>2011-05-03T15:12:18Z</time>
      </trkpt>
      <trkpt lat="42.53646" lon="2.05566">
        <ele>1811</ele>
        <time>2011-05-03T15:12:24Z</time>
      </trkpt>
      <trkpt lat="42.53642" lon="2.05574">
        <ele>1810</ele>
        <time>2011-05-03T15:12:31Z</time>
      </trkpt>
      <trkpt lat="42.53648" lon="2.05601">
        <ele>1810</ele>
        <time>2011-05-03T15:12:48Z</time>
      </trkpt>
      <trkpt lat="42.53651" lon="2.05609">
        <ele>1810</ele>
        <time>2011-05-03T15:12:53Z</time>
      </trkpt>
      <trkpt lat="42.53654" lon="2.05618">
        <ele>1810</ele>
        <time>2011-05-03T15:12:58Z</time>
      </trkpt>
      <trkpt lat="42.53657" lon="2.05627">
        <ele>1810</ele>
        <time>2011-05-03T15:13:03Z</time>
      </trkpt>
      <trkpt lat="42.5366" lon="2.05645">
        <ele>1810</ele>
        <time>2011-05-03T15:13:14Z</time>
      </trkpt>
      <trkpt lat="42.5366" lon="2.05655">
        <ele>1810</ele>
        <time>2011-05-03T15:13:20Z</time>
      </trkpt>
      <trkpt lat="42.5366" lon="2.05664">
        <ele>1810</ele>
        <time>2011-05-03T15:13:26Z</time>
      </trkpt>
      <trkpt lat="42.53661" lon="2.05673">
        <ele>1810</ele>
        <time>2011-05-03T15:13:31Z</time>
      </trkpt>
      <trkpt lat="42.53661" lon="2.05683">
        <ele>1810</ele>
        <time>2011-05-03T15:13:37Z</time>
      </trkpt>
      <trkpt lat="42.53656" lon="2.057">
        <ele>1810</ele>
        <time>2011-05-03T15:13:50Z</time>
      </trkpt>
      <trkpt lat="42.53647" lon="2.05723">
        <ele>1810</ele>
        <time>2011-05-03T15:14:08Z</time>
      </trkpt>
      <trkpt lat="42.53642" lon="2.05731">
        <ele>1810</ele>
        <time>2011-05-03T15:14:14Z</time>
      </trkpt>
      <trkpt lat="42.53639" lon="2.05739">
        <ele>1810</ele>
        <time>2011-05-03T15:14:20Z</time>
      </trkpt>
      <trkpt lat="42.53637" lon="2.05748">
        <ele>1810</ele>
        <time>2011-05-03T15:14:26Z</time>
      </trkpt>
      <trkpt lat="42.53634" lon="2.05767">
        <ele>1810</ele>
        <time>2011-05-03T15:14:38Z</time>
      </trkpt>
      <trkpt lat="42.53632" lon="2.05776">
        <ele>1811</ele>
        <time>2011-05-03T15:14:44Z</time>
      </trkpt>
      <trkpt lat="42.53629" lon="2.05785">
        <ele>1811</ele>
        <time>2011-05-03T15:14:50Z</time>
      </trkpt>
      <trkpt lat="42.53627" lon="2.05793">
        <ele>1811</ele>
        <time>2011-05-03T15:14:56Z</time>
      </trkpt>
      <trkpt lat="42.5362" lon="2.05808">
        <ele>1811</ele>
        <time>2011-05-03T15:15:08Z</time>
      </trkpt>
      <trkpt lat="42.53614" lon="2.05815">
        <ele>1811</ele>
        <time>2011-05-03T15:15:15Z</time>
      </trkpt>
      <trkpt lat="42.53604" lon="2.05839">
        <ele>1811</ele>
        <time>2011-05-03T15:15:35Z</time>
      </trkpt>
      <trkpt lat="42.53603" lon="2.05858">
        <ele>1811</ele>
        <time>2011-05-03T15:15:46Z</time>
      </trkpt>
      <trkpt lat="42.53603" lon="2.05867">
        <ele>1811</ele>
        <time>2011-05-03T15:15:52Z</time>
      </trkpt>
      <trkpt lat="42.53592" lon="2.0589">
        <ele>1811</ele>
        <time>2011-05-03T15:16:10Z</time>
      </trkpt>
      <trkpt lat="42.53587" lon="2.05906">
        <ele>1811</ele>
        <time>2011-05-03T15:16:20Z</time>
      </trkpt>
      <trkpt lat="42.53584" lon="2.05914">
        <ele>1811</ele>
        <time>2011-05-03T15:16:26Z</time>
      </trkpt>
      <trkpt lat="42.53579" lon="2.05922">
        <ele>1811</ele>
        <time>2011-05-03T15:16:32Z</time>
      </trkpt>
      <trkpt lat="42.53576" lon="2.05929">
        <ele>1811</ele>
        <time>2011-05-03T15:16:38Z</time>
      </trkpt>
      <trkpt lat="42.53569" lon="2.05946">
        <ele>1811</ele>
        <time>2011-05-03T15:16:52Z</time>
      </trkpt>
      <trkpt lat="42.53567" lon="2.05954">
        <ele>1811</ele>
        <time>2011-05-03T15:16:58Z</time>
      </trkpt>
      <trkpt lat="42.5356" lon="2.05971">
        <ele>1811</ele>
        <time>2011-05-03T15:17:11Z</time>
      </trkpt>
      <trkpt lat="42.53557" lon="2.05979">
        <ele>1811</ele>
        <time>2011-05-03T15:17:17Z</time>
      </trkpt>
      <trkpt lat="42.53553" lon="2.05987">
        <ele>1811</ele>
        <time>2011-05-03T15:17:23Z</time>
      </trkpt>
      <trkpt lat="42.5355" lon="2.05996">
        <ele>1811</ele>
        <time>2011-05-03T15:17:29Z</time>
      </trkpt>
      <trkpt lat="42.5354" lon="2.0602">
        <ele>1810</ele>
        <time>2011-05-03T15:17:48Z</time>
      </trkpt>
      <trkpt lat="42.53537" lon="2.06028">
        <ele>1810</ele>
        <time>2011-05-03T15:17:54Z</time>
      </trkpt>
      <trkpt lat="42.53533" lon="2.06035">
        <ele>1810</ele>
        <time>2011-05-03T15:18:00Z</time>
      </trkpt>
      <trkpt lat="42.53526" lon="2.06051">
        <ele>1810</ele>
        <time>2011-05-03T15:18:12Z</time>
      </trkpt>
      <trkpt lat="42.53517" lon="2.06067">
        <ele>1810</ele>
        <time>2011-05-03T15:18:24Z</time>
      </trkpt>
      <trkpt lat="42.53512" lon="2.06074">
        <ele>1810</ele>
        <time>2011-05-03T15:18:30Z</time>
      </trkpt>
      <trkpt lat="42.53508" lon="2.06081">
        <ele>1810</ele>
        <time>2011-05-03T15:18:35Z</time>
      </trkpt>
      <trkpt lat="42.535" lon="2.06098">
        <ele>1811</ele>
        <time>2011-05-03T15:18:47Z</time>
      </trkpt>
      <trkpt lat="42.53496" lon="2.06105">
        <ele>1811</ele>
        <time>2011-05-03T15:18:53Z</time>
      </trkpt>
      <trkpt lat="42.53486" lon="2.06118">
        <ele>1811</ele>
        <time>2011-05-03T15:19:05Z</time>
      </trkpt>
      <trkpt lat="42.53474" lon="2.0614">
        <ele>1811</ele>
        <time>2011-05-03T15:19:23Z</time>
      </trkpt>
      <trkpt lat="42.53459" lon="2.06158">
        <ele>1811</ele>
        <time>2011-05-03T15:19:41Z</time>
      </trkpt>
      <trkpt lat="42.53444" lon="2.06175">
        <ele>1811</ele>
        <time>2011-05-03T15:19:59Z</time>
      </trkpt>
      <trkpt lat="42.53438" lon="2.06181">
        <ele>1811</ele>
        <time>2011-05-03T15:20:05Z</time>
      </trkpt>
      <trkpt lat="42.53432" lon="2.06186">
        <ele>1811</ele>
        <time>2011-05-03T15:20:11Z</time>
      </trkpt>
      <trkpt lat="42.53414" lon="2.06201">
        <ele>1811</ele>
        <time>2011-05-03T15:20:29Z</time>
      </trkpt>
      <trkpt lat="42.53397" lon="2.06218">
        <ele>1811</ele>
        <time>2011-05-03T15:20:46Z</time>
      </trkpt>
      <trkpt lat="42.53392" lon="2.06224">
        <ele>1811</ele>
        <time>2011-05-03T15:20:52Z</time>
      </trkpt>
      <trkpt lat="42.53386" lon="2.06229">
        <ele>1811</ele>
        <time>2011-05-03T15:20:58Z</time>
      </trkpt>
      <trkpt lat="42.53374" lon="2.06239">
        <ele>1811</ele>
        <time>2011-05-03T15:21:10Z</time>
      </trkpt>
      <trkpt lat="42.53368" lon="2.06243">
        <ele>1811</ele>
        <time>2011-05-03T15:21:16Z</time>
      </trkpt>
      <trkpt lat="42.53363" lon="2.06249">
        <ele>1811</ele>
        <time>2011-05-03T15:21:22Z</time>
      </trkpt>
      <trkpt lat="42.53357" lon="2.06254">
        <ele>1811</ele>
        <time>2011-05-03T15:21:28Z</time>
      </trkpt>
      <trkpt lat="42.53352" lon="2.06259">
        <ele>1811</ele>
        <time>2011-05-03T15:21:34Z</time>
      </trkpt>
      <trkpt lat="42.53348" lon="2.06267">
        <ele>1811</ele>
        <time>2011-05-03T15:21:40Z</time>
      </trkpt>
      <trkpt lat="42.53345" lon="2.06276">
        <ele>1811</ele>
        <time>2011-05-03T15:21:46Z</time>
      </trkpt>
      <trkpt lat="42.53338" lon="2.06294">
        <ele>1811</ele>
        <time>2011-05-03T15:21:58Z</time>
      </trkpt>
      <trkpt lat="42.53325" lon="2.06316">
        <ele>1811</ele>
        <time>2011-05-03T15:22:15Z</time>
      </trkpt>
      <trkpt lat="42.53321" lon="2.06324">
        <ele>1811</ele>
        <time>2011-05-03T15:22:21Z</time>
      </trkpt>
      <trkpt lat="42.53316" lon="2.0634">
        <ele>1811</ele>
        <time>2011-05-03T15:22:31Z</time>
      </trkpt>
      <trkpt lat="42.53308" lon="2.06367">
        <ele>1811</ele>
        <time>2011-05-03T15:22:49Z</time>
      </trkpt>
      <trkpt lat="42.53305" lon="2.06376">
        <ele>1811</ele>
        <time>2011-05-03T15:22:55Z</time>
      </trkpt>
      <trkpt lat="42.53297" lon="2.06393">
        <ele>1810</ele>
        <time>2011-05-03T15:23:07Z</time>
      </trkpt>
      <trkpt lat="42.53294" lon="2.06401">
        <ele>1810</ele>
        <time>2011-05-03T15:23:13Z</time>
      </trkpt>
      <trkpt lat="42.53278" lon="2.06421">
        <ele>1810</ele>
        <time>2011-05-03T15:23:31Z</time>
      </trkpt>
      <trkpt lat="42.53273" lon="2.06427">
        <ele>1809</ele>
        <time>2011-05-03T15:23:37Z</time>
      </trkpt>
      <trkpt lat="42.53271" lon="2.06437">
        <ele>1809</ele>
        <time>2011-05-03T15:23:42Z</time>
      </trkpt>
      <trkpt lat="42.53269" lon="2.06445">
        <ele>1809</ele>
        <time>2011-05-03T15:23:47Z</time>
      </trkpt>
      <trkpt lat="42.53263" lon="2.06451">
        <ele>1809</ele>
        <time>2011-05-03T15:23:53Z</time>
      </trkpt>
      <trkpt lat="42.53257" lon="2.06456">
        <ele>1808</ele>
        <time>2011-05-03T15:23:59Z</time>
      </trkpt>
      <trkpt lat="42.53252" lon="2.06462">
        <ele>1808</ele>
        <time>2011-05-03T15:24:04Z</time>
      </trkpt>
      <trkpt lat="42.53247" lon="2.06468">
        <ele>1808</ele>
        <time>2011-05-03T15:24:09Z</time>
      </trkpt>
      <trkpt lat="42.53242" lon="2.06473">
        <ele>1808</ele>
        <time>2011-05-03T15:24:14Z</time>
      </trkpt>
      <trkpt lat="42.53225" lon="2.06486">
        <ele>1807</ele>
        <time>2011-05-03T15:24:36Z</time>
      </trkpt>
      <trkpt lat="42.53219" lon="2.0649">
        <ele>1807</ele>
        <time>2011-05-03T15:24:43Z</time>
      </trkpt>
      <trkpt lat="42.53214" lon="2.06494">
        <ele>1807</ele>
        <time>2011-05-03T15:24:49Z</time>
      </trkpt>
      <trkpt lat="42.53205" lon="2.06508">
        <ele>1807</ele>
        <time>2011-05-03T15:25:01Z</time>
      </trkpt>
      <trkpt lat="42.53201" lon="2.06516">
        <ele>1807</ele>
        <time>2011-05-03T15:25:07Z</time>
      </trkpt>
      <trkpt lat="42.53198" lon="2.06525">
        <ele>1807</ele>
        <time>2011-05-03T15:25:14Z</time>
      </trkpt>
      <trkpt lat="42.53191" lon="2.0655">
        <ele>1806</ele>
        <time>2011-05-03T15:25:33Z</time>
      </trkpt>
      <trkpt lat="42.53189" lon="2.06559">
        <ele>1806</ele>
        <time>2011-05-03T15:25:39Z</time>
      </trkpt>
      <trkpt lat="42.53186" lon="2.06567">
        <ele>1806</ele>
        <time>2011-05-03T15:25:45Z</time>
      </trkpt>
      <trkpt lat="42.53183" lon="2.06575">
        <ele>1806</ele>
        <time>2011-05-03T15:25:51Z</time>
      </trkpt>
      <trkpt lat="42.5318" lon="2.06584">
        <ele>1806</ele>
        <time>2011-05-03T15:25:57Z</time>
      </trkpt>
      <trkpt lat="42.53177" lon="2.06591">
        <ele>1806</ele>
        <time>2011-05-03T15:26:03Z</time>
      </trkpt>
      <trkpt lat="42.53173" lon="2.066">
        <ele>1806</ele>
        <time>2011-05-03T15:26:10Z</time>
      </trkpt>
      <trkpt lat="42.53171" lon="2.06608">
        <ele>1806</ele>
        <time>2011-05-03T15:26:16Z</time>
      </trkpt>
      <trkpt lat="42.53167" lon="2.06616">
        <ele>1805</ele>
        <time>2011-05-03T15:26:22Z</time>
      </trkpt>
      <trkpt lat="42.53162" lon="2.06621">
        <ele>1805</ele>
        <time>2011-05-03T15:26:28Z</time>
      </trkpt>
      <trkpt lat="42.53152" lon="2.06635">
        <ele>1805</ele>
        <time>2011-05-03T15:26:40Z</time>
      </trkpt>
      <trkpt lat="42.53139" lon="2.06656">
        <ele>1805</ele>
        <time>2011-05-03T15:26:58Z</time>
      </trkpt>
      <trkpt lat="42.53138" lon="2.06664">
        <ele>1803</ele>
        <time>2011-05-03T15:27:39Z</time>
      </trkpt>
      <trkpt lat="42.53136" lon="2.06673">
        <ele>1802</ele>
        <time>2011-05-03T15:27:52Z</time>
      </trkpt>
      <trkpt lat="42.53134" lon="2.06681">
        <ele>1802</ele>
        <time>2011-05-03T15:27:58Z</time>
      </trkpt>
      <trkpt lat="42.53131" lon="2.06689">
        <ele>1801</ele>
        <time>2011-05-03T15:28:03Z</time>
      </trkpt>
      <trkpt lat="42.53127" lon="2.06697">
        <ele>1801</ele>
        <time>2011-05-03T15:28:09Z</time>
      </trkpt>
      <trkpt lat="42.53113" lon="2.06719">
        <ele>1800</ele>
        <time>2011-05-03T15:28:26Z</time>
      </trkpt>
      <trkpt lat="42.5311" lon="2.06727">
        <ele>1800</ele>
        <time>2011-05-03T15:28:31Z</time>
      </trkpt>
      <trkpt lat="42.53107" lon="2.06734">
        <ele>1799</ele>
        <time>2011-05-03T15:28:36Z</time>
      </trkpt>
      <trkpt lat="42.53104" lon="2.06742">
        <ele>1799</ele>
        <time>2011-05-03T15:28:41Z</time>
      </trkpt>
      <trkpt lat="42.53099" lon="2.06748">
        <ele>1799</ele>
        <time>2011-05-03T15:28:47Z</time>
      </trkpt>
      <trkpt lat="42.53095" lon="2.06756">
        <ele>1799</ele>
        <time>2011-05-03T15:28:53Z</time>
      </trkpt>
      <trkpt lat="42.53091" lon="2.06762">
        <ele>1798</ele>
        <time>2011-05-03T15:28:59Z</time>
      </trkpt>
      <trkpt lat="42.53088" lon="2.0677">
        <ele>1798</ele>
        <time>2011-05-03T15:29:05Z</time>
      </trkpt>
      <trkpt lat="42.53086" lon="2.06779">
        <ele>1798</ele>
        <time>2011-05-03T15:29:11Z</time>
      </trkpt>
      <trkpt lat="42.53085" lon="2.06788">
        <ele>1798</ele>
        <time>2011-05-03T15:29:16Z</time>
      </trkpt>
      <trkpt lat="42.53085" lon="2.06798">
        <ele>1798</ele>
        <time>2011-05-03T15:29:21Z</time>
      </trkpt>
      <trkpt lat="42.53088" lon="2.06827">
        <ele>1797</ele>
        <time>2011-05-03T15:29:36Z</time>
      </trkpt>
      <trkpt lat="42.53088" lon="2.06835">
        <ele>1797</ele>
        <time>2011-05-03T15:29:41Z</time>
      </trkpt>
      <trkpt lat="42.53088" lon="2.06845">
        <ele>1796</ele>
        <time>2011-05-03T15:29:47Z</time>
      </trkpt>
      <trkpt lat="42.53086" lon="2.06873">
        <ele>1796</ele>
        <time>2011-05-03T15:30:05Z</time>
      </trkpt>
      <trkpt lat="42.53086" lon="2.06883">
        <ele>1795</ele>
        <time>2011-05-03T15:30:11Z</time>
      </trkpt>
      <trkpt lat="42.53088" lon="2.06893">
        <ele>1795</ele>
        <time>2011-05-03T15:30:17Z</time>
      </trkpt>
      <trkpt lat="42.53088" lon="2.06903">
        <ele>1795</ele>
        <time>2011-05-03T15:30:23Z</time>
      </trkpt>
      <trkpt lat="42.53088" lon="2.06913">
        <ele>1794</ele>
        <time>2011-05-03T15:30:28Z</time>
      </trkpt>
      <trkpt lat="42.53089" lon="2.06922">
        <ele>1794</ele>
        <time>2011-05-03T15:30:33Z</time>
      </trkpt>
      <trkpt lat="42.53089" lon="2.06932">
        <ele>1794</ele>
        <time>2011-05-03T15:30:38Z</time>
      </trkpt>
      <trkpt lat="42.53087" lon="2.06941">
        <ele>1794</ele>
        <time>2011-05-03T15:30:43Z</time>
      </trkpt>
      <trkpt lat="42.53085" lon="2.06951">
        <ele>1793</ele>
        <time>2011-05-03T15:30:49Z</time>
      </trkpt>
      <trkpt lat="42.53083" lon="2.06961">
        <ele>1793</ele>
        <time>2011-05-03T15:30:55Z</time>
      </trkpt>
      <trkpt lat="42.53082" lon="2.06969">
        <ele>1793</ele>
        <time>2011-05-03T15:31:00Z</time>
      </trkpt>
      <trkpt lat="42.53082" lon="2.06979">
        <ele>1793</ele>
        <time>2011-05-03T15:31:06Z</time>
      </trkpt>
      <trkpt lat="42.53081" lon="2.06989">
        <ele>1792</ele>
        <time>2011-05-03T15:31:12Z</time>
      </trkpt>
      <trkpt lat="42.53079" lon="2.06998">
        <ele>1792</ele>
        <time>2011-05-03T15:31:18Z</time>
      </trkpt>
      <trkpt lat="42.53077" lon="2.07007">
        <ele>1792</ele>
        <time>2011-05-03T15:31:24Z</time>
      </trkpt>
      <trkpt lat="42.53077" lon="2.07018">
        <ele>1791</ele>
        <time>2011-05-03T15:31:30Z</time>
      </trkpt>
      <trkpt lat="42.53069" lon="2.07043">
        <ele>1791</ele>
        <time>2011-05-03T15:31:47Z</time>
      </trkpt>
      <trkpt lat="42.5306" lon="2.07058">
        <ele>1790</ele>
        <time>2011-05-03T15:31:59Z</time>
      </trkpt>
      <trkpt lat="42.53058" lon="2.07066">
        <ele>1790</ele>
        <time>2011-05-03T15:32:04Z</time>
      </trkpt>
      <trkpt lat="42.53051" lon="2.07083">
        <ele>1790</ele>
        <time>2011-05-03T15:32:16Z</time>
      </trkpt>
      <trkpt lat="42.53035" lon="2.07102">
        <ele>1789</ele>
        <time>2011-05-03T15:32:33Z</time>
      </trkpt>
      <trkpt lat="42.53018" lon="2.07119">
        <ele>1789</ele>
        <time>2011-05-03T15:32:48Z</time>
      </trkpt>
      <trkpt lat="42.53009" lon="2.07133">
        <ele>1788</ele>
        <time>2011-05-03T15:32:58Z</time>
      </trkpt>
      <trkpt lat="42.53004" lon="2.07139">
        <ele>1788</ele>
        <time>2011-05-03T15:33:04Z</time>
      </trkpt>
      <trkpt lat="42.52994" lon="2.07151">
        <ele>1788</ele>
        <time>2011-05-03T15:33:14Z</time>
      </trkpt>
      <trkpt lat="42.52987" lon="2.07155">
        <ele>1788</ele>
        <time>2011-05-03T15:33:20Z</time>
      </trkpt>
      <trkpt lat="42.52974" lon="2.07159">
        <ele>1787</ele>
        <time>2011-05-03T15:33:32Z</time>
      </trkpt>
      <trkpt lat="42.52967" lon="2.07158">
        <ele>1787</ele>
        <time>2011-05-03T15:33:38Z</time>
      </trkpt>
      <trkpt lat="42.5296" lon="2.07158">
        <ele>1787</ele>
        <time>2011-05-03T15:33:43Z</time>
      </trkpt>
      <trkpt lat="42.52953" lon="2.07159">
        <ele>1787</ele>
        <time>2011-05-03T15:33:48Z</time>
      </trkpt>
      <trkpt lat="42.52946" lon="2.07157">
        <ele>1786</ele>
        <time>2011-05-03T15:33:53Z</time>
      </trkpt>
      <trkpt lat="42.52939" lon="2.07155">
        <ele>1786</ele>
        <time>2011-05-03T15:33:58Z</time>
      </trkpt>
      <trkpt lat="42.52933" lon="2.07151">
        <ele>1786</ele>
        <time>2011-05-03T15:34:04Z</time>
      </trkpt>
      <trkpt lat="42.52927" lon="2.07147">
        <ele>1786</ele>
        <time>2011-05-03T15:34:12Z</time>
      </trkpt>
      <trkpt lat="42.52921" lon="2.07143">
        <ele>1786</ele>
        <time>2011-05-03T15:34:20Z</time>
      </trkpt>
      <trkpt lat="42.52916" lon="2.07136">
        <ele>1786</ele>
        <time>2011-05-03T15:34:28Z</time>
      </trkpt>
      <trkpt lat="42.5291" lon="2.07131">
        <ele>1786</ele>
        <time>2011-05-03T15:34:35Z</time>
      </trkpt>
      <trkpt lat="42.52905" lon="2.07125">
        <ele>1786</ele>
        <time>2011-05-03T15:34:41Z</time>
      </trkpt>
      <trkpt lat="42.52899" lon="2.0712">
        <ele>1785</ele>
        <time>2011-05-03T15:34:46Z</time>
      </trkpt>
      <trkpt lat="42.52893" lon="2.07116">
        <ele>1785</ele>
        <time>2011-05-03T15:34:51Z</time>
      </trkpt>
      <trkpt lat="42.52887" lon="2.07114">
        <ele>1785</ele>
        <time>2011-05-03T15:34:56Z</time>
      </trkpt>
      <trkpt lat="42.5288" lon="2.07111">
        <ele>1785</ele>
        <time>2011-05-03T15:35:02Z</time>
      </trkpt>
      <trkpt lat="42.52874" lon="2.07108">
        <ele>1785</ele>
        <time>2011-05-03T15:35:07Z</time>
      </trkpt>
      <trkpt lat="42.52867" lon="2.07105">
        <ele>1785</ele>
        <time>2011-05-03T15:35:13Z</time>
      </trkpt>
      <trkpt lat="42.5286" lon="2.07103">
        <ele>1784</ele>
        <time>2011-05-03T15:35:19Z</time>
      </trkpt>
      <trkpt lat="42.52853" lon="2.07102">
        <ele>1784</ele>
        <time>2011-05-03T15:35:25Z</time>
      </trkpt>
      <trkpt lat="42.52846" lon="2.07102">
        <ele>1784</ele>
        <time>2011-05-03T15:35:31Z</time>
      </trkpt>
      <trkpt lat="42.52839" lon="2.07103">
        <ele>1783</ele>
        <time>2011-05-03T15:35:37Z</time>
      </trkpt>
      <trkpt lat="42.52831" lon="2.071">
        <ele>1783</ele>
        <time>2011-05-03T15:35:43Z</time>
      </trkpt>
      <trkpt lat="42.52825" lon="2.07095">
        <ele>1783</ele>
        <time>2011-05-03T15:35:49Z</time>
      </trkpt>
      <trkpt lat="42.5282" lon="2.07089">
        <ele>1783</ele>
        <time>2011-05-03T15:35:55Z</time>
      </trkpt>
      <trkpt lat="42.52814" lon="2.07084">
        <ele>1782</ele>
        <time>2011-05-03T15:36:01Z</time>
      </trkpt>
      <trkpt lat="42.52801" lon="2.0708">
        <ele>1782</ele>
        <time>2011-05-03T15:36:12Z</time>
      </trkpt>
      <trkpt lat="42.52782" lon="2.07087">
        <ele>1780</ele>
        <time>2011-05-03T15:36:31Z</time>
      </trkpt>
      <trkpt lat="42.52776" lon="2.07092">
        <ele>1780</ele>
        <time>2011-05-03T15:36:37Z</time>
      </trkpt>
      <trkpt lat="42.52771" lon="2.07096">
        <ele>1779</ele>
        <time>2011-05-03T15:36:43Z</time>
      </trkpt>
      <trkpt lat="42.52765" lon="2.07101">
        <ele>1779</ele>
        <time>2011-05-03T15:36:49Z</time>
      </trkpt>
      <trkpt lat="42.52759" lon="2.07116">
        <ele>1777</ele>
        <time>2011-05-03T15:37:17Z</time>
      </trkpt>
      <trkpt lat="42.52758" lon="2.07125">
        <ele>1776</ele>
        <time>2011-05-03T15:37:29Z</time>
      </trkpt>
      <trkpt lat="42.52754" lon="2.07132">
        <ele>1776</ele>
        <time>2011-05-03T15:37:36Z</time>
      </trkpt>
      <trkpt lat="42.52748" lon="2.07147">
        <ele>1774</ele>
        <time>2011-05-03T15:38:12Z</time>
      </trkpt>
      <trkpt lat="42.52742" lon="2.07152">
        <ele>1774</ele>
        <time>2011-05-03T15:38:26Z</time>
      </trkpt>
      <trkpt lat="42.52736" lon="2.07158">
        <ele>1773</ele>
        <time>2011-05-03T15:38:32Z</time>
      </trkpt>
      <trkpt lat="42.52731" lon="2.07164">
        <ele>1773</ele>
        <time>2011-05-03T15:38:38Z</time>
      </trkpt>
      <trkpt lat="42.52723" lon="2.0718">
        <ele>1772</ele>
        <time>2011-05-03T15:38:50Z</time>
      </trkpt>
      <trkpt lat="42.5272" lon="2.07188">
        <ele>1772</ele>
        <time>2011-05-03T15:38:56Z</time>
      </trkpt>
      <trkpt lat="42.52714" lon="2.07205">
        <ele>1771</ele>
        <time>2011-05-03T15:39:08Z</time>
      </trkpt>
      <trkpt lat="42.52709" lon="2.07212">
        <ele>1771</ele>
        <time>2011-05-03T15:39:14Z</time>
      </trkpt>
      <trkpt lat="42.52703" lon="2.07217">
        <ele>1771</ele>
        <time>2011-05-03T15:39:20Z</time>
      </trkpt>
      <trkpt lat="42.52693" lon="2.07231">
        <ele>1770</ele>
        <time>2011-05-03T15:39:32Z</time>
      </trkpt>
      <trkpt lat="42.5269" lon="2.0724">
        <ele>1770</ele>
        <time>2011-05-03T15:39:38Z</time>
      </trkpt>
      <trkpt lat="42.52682" lon="2.07254">
        <ele>1770</ele>
        <time>2011-05-03T15:39:50Z</time>
      </trkpt>
      <trkpt lat="42.52679" lon="2.07263">
        <ele>1770</ele>
        <time>2011-05-03T15:39:56Z</time>
      </trkpt>
      <trkpt lat="42.52675" lon="2.07271">
        <ele>1770</ele>
        <time>2011-05-03T15:40:02Z</time>
      </trkpt>
      <trkpt lat="42.52671" lon="2.07279">
        <ele>1769</ele>
        <time>2011-05-03T15:40:08Z</time>
      </trkpt>
      <trkpt lat="42.52669" lon="2.07287">
        <ele>1769</ele>
        <time>2011-05-03T15:40:13Z</time>
      </trkpt>
      <trkpt lat="42.52666" lon="2.07296">
        <ele>1769</ele>
        <time>2011-05-03T15:40:19Z</time>
      </trkpt>
      <trkpt lat="42.52664" lon="2.07304">
        <ele>1769</ele>
        <time>2011-05-03T15:40:24Z</time>
      </trkpt>
      <trkpt lat="42.52661" lon="2.07312">
        <ele>1769</ele>
        <time>2011-05-03T15:40:29Z</time>
      </trkpt>
      <trkpt lat="42.52657" lon="2.07321">
        <ele>1768</ele>
        <time>2011-05-03T15:40:35Z</time>
      </trkpt>
      <trkpt lat="42.52645" lon="2.07344">
        <ele>1768</ele>
        <time>2011-05-03T15:40:53Z</time>
      </trkpt>
      <trkpt lat="42.52642" lon="2.07353">
        <ele>1767</ele>
        <time>2011-05-03T15:40:59Z</time>
      </trkpt>
      <trkpt lat="42.5264" lon="2.07362">
        <ele>1767</ele>
        <time>2011-05-03T15:41:05Z</time>
      </trkpt>
      <trkpt lat="42.5263" lon="2.07387">
        <ele>1766</ele>
        <time>2011-05-03T15:41:23Z</time>
      </trkpt>
      <trkpt lat="42.52625" lon="2.07394">
        <ele>1766</ele>
        <time>2011-05-03T15:41:29Z</time>
      </trkpt>
      <trkpt lat="42.52621" lon="2.07401">
        <ele>1766</ele>
        <time>2011-05-03T15:41:34Z</time>
      </trkpt>
      <trkpt lat="42.52608" lon="2.0742">
        <ele>1765</ele>
        <time>2011-05-03T15:41:49Z</time>
      </trkpt>
      <trkpt lat="42.52603" lon="2.07427">
        <ele>1765</ele>
        <time>2011-05-03T15:41:55Z</time>
      </trkpt>
      <trkpt lat="42.52598" lon="2.07434">
        <ele>1765</ele>
        <time>2011-05-03T15:42:01Z</time>
      </trkpt>
      <trkpt lat="42.52594" lon="2.07442">
        <ele>1765</ele>
        <time>2011-05-03T15:42:07Z</time>
      </trkpt>
      <trkpt lat="42.5259" lon="2.0745">
        <ele>1765</ele>
        <time>2011-05-03T15:42:13Z</time>
      </trkpt>
      <trkpt lat="42.52586" lon="2.07458">
        <ele>1764</ele>
        <time>2011-05-03T15:42:19Z</time>
      </trkpt>
      <trkpt lat="42.52582" lon="2.07467">
        <ele>1764</ele>
        <time>2011-05-03T15:42:25Z</time>
      </trkpt>
      <trkpt lat="42.52578" lon="2.07475">
        <ele>1764</ele>
        <time>2011-05-03T15:42:30Z</time>
      </trkpt>
      <trkpt lat="42.52574" lon="2.07482">
        <ele>1764</ele>
        <time>2011-05-03T15:42:36Z</time>
      </trkpt>
      <trkpt lat="42.52569" lon="2.0749">
        <ele>1764</ele>
        <time>2011-05-03T15:42:42Z</time>
      </trkpt>
      <trkpt lat="42.52564" lon="2.07497">
        <ele>1764</ele>
        <time>2011-05-03T15:42:48Z</time>
      </trkpt>
      <trkpt lat="42.52559" lon="2.07504">
        <ele>1763</ele>
        <time>2011-05-03T15:42:54Z</time>
      </trkpt>
      <trkpt lat="42.5255" lon="2.07519">
        <ele>1763</ele>
        <time>2011-05-03T15:43:06Z</time>
      </trkpt>
      <trkpt lat="42.52538" lon="2.07525">
        <ele>1761</ele>
        <time>2011-05-03T15:43:49Z</time>
      </trkpt>
      <trkpt lat="42.52531" lon="2.07531">
        <ele>1761</ele>
        <time>2011-05-03T15:43:55Z</time>
      </trkpt>
      <trkpt lat="42.52526" lon="2.07537">
        <ele>1760</ele>
        <time>2011-05-03T15:44:01Z</time>
      </trkpt>
      <trkpt lat="42.52522" lon="2.07544">
        <ele>1760</ele>
        <time>2011-05-03T15:44:07Z</time>
      </trkpt>
      <trkpt lat="42.52519" lon="2.07552">
        <ele>1759</ele>
        <time>2011-05-03T15:44:13Z</time>
      </trkpt>
      <trkpt lat="42.52515" lon="2.07559">
        <ele>1759</ele>
        <time>2011-05-03T15:44:19Z</time>
      </trkpt>
      <trkpt lat="42.52511" lon="2.07567">
        <ele>1759</ele>
        <time>2011-05-03T15:44:25Z</time>
      </trkpt>
      <trkpt lat="42.52509" lon="2.07576">
        <ele>1758</ele>
        <time>2011-05-03T15:44:31Z</time>
      </trkpt>
      <trkpt lat="42.525" lon="2.076">
        <ele>1758</ele>
        <time>2011-05-03T15:44:59Z</time>
      </trkpt>
      <trkpt lat="42.52499" lon="2.0761">
        <ele>1757</ele>
        <time>2011-05-03T15:45:04Z</time>
      </trkpt>
      <trkpt lat="42.52497" lon="2.07619">
        <ele>1757</ele>
        <time>2011-05-03T15:45:09Z</time>
      </trkpt>
      <trkpt lat="42.52495" lon="2.07638">
        <ele>1757</ele>
        <time>2011-05-03T15:45:19Z</time>
      </trkpt>
      <trkpt lat="42.52492" lon="2.07657">
        <ele>1757</ele>
        <time>2011-05-03T15:45:29Z</time>
      </trkpt>
      <trkpt lat="42.52491" lon="2.07665">
        <ele>1757</ele>
        <time>2011-05-03T15:45:34Z</time>
      </trkpt>
      <trkpt lat="42.5249" lon="2.07674">
        <ele>1757</ele>
        <time>2011-05-03T15:45:39Z</time>
      </trkpt>
      <trkpt lat="42.52489" lon="2.07683">
        <ele>1757</ele>
        <time>2011-05-03T15:45:44Z</time>
      </trkpt>
      <trkpt lat="42.52489" lon="2.07691">
        <ele>1757</ele>
        <time>2011-05-03T15:45:49Z</time>
      </trkpt>
      <trkpt lat="42.52487" lon="2.07701">
        <ele>1756</ele>
        <time>2011-05-03T15:45:55Z</time>
      </trkpt>
      <trkpt lat="42.52482" lon="2.07709">
        <ele>1756</ele>
        <time>2011-05-03T15:46:01Z</time>
      </trkpt>
      <trkpt lat="42.52478" lon="2.07716">
        <ele>1756</ele>
        <time>2011-05-03T15:46:07Z</time>
      </trkpt>
      <trkpt lat="42.52474" lon="2.07724">
        <ele>1756</ele>
        <time>2011-05-03T15:46:13Z</time>
      </trkpt>
      <trkpt lat="42.5247" lon="2.07732">
        <ele>1756</ele>
        <time>2011-05-03T15:46:19Z</time>
      </trkpt>
      <trkpt lat="42.5246" lon="2.07745">
        <ele>1756</ele>
        <time>2011-05-03T15:46:31Z</time>
      </trkpt>
      <trkpt lat="42.52445" lon="2.07763">
        <ele>1755</ele>
        <time>2011-05-03T15:46:48Z</time>
      </trkpt>
      <trkpt lat="42.52438" lon="2.07763">
        <ele>1755</ele>
        <time>2011-05-03T15:46:54Z</time>
      </trkpt>
      <trkpt lat="42.52431" lon="2.0776">
        <ele>1754</ele>
        <time>2011-05-03T15:47:00Z</time>
      </trkpt>
      <trkpt lat="42.52425" lon="2.07756">
        <ele>1754</ele>
        <time>2011-05-03T15:47:05Z</time>
      </trkpt>
      <trkpt lat="42.52419" lon="2.07752">
        <ele>1753</ele>
        <time>2011-05-03T15:47:10Z</time>
      </trkpt>
      <trkpt lat="42.52412" lon="2.07748">
        <ele>1753</ele>
        <time>2011-05-03T15:47:16Z</time>
      </trkpt>
      <trkpt lat="42.52406" lon="2.07745">
        <ele>1752</ele>
        <time>2011-05-03T15:47:22Z</time>
      </trkpt>
      <trkpt lat="42.52399" lon="2.07742">
        <ele>1752</ele>
        <time>2011-05-03T15:47:28Z</time>
      </trkpt>
      <trkpt lat="42.52392" lon="2.0774">
        <ele>1751</ele>
        <time>2011-05-03T15:47:34Z</time>
      </trkpt>
      <trkpt lat="42.52385" lon="2.07741">
        <ele>1751</ele>
        <time>2011-05-03T15:47:39Z</time>
      </trkpt>
      <trkpt lat="42.52379" lon="2.07742">
        <ele>1751</ele>
        <time>2011-05-03T15:47:44Z</time>
      </trkpt>
      <trkpt lat="42.52372" lon="2.07744">
        <ele>1751</ele>
        <time>2011-05-03T15:47:49Z</time>
      </trkpt>
      <trkpt lat="42.52366" lon="2.07748">
        <ele>1751</ele>
        <time>2011-05-03T15:47:54Z</time>
      </trkpt>
      <trkpt lat="42.52359" lon="2.07753">
        <ele>1751</ele>
        <time>2011-05-03T15:47:59Z</time>
      </trkpt>
      <trkpt lat="42.52353" lon="2.07758">
        <ele>1751</ele>
        <time>2011-05-03T15:48:04Z</time>
      </trkpt>
      <trkpt lat="42.52347" lon="2.07762">
        <ele>1751</ele>
        <time>2011-05-03T15:48:09Z</time>
      </trkpt>
      <trkpt lat="42.52341" lon="2.07766">
        <ele>1751</ele>
        <time>2011-05-03T15:48:14Z</time>
      </trkpt>
      <trkpt lat="42.52335" lon="2.0777">
        <ele>1751</ele>
        <time>2011-05-03T15:48:20Z</time>
      </trkpt>
      <trkpt lat="42.52329" lon="2.07775">
        <ele>1751</ele>
        <time>2011-05-03T15:48:27Z</time>
      </trkpt>
      <trkpt lat="42.52323" lon="2.07776">
        <ele>1751</ele>
        <time>2011-05-03T15:48:37Z</time>
      </trkpt>
      <trkpt lat="42.52323" lon="2.07767">
        <ele>1751</ele>
        <time>2011-05-03T15:48:45Z</time>
      </trkpt>
      <trkpt lat="42.52325" lon="2.07758">
        <ele>1751</ele>
        <time>2011-05-03T15:48:52Z</time>
      </trkpt>
      <trkpt lat="42.52328" lon="2.07749">
        <ele>1751</ele>
        <time>2011-05-03T15:48:59Z</time>
      </trkpt>
      <trkpt lat="42.5233" lon="2.0774">
        <ele>1751</ele>
        <time>2011-05-03T15:49:06Z</time>
      </trkpt>
      <trkpt lat="42.52328" lon="2.07722">
        <ele>1751</ele>
        <time>2011-05-03T15:49:19Z</time>
      </trkpt>
      <trkpt lat="42.52323" lon="2.07715">
        <ele>1751</ele>
        <time>2011-05-03T15:49:26Z</time>
      </trkpt>
      <trkpt lat="42.52318" lon="2.07709">
        <ele>1751</ele>
        <time>2011-05-03T15:49:33Z</time>
      </trkpt>
      <trkpt lat="42.52313" lon="2.07704">
        <ele>1752</ele>
        <time>2011-05-03T15:49:39Z</time>
      </trkpt>
      <trkpt lat="42.52306" lon="2.07701">
        <ele>1752</ele>
        <time>2011-05-03T15:49:45Z</time>
      </trkpt>
      <trkpt lat="42.52299" lon="2.07698">
        <ele>1752</ele>
        <time>2011-05-03T15:49:50Z</time>
      </trkpt>
      <trkpt lat="42.52292" lon="2.07696">
        <ele>1752</ele>
        <time>2011-05-03T15:49:55Z</time>
      </trkpt>
      <trkpt lat="42.52286" lon="2.07695">
        <ele>1752</ele>
        <time>2011-05-03T15:50:00Z</time>
      </trkpt>
      <trkpt lat="42.52279" lon="2.07693">
        <ele>1752</ele>
        <time>2011-05-03T15:50:05Z</time>
      </trkpt>
      <trkpt lat="42.52272" lon="2.07692">
        <ele>1752</ele>
        <time>2011-05-03T15:50:10Z</time>
      </trkpt>
      <trkpt lat="42.52265" lon="2.07692">
        <ele>1752</ele>
        <time>2011-05-03T15:50:15Z</time>
      </trkpt>
      <trkpt lat="42.52258" lon="2.07692">
        <ele>1752</ele>
        <time>2011-05-03T15:50:20Z</time>
      </trkpt>
      <trkpt lat="42.52252" lon="2.07695">
        <ele>1752</ele>
        <time>2011-05-03T15:50:25Z</time>
      </trkpt>
      <trkpt lat="42.5224" lon="2.07703">
        <ele>1753</ele>
        <time>2011-05-03T15:50:35Z</time>
      </trkpt>
      <trkpt lat="42.52234" lon="2.07708">
        <ele>1753</ele>
        <time>2011-05-03T15:50:41Z</time>
      </trkpt>
      <trkpt lat="42.5223" lon="2.07715">
        <ele>1753</ele>
        <time>2011-05-03T15:50:55Z</time>
      </trkpt>
      <trkpt lat="42.52225" lon="2.07721">
        <ele>1753</ele>
        <time>2011-05-03T15:51:00Z</time>
      </trkpt>
      <trkpt lat="42.52219" lon="2.07727">
        <ele>1753</ele>
        <time>2011-05-03T15:51:06Z</time>
      </trkpt>
      <trkpt lat="42.52203" lon="2.07743">
        <ele>1754</ele>
        <time>2011-05-03T15:51:24Z</time>
      </trkpt>
      <trkpt lat="42.52197" lon="2.07749">
        <ele>1754</ele>
        <time>2011-05-03T15:51:30Z</time>
      </trkpt>
      <trkpt lat="42.52192" lon="2.07755">
        <ele>1755</ele>
        <time>2011-05-03T15:51:36Z</time>
      </trkpt>
      <trkpt lat="42.52188" lon="2.07762">
        <ele>1755</ele>
        <time>2011-05-03T15:51:42Z</time>
      </trkpt>
      <trkpt lat="42.52183" lon="2.07768">
        <ele>1755</ele>
        <time>2011-05-03T15:51:48Z</time>
      </trkpt>
      <trkpt lat="42.52177" lon="2.07775">
        <ele>1755</ele>
        <time>2011-05-03T15:51:54Z</time>
      </trkpt>
      <trkpt lat="42.52174" lon="2.07783">
        <ele>1755</ele>
        <time>2011-05-03T15:52:26Z</time>
      </trkpt>
      <trkpt lat="42.52167" lon="2.07787">
        <ele>1755</ele>
        <time>2011-05-03T15:52:32Z</time>
      </trkpt>
      <trkpt lat="42.52161" lon="2.07792">
        <ele>1756</ele>
        <time>2011-05-03T15:52:38Z</time>
      </trkpt>
      <trkpt lat="42.52155" lon="2.07797">
        <ele>1756</ele>
        <time>2011-05-03T15:52:44Z</time>
      </trkpt>
      <trkpt lat="42.52149" lon="2.07802">
        <ele>1756</ele>
        <time>2011-05-03T15:52:51Z</time>
      </trkpt>
      <trkpt lat="42.52143" lon="2.07806">
        <ele>1756</ele>
        <time>2011-05-03T15:52:57Z</time>
      </trkpt>
      <trkpt lat="42.52138" lon="2.07811">
        <ele>1756</ele>
        <time>2011-05-03T15:53:03Z</time>
      </trkpt>
      <trkpt lat="42.52118" lon="2.07824">
        <ele>1756</ele>
        <time>2011-05-03T15:53:21Z</time>
      </trkpt>
      <trkpt lat="42.52112" lon="2.07827">
        <ele>1756</ele>
        <time>2011-05-03T15:53:26Z</time>
      </trkpt>
      <trkpt lat="42.52106" lon="2.07831">
        <ele>1757</ele>
        <time>2011-05-03T15:53:31Z</time>
      </trkpt>
      <trkpt lat="42.521" lon="2.07836">
        <ele>1757</ele>
        <time>2011-05-03T15:53:37Z</time>
      </trkpt>
      <trkpt lat="42.52087" lon="2.07843">
        <ele>1757</ele>
        <time>2011-05-03T15:53:49Z</time>
      </trkpt>
      <trkpt lat="42.52081" lon="2.07847">
        <ele>1757</ele>
        <time>2011-05-03T15:53:55Z</time>
      </trkpt>
      <trkpt lat="42.52075" lon="2.07851">
        <ele>1758</ele>
        <time>2011-05-03T15:54:00Z</time>
      </trkpt>
      <trkpt lat="42.52057" lon="2.07866">
        <ele>1758</ele>
        <time>2011-05-03T15:54:17Z</time>
      </trkpt>
      <trkpt lat="42.52051" lon="2.07868">
        <ele>1759</ele>
        <time>2011-05-03T15:54:38Z</time>
      </trkpt>
      <trkpt lat="42.52046" lon="2.07875">
        <ele>1759</ele>
        <time>2011-05-03T15:54:48Z</time>
      </trkpt>
      <trkpt lat="42.52035" lon="2.07885">
        <ele>1760</ele>
        <time>2011-05-03T15:55:01Z</time>
      </trkpt>
      <trkpt lat="42.52023" lon="2.07894">
        <ele>1760</ele>
        <time>2011-05-03T15:55:13Z</time>
      </trkpt>
      <trkpt lat="42.52018" lon="2.079">
        <ele>1760</ele>
        <time>2011-05-03T15:55:20Z</time>
      </trkpt>
      <trkpt lat="42.5201" lon="2.07914">
        <ele>1761</ele>
        <time>2011-05-03T15:55:32Z</time>
      </trkpt>
      <trkpt lat="42.52004" lon="2.07918">
        <ele>1761</ele>
        <time>2011-05-03T15:55:38Z</time>
      </trkpt>
      <trkpt lat="42.51998" lon="2.07921">
        <ele>1761</ele>
        <time>2011-05-03T15:55:44Z</time>
      </trkpt>
      <trkpt lat="42.51992" lon="2.07926">
        <ele>1762</ele>
        <time>2011-05-03T15:55:50Z</time>
      </trkpt>
      <trkpt lat="42.51986" lon="2.07932">
        <ele>1762</ele>
        <time>2011-05-03T15:55:57Z</time>
      </trkpt>
      <trkpt lat="42.51977" lon="2.07944">
        <ele>1763</ele>
        <time>2011-05-03T15:56:09Z</time>
      </trkpt>
      <trkpt lat="42.51973" lon="2.07952">
        <ele>1763</ele>
        <time>2011-05-03T15:56:16Z</time>
      </trkpt>
      <trkpt lat="42.51958" lon="2.07968">
        <ele>1764</ele>
        <time>2011-05-03T15:56:34Z</time>
      </trkpt>
      <trkpt lat="42.51953" lon="2.07975">
        <ele>1764</ele>
        <time>2011-05-03T15:56:41Z</time>
      </trkpt>
      <trkpt lat="42.51948" lon="2.07982">
        <ele>1765</ele>
        <time>2011-05-03T15:56:48Z</time>
      </trkpt>
      <trkpt lat="42.51934" lon="2.08003">
        <ele>1766</ele>
        <time>2011-05-03T15:57:09Z</time>
      </trkpt>
      <trkpt lat="42.51927" lon="2.08008">
        <ele>1766</ele>
        <time>2011-05-03T15:57:16Z</time>
      </trkpt>
      <trkpt lat="42.51921" lon="2.08012">
        <ele>1766</ele>
        <time>2011-05-03T15:57:22Z</time>
      </trkpt>
      <trkpt lat="42.51915" lon="2.08016">
        <ele>1766</ele>
        <time>2011-05-03T15:57:29Z</time>
      </trkpt>
      <trkpt lat="42.519" lon="2.08033">
        <ele>1767</ele>
        <time>2011-05-03T15:57:47Z</time>
      </trkpt>
      <trkpt lat="42.51895" lon="2.0804">
        <ele>1767</ele>
        <time>2011-05-03T15:57:53Z</time>
      </trkpt>
      <trkpt lat="42.5189" lon="2.08046">
        <ele>1767</ele>
        <time>2011-05-03T15:57:59Z</time>
      </trkpt>
      <trkpt lat="42.51885" lon="2.08051">
        <ele>1767</ele>
        <time>2011-05-03T15:58:05Z</time>
      </trkpt>
      <trkpt lat="42.51879" lon="2.08056">
        <ele>1767</ele>
        <time>2011-05-03T15:58:11Z</time>
      </trkpt>
      <trkpt lat="42.51873" lon="2.08061">
        <ele>1768</ele>
        <time>2011-05-03T15:58:18Z</time>
      </trkpt>
      <trkpt lat="42.51866" lon="2.08063">
        <ele>1768</ele>
        <time>2011-05-03T15:58:25Z</time>
      </trkpt>
      <trkpt lat="42.5186" lon="2.08063">
        <ele>1768</ele>
        <time>2011-05-03T15:58:32Z</time>
      </trkpt>
      <trkpt lat="42.51854" lon="2.0806">
        <ele>1768</ele>
        <time>2011-05-03T15:58:38Z</time>
      </trkpt>
      <trkpt lat="42.51847" lon="2.08058">
        <ele>1768</ele>
        <time>2011-05-03T15:58:45Z</time>
      </trkpt>
      <trkpt lat="42.5184" lon="2.08055">
        <ele>1768</ele>
        <time>2011-05-03T15:58:51Z</time>
      </trkpt>
      <trkpt lat="42.51835" lon="2.08051">
        <ele>1768</ele>
        <time>2011-05-03T15:58:57Z</time>
      </trkpt>
      <trkpt lat="42.51829" lon="2.08048">
        <ele>1769</ele>
        <time>2011-05-03T15:59:03Z</time>
      </trkpt>
      <trkpt lat="42.51823" lon="2.08043">
        <ele>1769</ele>
        <time>2011-05-03T15:59:09Z</time>
      </trkpt>
      <trkpt lat="42.51816" lon="2.08038">
        <ele>1769</ele>
        <time>2011-05-03T15:59:15Z</time>
      </trkpt>
      <trkpt lat="42.51811" lon="2.08033">
        <ele>1769</ele>
        <time>2011-05-03T15:59:21Z</time>
      </trkpt>
      <trkpt lat="42.51806" lon="2.08028">
        <ele>1769</ele>
        <time>2011-05-03T15:59:27Z</time>
      </trkpt>
      <trkpt lat="42.51801" lon="2.08022">
        <ele>1769</ele>
        <time>2011-05-03T15:59:33Z</time>
      </trkpt>
      <trkpt lat="42.51795" lon="2.08017">
        <ele>1769</ele>
        <time>2011-05-03T15:59:39Z</time>
      </trkpt>
      <trkpt lat="42.5179" lon="2.08011">
        <ele>1770</ele>
        <time>2011-05-03T15:59:45Z</time>
      </trkpt>
      <trkpt lat="42.51785" lon="2.08005">
        <ele>1770</ele>
        <time>2011-05-03T15:59:51Z</time>
      </trkpt>
      <trkpt lat="42.51776" lon="2.0799">
        <ele>1770</ele>
        <time>2011-05-03T16:00:03Z</time>
      </trkpt>
      <trkpt lat="42.51773" lon="2.07982">
        <ele>1770</ele>
        <time>2011-05-03T16:00:10Z</time>
      </trkpt>
      <trkpt lat="42.5177" lon="2.07974">
        <ele>1771</ele>
        <time>2011-05-03T16:00:16Z</time>
      </trkpt>
      <trkpt lat="42.51767" lon="2.07967">
        <ele>1771</ele>
        <time>2011-05-03T16:00:22Z</time>
      </trkpt>
      <trkpt lat="42.51763" lon="2.07958">
        <ele>1771</ele>
        <time>2011-05-03T16:00:29Z</time>
      </trkpt>
      <trkpt lat="42.51758" lon="2.07942">
        <ele>1772</ele>
        <time>2011-05-03T16:00:41Z</time>
      </trkpt>
      <trkpt lat="42.51755" lon="2.07933">
        <ele>1773</ele>
        <time>2011-05-03T16:00:47Z</time>
      </trkpt>
      <trkpt lat="42.51751" lon="2.07925">
        <ele>1773</ele>
        <time>2011-05-03T16:00:53Z</time>
      </trkpt>
      <trkpt lat="42.51749" lon="2.07916">
        <ele>1773</ele>
        <time>2011-05-03T16:00:59Z</time>
      </trkpt>
      <trkpt lat="42.51747" lon="2.07907">
        <ele>1774</ele>
        <time>2011-05-03T16:01:05Z</time>
      </trkpt>
      <trkpt lat="42.51744" lon="2.07899">
        <ele>1774</ele>
        <time>2011-05-03T16:01:11Z</time>
      </trkpt>
      <trkpt lat="42.51742" lon="2.07891">
        <ele>1774</ele>
        <time>2011-05-03T16:01:17Z</time>
      </trkpt>
      <trkpt lat="42.5174" lon="2.07882">
        <ele>1774</ele>
        <time>2011-05-03T16:01:23Z</time>
      </trkpt>
      <trkpt lat="42.51739" lon="2.07873">
        <ele>1774</ele>
        <time>2011-05-03T16:01:29Z</time>
      </trkpt>
      <trkpt lat="42.51737" lon="2.07865">
        <ele>1774</ele>
        <time>2011-05-03T16:01:35Z</time>
      </trkpt>
      <trkpt lat="42.51735" lon="2.07856">
        <ele>1774</ele>
        <time>2011-05-03T16:01:41Z</time>
      </trkpt>
      <trkpt lat="42.51734" lon="2.07847">
        <ele>1774</ele>
        <time>2011-05-03T16:01:47Z</time>
      </trkpt>
      <trkpt lat="42.51732" lon="2.07837">
        <ele>1775</ele>
        <time>2011-05-03T16:01:53Z</time>
      </trkpt>
      <trkpt lat="42.51729" lon="2.07828">
        <ele>1775</ele>
        <time>2011-05-03T16:01:59Z</time>
      </trkpt>
      <trkpt lat="42.51727" lon="2.07819">
        <ele>1775</ele>
        <time>2011-05-03T16:02:05Z</time>
      </trkpt>
      <trkpt lat="42.51726" lon="2.0781">
        <ele>1775</ele>
        <time>2011-05-03T16:02:11Z</time>
      </trkpt>
      <trkpt lat="42.51724" lon="2.078">
        <ele>1775</ele>
        <time>2011-05-03T16:02:17Z</time>
      </trkpt>
      <trkpt lat="42.51722" lon="2.07792">
        <ele>1775</ele>
        <time>2011-05-03T16:02:22Z</time>
      </trkpt>
      <trkpt lat="42.5172" lon="2.07782">
        <ele>1775</ele>
        <time>2011-05-03T16:02:28Z</time>
      </trkpt>
      <trkpt lat="42.51717" lon="2.07773">
        <ele>1775</ele>
        <time>2011-05-03T16:02:34Z</time>
      </trkpt>
      <trkpt lat="42.51713" lon="2.07765">
        <ele>1776</ele>
        <time>2011-05-03T16:02:40Z</time>
      </trkpt>
      <trkpt lat="42.51709" lon="2.07758">
        <ele>1776</ele>
        <time>2011-05-03T16:02:46Z</time>
      </trkpt>
      <trkpt lat="42.51705" lon="2.07751">
        <ele>1776</ele>
        <time>2011-05-03T16:02:52Z</time>
      </trkpt>
      <trkpt lat="42.51699" lon="2.07745">
        <ele>1776</ele>
        <time>2011-05-03T16:02:58Z</time>
      </trkpt>
      <trkpt lat="42.51694" lon="2.07739">
        <ele>1776</ele>
        <time>2011-05-03T16:03:04Z</time>
      </trkpt>
      <trkpt lat="42.51689" lon="2.07733">
        <ele>1776</ele>
        <time>2011-05-03T16:03:10Z</time>
      </trkpt>
      <trkpt lat="42.51683" lon="2.07728">
        <ele>1776</ele>
        <time>2011-05-03T16:03:16Z</time>
      </trkpt>
      <trkpt lat="42.51677" lon="2.07722">
        <ele>1776</ele>
        <time>2011-05-03T16:03:22Z</time>
      </trkpt>
      <trkpt lat="42.51671" lon="2.07717">
        <ele>1776</ele>
        <time>2011-05-03T16:03:28Z</time>
      </trkpt>
      <trkpt lat="42.51666" lon="2.07713">
        <ele>1777</ele>
        <time>2011-05-03T16:03:34Z</time>
      </trkpt>
      <trkpt lat="42.5166" lon="2.07711">
        <ele>1777</ele>
        <time>2011-05-03T16:03:40Z</time>
      </trkpt>
      <trkpt lat="42.51647" lon="2.07704">
        <ele>1777</ele>
        <time>2011-05-03T16:03:51Z</time>
      </trkpt>
      <trkpt lat="42.5164" lon="2.07702">
        <ele>1777</ele>
        <time>2011-05-03T16:03:56Z</time>
      </trkpt>
      <trkpt lat="42.51627" lon="2.07696">
        <ele>1777</ele>
        <time>2011-05-03T16:04:19Z</time>
      </trkpt>
      <trkpt lat="42.51621" lon="2.07695">
        <ele>1778</ele>
        <time>2011-05-03T16:04:26Z</time>
      </trkpt>
      <trkpt lat="42.51615" lon="2.07691">
        <ele>1778</ele>
        <time>2011-05-03T16:04:33Z</time>
      </trkpt>
      <trkpt lat="42.51609" lon="2.07686">
        <ele>1778</ele>
        <time>2011-05-03T16:04:40Z</time>
      </trkpt>
      <trkpt lat="42.51603" lon="2.0768">
        <ele>1778</ele>
        <time>2011-05-03T16:04:47Z</time>
      </trkpt>
      <trkpt lat="42.51598" lon="2.07673">
        <ele>1778</ele>
        <time>2011-05-03T16:04:54Z</time>
      </trkpt>
      <trkpt lat="42.51581" lon="2.07656">
        <ele>1778</ele>
        <time>2011-05-03T16:05:15Z</time>
      </trkpt>
      <trkpt lat="42.51562" lon="2.07651">
        <ele>1778</ele>
        <time>2011-05-03T16:05:35Z</time>
      </trkpt>
      <trkpt lat="42.51555" lon="2.07654">
        <ele>1779</ele>
        <time>2011-05-03T16:05:43Z</time>
      </trkpt>
      <trkpt lat="42.51549" lon="2.07657">
        <ele>1779</ele>
        <time>2011-05-03T16:05:51Z</time>
      </trkpt>
      <trkpt lat="42.51544" lon="2.07652">
        <ele>1778</ele>
        <time>2011-05-03T16:06:00Z</time>
      </trkpt>
      <trkpt lat="42.51538" lon="2.07648">
        <ele>1778</ele>
        <time>2011-05-03T16:06:10Z</time>
      </trkpt>
      <trkpt lat="42.51538" lon="2.07648">
        <ele>1725.7</ele>
        <time>2011-05-03T16:07:11Z</time>
      </trkpt>
    </trkseg>
  </trk>
</gpx>